     2              OBSERVATION DATA    GPS                 RINEX VERSION / TYPE
teqc 2002Apr3 20041109 01:33:14UTC                          PGM / RUN BY / DATE
                                                            COMMENT
L2: 1 -> 1; 5 -> 5; 60 -> 9                                 COMMENT
L2: 1 -> 1; 5 -> 5; 60 -> 9                                 COMMENT
L2: 1 -> 1; 5 -> 5; 60 -> 9                                 COMMENT
L2: 1 -> 1; 5 -> 5; 60 -> 9                                 COMMENT
L2: 1 -> 1; 5 -> 5; 60 -> 9                                 COMMENT
Original Marker Name: 8761                                  COMMENT
Campaign Name: CSRC/Caltrans post-San Simeon                COMMENT
4-Character Station Name: YORK                              COMMENT
6-Character Antenna Code: TRZEPH                            COMMENT
Vertical Measurement Point: BPA                             COMMENT
Vertical Offset to Rinex Ref. Point: 0.0000                 COMMENT
Radial Measurement Point: RRP                               COMMENT
Radial Offset to Rinex Ref. Point: 0.0000                   COMMENT
Antenna Height from Field Measurement: 2.0000 m             COMMENT
Original XYZ: -2664403.1997 -4461403.7047 3686515.9902      COMMENT
New XYZ position is based on association with SCEC monument COMMENT
E1F1B0H2+0011. Position of that monument is believed to be  COMMENT
valid to within 1 m horizontally; vertical accuracy         COMMENT
should be no worse than 3-times this value.                 COMMENT
                                                            COMMENT
Revised Rinex header created by UCSD GPS archive for        COMMENT
GSAC on 11-Feb-2005 (2005:042) 22:03:06 GMT                 COMMENT
For assistance contact dagnew@ucsd.edu                      COMMENT
or anderson@python.ucsd.edu                                 COMMENT
                                                            COMMENT
YORK                                                        MARKER NAME
8761                                                        MARKER NUMBER
G. A. Stilinovich CALIF DEPT TRANSPORTATION DISTRICT 5      OBSERVER / AGENCY
0220308761 TRIMBLE 5700 NP 2.01 / SP 0.00                   REC # / TYPE / VERS
12422923 TRM41249.00                                        ANT # / TYPE
 -2664401.0000 -4461401.0000  3686512.0000                  APPROX POSITION XYZ
        2.0000        0.0000        0.0000                  ANTENNA: DELTA H/E/N
     1     1     0                                          WAVELENGTH FACT L1/2
     7    C1    L1    L2    P1    P2    S1    S2            # / TYPES OF OBSERV
     0                                                      INTERVAL
  2004     7    14    18    52   30.000000                  TIME OF FIRST OBS
  2004     7    15     0     1   30.000000                  TIME OF LAST OBS
                                                            END OF HEADER
 04  7 14 18 52 30.0000000  0  7G11G14G15G19G22G25G 3
  22443219.8074    -443638.44549   -322520.37947                  22443216.9764
        48.5004         32.0004
  20974420.7624      90127.91449     60038.87148                  20974418.3934
        50.5004         39.7504
  22451209.7404     290122.39549    203423.16447                  22451209.2424
        47.0004         32.2504
  23113534.1914     118406.00849     80359.51247                  23113532.6374
        46.5004         32.0004
  22594031.0604     102438.69549     69325.88347                  22594026.8974
        48.2504         33.5004
  21741529.3394    -451998.73449   -328908.93447                  21741527.4124
        50.2504         36.0004
  24720480.8834     190138.96949    136242.59846                  24720480.6314
        42.7504         19.2504
 04  7 14 18 52 45.0000000  0  7G11G14G15G19G22G25G 3
  22433269.7824    -495926.28949   -363264.16047                  22433267.3144
        48.7504         32.0004
  20976473.7924     100916.48049     68445.52348                  20976471.0084
        51.2504         39.7504
  22457767.3304     324583.98449    230276.30547                  22457767.0154
        47.7504         32.0004
  23116235.2474     132600.90249     91420.43847                  23116232.1824
        45.5004         31.0004
  22596328.6414     114517.07849     78737.57847                  22596325.7024
        47.5004         33.5004
  21731393.0104    -505265.74249   -370415.68047                  21731391.1704
        50.0004         36.2504
  24725349.2514     215723.25449    156178.32846                  24725349.2024
        42.0004         18.5004
 04  7 14 18 53  0.0000000  0  7G11G14G15G19G22G25G 3
  22423333.6594    -548140.22349   -403950.32847                  22423331.2464
        46.7504         32.0004
  20978537.2734     111758.74649     76894.03148                  20978534.0784
        49.0004         39.7504
  22464335.6224     359100.05549    257171.89547                  22464335.8344
        47.5004         31.5004
  23118948.8224     146861.71549    102532.71547                  23118946.3754
        45.5004         31.2504
  22598631.0214     126614.51649     88164.12147                  22598628.0394
        45.0004         33.0004
  21721271.1584    -558456.27749   -411862.82447                  21721269.3914
        48.5004         37.0004
  24730210.7344     241272.94149    176087.15246                  24730211.3784
        40.2504         18.2504
 04  7 14 18 53 15.0000000  0  7G11G14G15G19G22G25G 3
  22413410.7384    -600283.38349   -444581.35247                  22413408.7644
        45.0004         32.0004
  20980610.2374     122651.21149     85381.64848                  20980607.1284
        50.0004         40.0004
  22470913.2624     393667.09849    284107.20747                  22470912.9414
        47.0004         32.0004
  23121674.9434     161184.89849    113693.57847                  23121672.3524
        46.5004         31.0004
  22600936.2334     138727.77749     97603.00847                  22600932.8804
        45.0004         33.0004
  21711163.0774    -611573.33649   -453252.71947                  21711161.2854
        47.5004         36.5004
  24735065.4174     266784.39549    195966.19146                  24735066.3714
        40.5004         17.5004
 04  7 14 18 53 30.0000000  0  7G11G14G15G19G22G25G 3
  22403502.3324    -652355.63349   -485157.12547                  22403499.5144
        48.7504         32.2504
  20982691.9564     133593.34049     93907.98048                  20982689.4214
        51.2504         40.0004
  22477501.6064     428284.60949    311081.84447                  22477500.5384
        47.2504         31.5004
  23124411.5984     175569.84849    124902.60247                  23124409.7454
        44.5004         31.2504
  22603244.2594     150856.59849    107054.00847                  22603240.9234
        48.2504         33.0004
  21701069.7004    -664616.85249   -494585.30947                  21701067.5244
        50.0004         36.0004
  24739912.8154     292257.07049    215814.99246                  24739913.5194
        38.2504         17.5004
 04  7 14 18 53 45.0000000  0  7G11G14G15G19G22G25G 3
  22393606.6684    -704355.37549   -525676.37947                  22393604.1104
        47.0004         32.0004
  20984784.0734     144586.34449    102473.93848                  20984781.3444
        51.5004         40.0004
  22484098.6654     462953.75049    338096.71547                  22484097.9074
        47.7504         31.5004
  23127161.1994     190017.64849    136160.57447                  23127158.8054
        45.0004         31.2504
  22605555.6604     163002.47749    116518.31347                  22605552.8034
        48.5004         33.7504
  21690989.4574    -717585.21149   -535859.33247                  21690987.8064
        48.7504         36.2504
  24744752.4574     317691.96949    235634.33646                  24744753.6684
        39.5004         17.5004
 04  7 14 18 54  0.0000000  0  7G11G14G15G19G22G25G 3
  22383725.6514    -756280.94949   -566137.86747                  22383723.3954
        44.2504         32.7504
  20986885.8134     155631.29349    111080.37148                  20986883.2414
        51.5004         40.0004
  22490705.3334     497675.58649    365152.64147                  22490705.4934
        47.2504         30.7504
  23129922.3084     204529.19949    147468.24647                  23129920.2924
        46.0004         30.5004
  22607870.3004     175166.79749    125996.96947                  22607867.2624
        48.7504         33.5004
  21680924.6984    -770476.73849   -577073.48047                  21680923.3044
        47.2504         36.7504
  24749585.9404     343090.21149    255425.18846                  24749586.3314
        39.5004         17.7504
 04  7 14 18 54 15.0000000  0  7G11G14G15G19G22G25G 3
  22373858.7614    -808133.78549   -606542.66447                  22373855.6224
        49.0004         31.7504
  20988997.0754     166726.10249    119725.68048                  20988994.2774
        51.5004         40.5004
  22497322.7794     532448.05149    392248.01247                  22497322.7434
        47.0004         30.5004
  23132695.3854     219102.39849    158823.93047                  23132693.5964
        45.5004         30.2504
  22610188.4444     187347.85249    135488.67647                  22610184.9554
        48.7504         33.2504
  21670874.3474    -823292.82049   -618228.84847                  21670872.6154
        49.5004         37.0004
  24754411.3994     368449.63348    275185.70346                  24754412.4854
        34.5004         17.5004
 04  7 14 18 54 30.0000000  0  7G11G14G15G19G22G25G 3
  22364004.2364    -859917.57049   -646893.66047                  22364002.1404
        48.5004         31.7504
  20991117.1224     177866.63749    128406.58648                  20991114.4044
        51.0004         40.5004
  22503949.0184     567266.98049    419379.59047                  22503948.3184
        47.5004         30.0004
  23135480.4354     233733.03149    170224.37547                  23135477.9864
        46.2504         31.5004
  22612509.0684     199541.72349    144990.36747                  22612505.7434
        49.2504         33.5004
  21660837.1494    -876037.14849   -659328.30547                  21660835.6904
        50.0004         36.0004
  24759229.2974     393766.05548    294912.74646                  24759230.1214
        34.5004         16.2504
 04  7 14 18 54 45.0000000  0  7G11G14G15G19G22G25G 3
  22354163.1984    -911630.85249   -687189.72347                  22354161.1634
        48.7504         32.5004
  20993245.8344     189053.91849    137123.94148                  20993242.9814
        51.2504         40.0004
  22510583.2514     602133.17649    446548.01647                  22510583.1144
        47.0004         30.2504
  23138275.0464     248421.82049    181670.15247                  23138273.0114
        46.5004         32.0004
  22614831.5894     211749.44149    154502.85947                  22614828.6904
        49.0004         33.0004
  21650814.1064    -928708.28949   -700370.72747                  21650812.2034
        50.0004         36.2504
  24764037.9754     419040.32448    314606.89546                  24764040.0394
        33.0004         14.7504
 04  7 14 18 55  0.0000000  0  7G11G14G15G19G22G25G 3
  22344336.3694    -963271.77049   -727429.39147                  22344334.0894
        49.0004         33.0004
  20995383.7884     200289.23049    145878.72748                  20995381.3154
        50.7504         40.0004
  22517227.9454     637048.12149    473754.41847                  22517227.2744
        47.7504         31.5004
  23141082.1444     263170.09849    193162.26647                  23141079.8344
        46.2504         31.0004
  22617157.9304     223972.80549    164027.51647                  22617154.8724
        48.2504         33.0004
  21640805.3884    -981304.25449   -741354.58247                  21640803.9224
        50.5004         36.7504
  24768839.8984     444273.69948    334269.18846                  24768842.2364
        33.7504         15.5004
 04  7 14 18 55 15.0000000  0  7G11G14G15G19G22G25G 3
  22334523.5354   -1014841.18049   -767613.32847                  22334520.8224
        49.0004         32.5004
  20997530.7264     211571.07849    154669.75448                  20997528.1664
        50.0004         40.0004
  22523880.9284     672010.31649    500997.64147                  22523880.6854
        46.2504         31.5004
  23143899.8494     277976.31649    204699.53147                  23143896.5384
        46.0004         31.5004
  22619486.9104     236210.54349    173563.38347                  22619483.2884
        45.5004         33.2504
  21630811.2264   -1033825.98849   -782280.58647                  21630809.2764
        50.5004         37.0004
  24773632.9324     469464.71548    353898.50046                  24773636.4494
        34.5004         16.2504
 04  7 14 18 55 30.0000000  0  7G11G14G15G19G22G25G 3
  22324723.2784   -1066340.31249   -807742.52047                  22324720.7764
        49.0004         32.5004
  20999686.4014     222897.74249    163495.71948                  20999683.8664
        48.2504         40.5004
  22530542.6924     707017.91849    528276.23447                  22530542.5754
        47.0004         31.2504
  23146727.9354     292838.50049    216280.42247                  23146725.1664
        46.5004         30.7504
  22621818.2174     248461.19949    183109.32847                  22621815.0984
        44.0004         33.2504
  21620830.1484   -1086274.66449   -823149.67247                  21620828.5284
        50.0004         37.0004
  24778420.3524     494611.60249    373493.44146                  24778421.9774
        37.7504         17.7504
 04  7 14 18 55 45.0000000  0  7G11G14G15G19G22G25G 3
  22314936.7094   -1117769.76649   -847817.40247                  22314934.3174
        47.0004         32.5004
  21001850.0934     234268.20749    172355.80548                  21001847.5814
        50.7504         40.0004
  22537213.3004     742069.89549    555589.39847                  22537212.9004
        47.5004         30.5004
  23149566.4514     307755.56349    227904.06347                  23149563.7724
        46.5004         31.0004
  22624151.5344     260724.06349    192664.77047                  22624148.1224
        48.0004         34.0004
  21610863.7064   -1138650.85949   -863962.26247                  21610862.0194
        49.7504         37.5004
  24783195.6784     519713.18049    393053.02746                  24783197.8134
        37.2504         19.5004
 04  7 14 18 56  0.0000000  0  7G11G14G15G19G22G25G 3
  22305163.9184   -1169126.34849   -887835.50047                  22305161.6314
        45.5004         33.0004
  21004022.5284     245685.12549    181252.08648                  21004019.7114
        51.0004         39.7504
  22543891.8374     777168.86349    582939.20747                  22543891.7744
        46.5004         31.0004
  23152415.4914     322729.94549    239572.36347                  23152413.5814
        45.0004         30.2504
  22626487.6444     273001.97349    202231.94147                  22626484.7794
        49.0004         33.0004
  21600910.8024   -1190951.48849   -904715.99247                  21600908.9684
        47.0004         37.0004
  24787964.4414     544771.91449    412579.25846                  24787966.6254
        38.2504         19.5004
 04  7 14 18 56 15.0000000  0  7G11G14G15G19G22G25G 3
  22295404.8414   -1220411.13349   -927797.67247                  22295401.9254
        47.2504         32.7504
  21006203.6114     257146.85249    190183.30548                  21006200.7544
        51.2504         40.2504
  22550579.8874     812313.28149    610324.42247                  22550579.2444
        47.0004         30.2504
  23155276.1184     337760.06649    251284.10247                  23155272.9654
        46.2504         30.5004
  22628827.1644     285293.73449    211809.91847                  22628823.6424
        48.2504         33.2504
  21590972.7634   -1243177.52349   -945411.57447                  21590970.8814
        49.7504         37.5004
  24792725.3604     569786.18849    432070.87546                  24792727.2024
        40.5004         23.0004
 04  7 14 18 56 30.0000000  0  6G11G14G15G19G22G25
  22285659.2774   -1271621.28549   -967701.67647                  22285657.4434
        46.7504         33.5004
  21008393.5824     268655.57049    199151.12548                  21008390.7824
        50.2504         40.0004
  22557276.6504     847505.32049    637746.74247                  22557276.3564
        47.0004         30.5004
  23158147.5034     352847.97349    263040.89147                  23158144.7124
        47.2504         31.2504
  22631168.9594     297601.89549    221400.66447                  22631166.3774
        46.7504         33.5004
  21581049.0794   -1295326.06249   -986046.79347                  21581047.2864
        49.0004         37.2504
 04  7 14 18 56 45.0000000  0  6G11G14G15G19G22G25
  22275929.1564   -1322755.72349  -1007546.68047                  22275926.3964
        45.2504         33.0004
  21010592.8324     280212.00449    208156.11748                  21010590.0914
        48.0004         39.7504
  22563982.5334     882745.57049    665206.62147                  22563982.3504
        46.2504         30.0004
  23161029.7224     367994.21149    274843.10247                  23161026.9494
        46.7504         30.7504
  22633514.6954     309927.18049    231004.75847                  22633511.9844
        42.0004         33.0004
  21571140.5794   -1347396.09049  -1026620.83247                  21571139.1934
        47.2504         37.7504
 04  7 14 18 57  0.0000000  0  6G11G14G15G19G22G25
  22266213.6014   -1373811.57449  -1047330.45347                  22266210.8674
        46.7504         34.0004
  21012801.4804     291818.41849    217200.07047                  21012798.6824
        49.5004         39.2504
  22570698.0354     918036.31349    692705.84447                  22570698.5434
        46.5004         30.0004
  23163923.0514     383200.92249    286692.44947                  23163921.0294
        44.7504         30.5004
  22635863.6354     322272.21549    240624.23847                  22635860.7474
        45.0004         33.5004
  21561247.1804   -1399384.78149  -1067131.48047                  21561245.8044
        48.5004         37.5004
 04  7 14 18 57 15.0000000  0  6G11G14G15G19G22G25
  22256513.0224   -1424786.48849  -1087051.16047                  22256510.6244
        48.5004         34.2504
  21015019.8554     303476.66049    226284.39548                  21015017.3574
        50.5004         39.5004
  22577423.5344     953379.26249    720245.74247                  22577424.0504
        46.7504         30.5004
  23166829.2174     398469.82049    298590.21947                  23166826.5084
        45.5004         30.5004
  22638217.0784     334639.08649    250260.73047                  22638214.1354
        48.2504         33.2504
  21551369.8874   -1451289.59849  -1107576.77347                  21551368.4064
        50.5004         37.5004
 04  7 14 18 57 30.0000000  0  6G11G14G15G19G22G25
  22246828.3834   -1475680.11349  -1126708.52047                  22246826.4084
        49.0004         33.7504
  21017248.1534     315186.62549    235409.03548                  21017245.4864
        50.7504         39.5004
  22584159.7194     988774.35249    747826.28947                  22584159.1734
        47.0004         30.7504
  23169746.4994     413800.73449    310536.35947                  23169743.1014
        46.7504         30.2504
  22640574.8594     347028.09049    259914.47747                  22640571.5694
        48.5004         33.5004
  21541508.8134   -1503110.25449  -1147956.49647                  21541507.1804
        50.5004         38.0004
 04  7 14 18 57 45.0000000  0  6G11G14G15G19G22G25
  22237159.2674   -1526491.35949  -1166301.69147                  22237156.4994
        48.5004         33.0004
  21019486.5574     326948.96949    244574.49248                  21019483.7544
        51.0004         40.0004
  22590905.0644    1024222.20749    775447.95747                  22590904.5384
        46.5004         29.5004
  23172675.2724     429194.11749    322531.16847                  23172672.8354
        45.0004         29.7504
  22642936.9114     359439.98049    269586.04347                  22642933.7104
        47.7504         33.2504
  21531664.2104   -1554845.44549  -1188269.61747                  21531662.3484
        51.2504         38.2504
 04  7 14 18 58  0.0000000  0  6G11G14G15G19G22G25
  22227505.9544   -1577220.77049  -1205831.09847                  22227503.2564
        49.0004         33.2504
  21021734.6884     338762.51249    253779.82848                  21021731.7394
        52.0004         40.0004
  22597660.5204    1059721.76649    803109.90247                  22597660.2234
        47.0004         29.0004
  23175616.5484     444648.79349    334573.72347                  23175613.7944
        45.0004         30.5004
  22645302.8914     371873.93049    279274.81347                  22645299.4364
        47.5004         33.5004
  21521835.5544   -1606495.59049  -1228516.47747                  21521834.2194
        50.5004         38.5004
 04  7 14 18 58 15.0000000  0  6G11G14G15G19G22G25
  22217868.1844   -1627865.78149  -1245294.73847                  22217865.8314
        48.5004         33.7504
  21023992.9254     350629.29749    263026.66848                  21023989.9304
        49.2504         39.5004
  22604425.5674    1095274.96149    830813.65247                  22604425.3394
        46.5004         29.5004
  23178569.3744     460166.74649    346665.57847                  23178567.6654
        45.5004         30.5004
  22647673.8984     384332.35249    288982.63747                  22647670.2524
        45.5004         33.5004
  21512023.1844   -1658058.55149  -1268695.39147                  21512021.4724
        51.0004         37.7504
 04  7 14 18 58 30.0000000  0  6G11G14G15G19G22G25
  22208247.4124   -1678425.95349  -1284692.26247                  22208244.6994
        49.0004         33.5004
  21026261.0634     362549.21149    272314.90247                  21026258.3794
        47.5004         39.2504
  22611201.3944    1130881.53549    858558.96947                  22611201.6024
        46.5004         29.5004
  23181534.3834     475747.62949    358806.48047                  23181531.8584
        45.5004         30.2504
  22650049.0314     396815.32849    298709.62147                  22650046.2374
        42.5004         33.0004
  21502227.7784   -1709533.86749  -1308806.01647                  21502226.2524
        50.5004         36.7504
 04  7 14 18 58 45.0000000  0  6G11G14G15G19G22G25
  22198642.7034   -1728899.40249  -1324022.22347                  22198639.9334
        46.0004         33.7504
  21028539.5584     374523.55149    281645.55148                  21028536.8604
        47.5004         39.5004
  22617987.9104    1166542.61349    886346.77747                  22617988.0334
        47.0004         30.2504
  23184511.8694     491392.68449    370997.36747                  23184509.5794
        46.0004         30.2504
  22652429.7984     409324.51649    308457.00047                  22652426.4224
        43.7504         33.5004
  21492449.3764   -1760919.70749  -1348846.91447                  21492447.5024
        48.2504         37.5004
 04  7 14 18 59  0.0000000  0  6G11G14G15G19G22G25
  22189054.0634   -1779286.54349  -1363284.91847                  22189051.6064
        46.7504         34.0004
  21030828.6424     386551.41849    291017.90248                  21030826.0794
        49.5004         39.7504
  22624783.8884    1202257.46949    914176.48447                  22624783.9254
        47.0004         29.0004
  23187500.4114     507100.86349    383237.48047                  23187498.2984
        45.0004         30.5004
  22654814.6834     421859.15649    318224.23447                  22654811.2924
        46.5004         33.0004
  21482688.2484   -1812216.30549  -1388818.28547                  21482686.8084
        49.5004         37.5004
 04  7 14 18 59 15.0000000  0  6G11G14G15G19G22G25
  22179481.8674   -1829588.56649  -1402481.29747                  22179479.4574
        45.0004         33.0004
  21033127.2664     398631.23049    300430.72348                  21033124.4454
        51.0004         39.5004
  22631590.3464    1238024.55549    942046.89547                  22631589.9444
        46.7504         29.0004
  23190502.0314     522870.60949    395525.54747                  23190499.9834
        45.7504         30.7504
  22657204.5484     434417.93849    328010.26647                  22657201.6904
        48.0004         33.2504
  21472943.7524   -1863424.61349  -1428720.85247                  21472941.9214
        47.7504         38.0004
 04  7 14 18 59 30.0000000  0  6G11G14G15G19G22G25
  22169926.6304   -1879803.05549  -1441609.46947                  22169923.6504
        46.0004         33.7504
  21035435.9934     410764.81349    309885.46148                  21035433.4924
        51.0004         39.5004
  22638406.8484    1273845.60249    969959.35247                  22638406.4094
        45.5004         28.5004
  23193514.8874     538703.46949    407862.79347                  23193512.0574
        46.0004         30.0004
  22659599.6794     447003.05549    337816.82447                  22659596.6264
        47.7504         33.0004
  21463215.8614   -1914542.38749  -1468552.87547                  21463214.5054
        48.0004         37.5004
 04  7 14 18 59 45.0000000  0  6G11G14G15G19G22G25
  22160387.6784   -1929929.46149  -1480668.98847                  22160385.0634
        49.2504         34.0004
  21037755.5874     422952.21949    319382.10947                  21037752.8014
        51.0004         38.7504
  22645233.6684    1309720.57449    997913.83247                  22645232.9564
        45.7504         27.7504
  23196539.3224     554599.40649    420249.18447                  23196537.8744
        45.0004         30.2504
  22661999.4464     459614.77749    347644.10247                  22661996.7784
        47.7504         32.5004
  21453505.8974   -1965569.06249  -1508313.90247                  21453504.2054
        50.2504         37.5004
 04  7 14 19  0  0.0000000  0  6G11G14G15G19G22G25
  22150865.8544   -1979966.77049  -1519659.09847                  22150863.3414
        49.2504         33.5004
  21040085.0724     435193.92249    328921.10548                  21040082.1444
        51.0004         39.5004
  22652070.7134    1345650.02349   1025910.73847                  22652070.3794
        45.7504         29.0004
  23199576.6054     570558.78949    432685.01247                  23199574.4934
        44.5004         31.0004
  22664404.8364     472253.85549    357492.72347                  22664401.6494
        48.2504         33.0004
  21443813.6214   -2016503.57049  -1548003.12147                  21443811.5354
        51.2504         37.0004
 04  7 14 19  0 15.0000000  0  6G11G14G15G19G22G25
  22141361.0724   -2029913.03149  -1558578.26247                  22141358.5204
        48.7504         34.0004
  21042425.0064     447491.34449    338503.50447                  21042421.7674
        50.2504         39.2504
  22658918.9054    1381635.21949   1053951.10247                  22658918.3044
        46.2504         28.2504
  23202626.1914     586582.87949    445171.27047                  23202624.0224
        46.5004         30.7504
  22666815.3274     484922.07849    367364.02347                  22666812.1874
        47.2504         32.5004
  21434138.9874   -2067344.01249  -1587619.04347                  21434136.9274
        51.0004         37.7504
 04  7 14 19  0 30.0000000  0  7G23G11G14G15G19G22G25
  24651067.2004     -32141.52059
        39.5004
  22131874.4704   -2079768.67249  -1597426.80947                  22131871.5724
        45.2504         34.2504
  21044775.7634     459843.54749    348128.57847                  21044772.9584
        51.0004         39.2504
  22665776.3174    1417675.30949   1082034.24247                  22665776.7164
        44.7504         28.2504
  23205687.5844     602670.60949    457707.12947                  23205684.8284
        45.7504         31.5004
  22669231.4994     497618.71149    377257.48447                  22669228.9144
        48.0004         32.5004
  21424481.8544   -2118090.75049  -1627161.94147                  21424480.2114
        46.7504         37.2504
 04  7 14 19  0 45.0000000  0  7G23G11G14G15G19G22G25
  24638999.2574     -95561.59049    -69524.24656                  24638997.1794
        40.2504         22.5004
  22122405.0464   -2129530.43049  -1636202.19947                  22122402.4324
        46.5004         34.0004
  21047137.1704     472253.27049    357798.48048                  21047134.6214
        51.5004         39.5004
  22672645.1574    1453772.97749   1110162.23447                  22672645.9914
        45.5004         27.2504
  23208761.3434     618824.57049    470294.57047                  23208759.0714
        45.0004         30.5004
  22671653.6104     510346.69149    387175.35547                  22671650.8314
        48.0004         32.5004
  21414843.2804   -2168740.57849  -1666629.33247                  21414841.8014
        48.0004         37.5004
 04  7 14 19  1  0.0000000  0  7G23G11G14G15G19G22G25
  24626936.2304    -158951.49249   -118918.94146                  24626934.3534
        40.7504         22.2504
  22112953.3594   -2179198.38749  -1674904.48847                  22112950.4354
        49.5004         34.0004
  21049509.2714     484719.91449    367512.73848                  21049506.7414
        50.5004         39.5004
  22679526.0574    1489927.55549   1138334.59047                  22679525.7484
        45.7504         28.5004
  23211848.0844     635044.10249    482933.12547                  23211845.5044
        45.5004         30.2504
  22674081.7674     523105.75849    397117.44547                  22674078.5554
        47.5004         32.2504
  21405223.7194   -2219293.53949  -1706021.23447                  21405222.0554
        50.2504         38.0004
 04  7 14 19  1 15.0000000  0  7G23G11G14G15G19G22G25
  24614878.7864    -222314.78549   -168292.86746                  24614876.8444
        42.0004         24.0004
  22103519.1124   -2228775.79749  -1713536.23847                  22103516.8104
        49.5004         34.2504
  21051892.1544     497239.70749    377268.40647                  21051888.7324
        50.7504         39.2504
  22686416.2264    1526135.24249   1166548.32047                  22686416.5664
        46.2504         29.0004
  23214946.7134     651325.27349    495619.68447                  23214944.0274
        46.0004         30.2504
  22676514.7404     535892.35949    407081.01647                  22676512.4884
        47.7504         32.5004
  21395621.7754   -2269752.83249  -1745340.14847                  21395619.9774
        51.0004         38.5004
 04  7 14 19  1 30.0000000  0  7G23G11G14G15G19G22G25
  24602825.5124    -285652.66849   -217647.02046                  24602824.2884
        41.5004         24.0004
  22094101.5894   -2278263.77349  -1752098.27747                  22094099.3594
        49.2504         33.7504
  21054284.3304     509811.10549    387064.29347                  21054281.7704
        51.0004         39.2504
  22693316.2144    1562394.42249   1194802.17247                  22693316.1174
        46.2504         29.5004
  23218056.0494     667666.46549    508353.04347                  23218054.6304
        46.2504         30.7504
  22678953.1754     548705.28949    417065.07847                  22678950.0544
        47.5004         32.7504
  21386037.0414   -2320119.43749  -1784586.85547                  21386035.5924
        51.0004         38.0004
 04  7 14 19  1 45.0000000  0  7G23G11G14G15G19G22G25
  24590777.3804    -348965.71149   -266981.82446                  24590776.0014
        41.2504         25.0004
  22084701.5624   -2327662.77049  -1790591.00847                  22084698.4604
        49.0004         33.5004
  21056686.2004     522433.08249    396899.58648                  21056683.4764
        50.5004         39.5004
  22700225.4364    1598704.02749   1223095.33647                  22700225.6694
        46.5004         30.0004
  23221176.7304     684066.47749    521132.23047                  23221174.8894
        46.0004         30.7504
  22681395.8454     561543.78949    427069.07447                  22681393.1574
        47.2504         33.0004
  21376470.2354   -2370393.99649  -1823761.82447                  21376468.4054
        50.2504         38.0004
 04  7 14 19  2  0.0000000  0  7G23G11G14G15G19G22G25
  24578733.8674    -412252.81649   -316296.42246                  24578732.7534
        41.2504         24.5004
  22075318.3424   -2376971.38749  -1829013.30147                  22075316.0394
        48.7504         33.0004
  21059097.9154     535106.50449    406774.96148                  21059094.9944
        51.0004         39.5004
  22707145.0504    1635064.94149   1251428.45347                  22707145.2384
        46.0004         30.2504
  23224308.7074     700526.21949    533957.92247                  23224306.9494
        44.5004         30.5004
  22683844.2944     574409.16849    437094.00447                  22683841.5404
        46.7504         32.5004
  21366921.2224   -2420575.08249  -1862863.94947                  21366919.3794
        50.5004         38.0004
 04  7 14 19  2 15.0000000  0  7G23G11G14G15G19G22G25
  24566697.6434    -475510.12549   -365587.78947                  24566695.3884
        41.2504         25.7504
  22065953.5614   -2426185.78949  -1867362.17247                  22065950.3134
        45.2504         34.0004
  21061519.9144     547834.77349    416693.09048                  21061517.3804
        51.0004         39.5004
  22714074.6484    1671480.57049   1279804.21547                  22714075.4644
        46.0004         29.5004
  23227453.5724     717048.83649    546832.64847                  23227450.8414
        45.5004         30.2504
  22686298.0904     587304.89149    447142.60247                  22686295.3364
        46.5004         33.2504
  21357390.3124   -2470658.80549  -1901890.22347                  21357388.3144
        46.5004         37.5004
 04  7 14 19  2 30.0000000  0  7G23G11G14G15G19G22G25
  24554664.5914    -538739.17249   -414857.12946                  24554663.2704
        41.0004         25.2504
  22056605.6424   -2475307.30149  -1905638.68047                  22056602.7154
        45.7504         33.5004
  21063951.9024     560616.08249    426652.53548                  21063949.4764
        49.2504         39.7504
  22721014.2404    1707948.92649   1308221.06647                  22721014.9014
        45.7504         28.5004
  23230609.2704     733632.28549    559754.78147                  23230606.8844
        45.2504         31.2504
  22688757.7264     600229.38349    457213.59447                  22688755.3524
        45.7504         32.0004
  21347878.2974   -2520646.52049  -1940841.68447                  21347876.5704
        47.7504         38.2504
 04  7 14 19  2 45.0000000  0  7G23G11G14G15G19G22G25
  24542638.7054    -601935.37949   -464100.88747                  24542637.3494
        41.5004         26.7504
  22047276.6914   -2524331.09049  -1943839.02047                  22047274.2674
        48.5004         34.0004
  21066395.3524     573454.55549    436656.51647                  21066392.5534
        50.5004         39.2504
  22727964.5084    1744474.28149   1336682.32847                  22727964.8534
        45.7504         28.0004
  23233777.1594     750280.80149    572727.60247                  23233775.2054
        45.0004         31.0004
  22691223.1914     613187.06649    467310.46547                  22691220.3424
        45.2504         31.7504
  21338384.7934   -2570533.44549  -1979714.60247                  21338383.1664
        50.7504         38.2504
 04  7 14 19  3  0.0000000  0  7G23G11G14G15G19G22G25
  24530620.0304    -665094.92249   -513316.14247                  24530618.3634
        42.2504         25.7504
  22037966.8924   -2573253.46549  -1981960.34447                  22037964.4674
        48.5004         34.2504
  21068849.4484     586353.65249    446707.76247                  21068846.7604
        49.7504         39.0004
  22734927.2104    1781059.94549   1365190.59047                  22734926.9354
        46.0004         27.2504
  23236958.0224     766997.50049    585753.54747                  23236956.4834
        45.5004         30.5004
  22693696.1774     626181.59849    477436.04747                  22693693.2634
        45.5004         32.0004
  21328911.7244   -2620315.59049  -2018505.87547                  21328910.0764
        50.7504         37.7504
 04  7 14 19  3 15.0000000  0  7G23G11G14G15G19G22G25
  24518607.3074    -728219.44549   -562503.99246                  24518606.1514
        39.5004         24.5004
  22028676.3834   -2622075.67249  -2020003.62947                  22028673.6064
        49.2504         33.2504
  21071315.8344     599311.42649    456804.69547                  21071312.7294
        49.5004         39.0004
  22741899.7184    1817704.00049   1393744.36747                  22741900.0814
        44.7504         27.0004
  23240151.8514     783780.36749    598831.06347                  23240149.9234
        45.2504         31.0004
  22696176.1194     639211.48849    487589.17647                  22696172.9244
        45.2504         32.2504
  21319457.9944   -2669994.45749  -2057216.66447                  21319456.4104
        50.2504         37.7504
 04  7 14 19  3 30.0000000  0  8G23G11G14G15G19G22G25G 1
  24506602.9104    -791305.60549   -611662.01646                  24506600.4964
        40.2504         23.2504
  22019405.6644   -2670794.27749  -2057966.15647                  22019403.7354
        48.7504         33.0004
  21073793.2714     612330.81349    466949.67247                  21073790.5534
        50.0004         39.0004
  22748884.8574    1854409.34849   1422345.87947                  22748885.1694
        44.7504         27.5004
  23243358.7294     800632.32849    611962.39147                  23243356.5004
        45.2504         30.7504
  22698662.5244     652279.89549    497772.32047                  22698660.2024
        44.2504         32.0004
  21310024.8384   -2719566.60249  -2095844.30947                  21310022.8924
        50.0004         37.7504
  24405863.0894     -31527.49659
        40.5004
 04  7 14 19  3 45.0000000  0  8G23G11G14G15G19G22G25G 1
  24494605.6534    -854351.00449   -660788.24246                  24494603.7884
        41.0004         25.5004
  22010154.9444   -2719406.63349  -2095845.91447                  22010152.5934
        49.0004         33.5004
  21076282.6194     625414.02349    477144.36348                  21076280.3844
        49.0004         39.5004
  22755881.6234    1891178.02749   1450996.73047                  22755881.5784
        45.5004         27.2504
  23246578.5074     817555.28549    625149.07847                  23246577.4604
        45.0004         31.0004
  22701156.9914     665389.16049    507987.30147                  22701154.8234
        44.5004         32.2504
  21300612.3594   -2769029.38749  -2134386.72747                  21300610.5274
        51.0004         38.0004
  24394210.4894     -92760.88349    -61195.77056                  24394212.6884
        40.2504         22.5004
 04  7 14 19  4  0.0000000  0  8G23G11G14G15G19G22G25G 1
  24482616.6984    -917354.81649   -709882.09846                  24482614.8354
        40.2504         25.2504
  22000924.9644   -2767911.79749  -2133642.14147                  22000922.0604
        48.7504         33.5004
  21078784.9624     638561.48449    487389.11747                  21078781.9134
        49.0004         38.7504
  22762891.3394    1928010.45749   1479697.27747                  22762890.5654
        46.0004         27.2504
  23249812.5214     834549.62949    638391.34447                  23249811.3794
        45.2504         30.5004
  22703659.7824     678540.07449    518234.73847                  22703657.1784
        45.0004         32.2504
  21291220.7344   -2818381.71149  -2172843.07447                  21291219.3004
        50.7504         38.0004
  24382567.1734    -153946.93749   -108873.14146                  24382569.7814
        40.5004         22.5004
 04  7 14 19  4 15.0000000  0  8G23G11G14G15G19G22G25G 1
  24470635.2394    -980316.26249   -758942.93046                  24470634.0324
        41.0004         24.5004
  21991715.2794   -2816308.79749  -2171354.08247                  21991713.2774
        48.7504         34.2504
  21081298.8724     651773.55949    497684.24247                  21081295.9014
        50.0004         39.0004
  22769912.1454    1964907.10949   1508447.87547                  22769912.0764
        45.7504         28.5004
  23253060.3754     851615.57849    651689.45347                  23253059.1554
        44.7504         30.5004
  22706170.4064     691733.30949    528515.17647                  22706167.4094
        43.7504         32.0004
  21281850.4964   -2867622.71149  -2211212.68047                  21281848.7794
        50.0004         37.7504
  24370933.5604    -215084.80549   -156513.04346                  24370934.4464
        40.5004         22.7504
 04  7 14 19  4 30.0000000  0  8G23G11G14G15G19G22G25G 1
  24458662.3664   -1043236.04349   -807971.30946                  24458660.9094
        39.5004         22.5004
  21982525.8094   -2864598.28149  -2208982.22747                  21982523.5434
        44.5004         33.5004
  21083825.2084     665049.27049    508028.93847                  21083822.7444
        50.0004         39.0004
  22776945.3844    2001866.88349   1537247.62947                  22776945.7724
        45.7504         27.7504
  23256321.9924     868752.07049    665042.50447                  23256320.0864
        46.2504         30.0004
  22708688.9064     704968.16049    538828.00447                  22708686.3014
        45.2504         32.0004
  21272501.4154   -2916752.94949  -2249495.97347                  21272499.6914
        47.2504         38.0004
  24359308.0524    -276175.23049   -204115.94946                  24359309.5594
        41.0004         22.5004
 04  7 14 19  4 45.0000000  0  8G23G11G14G15G19G22G25G 1
  24446696.0144   -1106111.48449   -856965.14146                  24446696.3024
        37.5004         24.0004
  21973357.6684   -2912777.35549  -2246524.36747                  21973354.8354
        45.7504         34.2504
  21086363.9484     678390.90249    518424.99647                  21086361.4454
        49.2504         38.5004
  22783990.3554    2038891.99249   1566098.32847                  22783991.4484
        44.5004         27.5004
  23259596.3964     885961.18049    678452.15647                  23259594.5854
        45.2504         30.5004
  22711216.0564     718247.18049    549175.27347                  22711213.2444
        45.0004         31.5004
  21263173.8254   -2965769.66049  -2287690.79747                  21263171.8334
        47.2504         38.2504
  24347692.4844    -337215.50449   -251679.75046                  24347693.3314
        39.0004         23.0004
 04  7 14 19  5  0.0000000  0  8G23G11G14G15G19G22G25G 1
  24734533.7874   -1168938.02749   -905920.89146                  24734532.5084
        40.2504         23.5004
  22264003.9514   -2960842.50849  -2283977.71547                  22264001.8994
        49.2504         34.7504
  21388707.2764     691797.45749    528871.65247                  21388704.5114
        49.0004         38.5004
  23090841.0594    2075979.82049   1594997.86747                  23090841.6644
        45.0004         27.2504
  23562677.1684     903241.52749    691917.30547                  23562675.6314
        45.5004         30.7504
  23013543.6914     731569.60249    559556.34847                  23013540.6504
        45.7504         32.0004
  21553661.1884   -3014669.14149  -2325794.28147                  21553659.2764
        50.0004         38.5004
  24635880.2854    -398201.35249   -299201.14147                  24635881.2054
        40.7504         26.2504
 04  7 14 19  5 15.0000000  0  8G23G11G14G15G19G22G25G 1
  24722586.0764   -1231722.42649   -954843.75446                  24722584.1154
        38.0004         21.2504
  22254877.8304   -3008798.34849  -2321345.89547                  22254875.7714
        49.0004         34.2504
  21391271.6784     705271.95349    539371.24247                  21391268.9434
        49.2504         38.0004
  23097912.1374    2113136.56349   1623951.10247                  23097912.0824
        46.0004         27.5004
  23565979.6224     920596.64149    705440.71147                  23565977.9744
        44.7504         30.7504
  23016087.7914     744938.65249    569973.76247                  23016084.4164
        46.0004         32.5004
  21544377.0864   -3063456.13749  -2363810.10947                  21544375.0594
        50.7504         38.2504
  24624283.8044    -459139.26249   -346685.19947                  24624284.9154
        41.5004         26.0004
 04  7 14 19  5 30.0000000  0  8G23G11G14G15G19G22G25G 1
  24710647.6094   -1294461.80949  -1003731.56246                  24710645.1224
        38.0004         21.5004
  22245773.3354   -3056642.68749  -2358627.20347                  22245770.8004
        48.7504         34.5004
  21393848.2684     718812.03549    549921.94147                  21393845.8934
        50.2504         38.5004
  23104995.4924    2150357.98049   1652954.76247                  23104995.4294
        46.0004         28.5004
  23569296.7664     938023.60249    719020.09847                  23569295.1474
        45.2504         30.2504
  23018640.2674     758352.22749    580425.88347                  23018637.0354
        46.0004         31.0004
  21535114.9054   -3112128.46149  -2401736.58647                  21535113.4194
        50.0004         38.2504
  24612697.4574    -520026.34849   -394129.66446                  24612698.5444
        41.7504         22.2504
 04  7 14 19  5 45.0000000  0  8G23G11G14G15G19G22G25G 1
  24698718.0544   -1357153.81249  -1052582.43746                  24698714.9524
        39.0004         21.5004
  22236690.3994   -3104372.87549  -2395819.54747                  22236688.4434
        48.2504         34.5004
  21396437.7634     732419.74249    560525.34447                  21396435.6824
        49.7504         38.2504
  23112091.2024    2187646.25849   1682010.51647                  23112090.7684
        46.5004         29.0004
  23572626.6094     955524.42649    732657.06647                  23572624.0244
        45.2504         29.2504
  23021202.2154     771812.67249    590914.50447                  23021199.0294
        46.5004         31.7504
  21525875.1034   -3160683.51649  -2439571.68747                  21525873.9474
        50.0004         38.0004
  24601120.7114    -580860.17649   -441532.59846                  24601122.5114
        40.2504         22.2504
 04  7 14 19  6  0.0000000  0  8G23G11G14G15G19G22G25G 1
  24686796.3964   -1419797.73049  -1101395.84846                  24686794.8034
        39.0004         22.2504
  22227629.7404   -3151988.27349  -2432922.45347                  22227627.3034
        49.0004         33.7504
  21399039.8724     746095.30549    571181.60547                  21399037.2684
        50.0004         38.2504
  23119199.3874    2225001.60249   1711118.53147                  23119199.0914
        46.2504         28.5004
  23575970.9624     973099.15249    746351.60247                  23575969.1994
        46.2504         30.5004
  23023772.1084     785320.60549    601440.14847                  23023769.6214
        46.5004         31.2504
  21516658.1974   -3209120.46149  -2477314.74247                  21516656.5984
        50.2504         38.2504
  24589554.5814    -641640.16849   -488893.58246                  24589556.3324
        40.5004         22.5004
 04  7 14 19  6 15.0000000  0  8G23G11G14G15G19G22G25G 1
  24674885.6074   -1482392.47349  -1150170.91046                  24674882.8644
        37.0004         21.0004
  22218591.0834   -3199487.59449  -2469934.89147                  22218588.3174
        47.7504         34.2504
  21401655.6234     759839.43049    581891.31347                  21401652.7454
        50.0004         38.2504
  23126320.6764    2262424.66849   1740279.31647                  23126320.9314
        45.5004         29.0004
  23579330.0454     990748.47349    760104.26247                  23579327.2164
        45.7504         30.0004
  23026351.8174     798876.95349    612003.51647                  23026348.9094
        46.5004         32.2504
  21507463.8604   -3257438.09049  -2514964.84047                  21507461.9034
        51.0004         38.2504
  24577999.1534    -702365.22749   -536211.77046                  24578000.7624
        39.5004         24.0004
 04  7 14 19  6 30.0000000  0  8G23G11G14G15G19G22G25G 1
  24662982.6424   -1544938.49249  -1198908.03146                  24662980.5864
        36.0004         20.0004
  22209574.3014   -3246871.15649  -2506857.14547                  22209572.1614
        49.0004         35.0004
  21404283.9314     773651.48049    592653.93047                  21404281.3334
        49.7504         38.7504
  23133455.1104    2299914.73049   1769492.29747                  23133455.1424
        45.7504         28.2504
  23582701.8584    1008471.44949    773914.31347                  23582700.7594
        46.0004         30.5004
  23028940.9194     812481.26649    622604.23847                  23028937.5114
        45.7504         31.2504
  21498291.5554   -3305636.66849  -2552522.16047                  21498289.7524
        50.0004         39.0004
  24566454.2744    -763035.77049   -583487.47746                  24566456.0844
        39.2504         22.2504
 04  7 14 19  6 45.0000000  0  8G23G11G14G15G19G22G25G 1
  24651090.3304   -1607435.47349  -1247606.99246                  24651087.7384
        38.5004         20.0004
  22200579.6184   -3294138.45749  -2543688.79347                  22200577.1764
        48.0004         34.7504
  21406925.0034     787531.34449    603469.39847                  21406922.8794
        49.2504         38.2504
  23140601.6374    2337471.59849   1798757.34447                  23140602.2204
        46.0004         28.0004
  23586088.2304    1026267.87949    787781.60547                  23586087.2394
        44.5004         30.5004
  23031538.4344     826133.67249    633242.45347                  23031535.1174
        45.7504         31.2504
  21489142.3944   -3353715.67249  -2589986.30547                  21489140.7684
        51.0004         39.0004
  24554918.9864    -823651.63749   -630720.60946                  24554921.0864
        39.5004         22.7504
 04  7 14 19  7  0.0000000  0  8G23G11G14G15G19G22G25G 1
  24639206.8084   -1669884.43049  -1296268.49246                  24639204.4074
        39.2504         22.0004
  22191607.0174   -3341290.49249  -2580430.63347                  22191604.2914
        48.0004         34.7504
  21409578.8544     801477.53549    614336.54747                  21409576.4024
        50.0004         38.5004
  23147761.4104    2375093.76649   1828073.27047                  23147761.7414
        46.2504         29.2504
  23589488.6494    1044136.23849    801704.96147                  23589487.2074
        44.7504         29.0004
  23034145.7684     839833.09449    643917.29747                  23034143.0304
        46.2504         32.0004
  21480016.0514   -3401676.14849  -2627358.09847                  21480014.1584
        50.7504         38.7504
  24543394.8394    -884213.82449   -677911.91046                  24543396.4324
        40.0004         23.0004
 04  7 14 19  7 15.0000000  0  8G23G11G14G15G19G22G25G 1
  24627332.7314   -1732283.44549  -1344891.08246                  24627330.3624
        36.2504         21.0004
  22182656.1784   -3388324.85949  -2617080.79347                  22182653.9504
        47.5004         34.7504
  21412245.8024     815491.80549    625256.74247                  21412243.4024
        49.0004         38.5004
  23154933.0244    2412783.13749   1857441.54747                  23154933.6804
        45.7504         29.5004
  23592903.4284    1062078.18449    815685.66447                  23592901.4034
        45.5004         29.5004
  23036762.0704     853581.55149    654630.35247                  23036758.7084
        45.5004         31.5004
  21470912.5864   -3449515.80949  -2664635.75447                  21470910.7034
        50.2504         38.5004
  24531880.6594    -944720.18049   -725059.71546                  24531882.7614
        39.5004         22.5004
 04  7 14 19  7 30.0000000  0  8G23G11G14G15G19G22G25G 1
  24615467.2744   -1794632.13349  -1393474.40246                  24615465.4084
        37.5004         20.5004
  22173728.6894   -3435241.27049  -2653639.01247                  22173726.4164
        47.7504         34.2504
  21414925.6294     829574.20349    636230.03147                  21414922.8844
        49.0004         38.5004
  23162117.8804    2450539.52049   1886862.05547                  23162118.3124
        46.0004         29.0004
  23596331.3504    1080093.51649    829723.53547                  23596329.8094
        45.0004         29.5004
  23039387.4104     867379.26249    665381.76647                  23039385.1844
        45.7504         32.0004
  21461831.3944   -3497234.19549  -2701818.89147                  21461830.0974
        50.7504         38.5004
  24520376.8954   -1005170.44149   -772163.75446                  24520378.3314
        37.7504         21.5004
 04  7 14 19  7 45.0000000  0  8G23G11G14G15G19G22G25G 1
  24603613.1404   -1856931.16449  -1442019.12146                  24603610.2184
        38.5004         20.5004
  22164823.2064   -3482040.20349  -2690105.71547                  22164820.2454
        48.0004         34.7504
  21417618.3794     843723.64149    647255.56347                  21417615.5814
        48.5004         38.2504
  23169314.6924    2488361.79749   1916333.91847                  23169315.5964
        45.0004         27.0004
  23599773.6464    1098180.93049    843817.56647                  23599771.7914
        45.5004         30.0004
  23042022.6044     881225.41849    676170.95747                  23042019.1244
        45.5004         31.5004
  21452774.1614   -3544831.96549  -2738908.04747                  21452773.0074
        50.2504         39.0004
  24508884.0084   -1065565.34049   -819224.69946                  24508885.9454
        37.5004         21.7504
 04  7 14 19  8  0.0000000  0  8G23G11G14G15G19G22G25G 1
  24591766.9644   -1919180.54349  -1490525.05546                  24591764.5614
        38.7504         20.0004
  22155939.6314   -3528721.55949  -2726480.78947                  22155937.8174
        47.0004         35.0004
  21420323.4304     857939.73849    658333.02047                  21420320.6824
        48.7504         38.2504
  23176524.5204    2526249.52349   1945856.75047                  23176525.4084
        43.5004         26.0004
  23603229.2844    1116339.96149    857967.38347                  23603227.5144
        44.7504         29.5004
  23044666.7374     895119.87549    686997.76247                  23044663.9874
        45.7504         31.7504
  21443739.6154   -3592309.02749  -2775903.14547                  21443738.0414
        49.7504         38.7504
  24497402.0744   -1125904.90649   -866242.53946                  24497403.4344
        36.5004         21.5004
 04  7 14 19  8 15.0000000  0  8G23G11G14G15G19G22G25G 1
  24579930.9464   -1981380.24249  -1538992.35946                  24579929.0594
        38.5004         21.7504
  22147079.4994   -3575285.11749  -2762764.07047                  22147076.7924
        44.5004         34.5004
  21423041.4464     872222.31349    669462.28547                  21423039.0614
        49.0004         38.0004
  23183747.2984    2564202.40249   1975430.37147                  23183747.5754
        44.5004         27.0004
  23606697.9834    1134570.25449    872172.74247                  23606696.3664
        44.7504         29.2504
  23047319.6384     909062.61749    697862.21547                  23047317.0584
        44.5004         31.0004
  21434728.3914   -3639665.09849  -2812803.97347                  21434726.2044
        46.7504         38.7504
  24485930.0054   -1186189.08249   -913217.15646                  24485932.4674
        37.7504         21.0004
 04  7 14 19  8 30.0000000  0  8G23G11G14G15G19G22G25G 1
  24568104.5404   -2043528.94949  -1587419.84846                  24568102.7694
        39.5004         21.5004
  22138241.1064   -3621729.46949  -2798954.47347                  22138238.3224
        44.0004         34.7504
  21425771.9704     886572.30549    680644.08647                  21425769.8244
        47.5004         38.0004
  23190982.6284    2602221.38349   2005055.47747                  23190982.5544
        44.5004         27.5004
  23610180.9234    1152872.69949    886434.34847                  23610179.4744
        44.2504         30.0004
  23049982.3214     923054.95349    708765.30947                  23049978.8864
        45.7504         31.0004
  21425739.9274   -3686898.48049  -2849609.19147                  21425737.8994
        46.5004         39.2504
  24474468.7904   -1246416.53549   -960147.63746                  24474471.2894
        37.5004         21.0004
 04  7 14 19  8 45.0000000  0  8G23G11G14G15G19G22G25G 1
  24556287.5964   -2105627.50049  -1635808.35246                  24556285.5284
        38.2504         21.2504
  22129425.3364   -3668055.33249  -2835052.55147                  22129423.4104
        46.0004         35.0004
  21428515.2534     900988.31349    691877.31647                  21428512.6934
        48.5004         38.0004
  23198228.7934    2640305.00449   2034730.98447                  23198229.9394
        43.7504         27.7504
  23613677.5484    1171245.74649    900750.97347                  23613675.2874
        45.5004         29.2504
  23052654.4594     937095.84449    719706.22347                  23052651.4484
        45.2504         30.0004
  21416774.9594   -3734010.13749  -2886319.55947                  21416773.4384
        49.5004         38.7504
  24463018.3564   -1306588.25049  -1007034.62946                  24463020.5974
        36.5004         20.0004
 04  7 14 19  9  0.0000000  0  8G23G11G14G15G19G22G25G 1
  24544479.8714   -2167677.96149  -1684159.32446                  24544477.4244
        37.7504         21.7504
  22120632.6344   -3714264.45749  -2871059.64147                  22120629.8174
        47.0004         35.2504
  21431270.8684     915468.15249    703160.30547                  21431268.0454
        49.0004         38.2504
  23205487.7524    2678451.14149   2064455.18047                  23205488.5974
        44.0004         27.0004
  23617185.7494    1189687.05949    915120.77347                  23617185.0654
        43.7504         28.5004
  23055335.0794     951183.27349    730683.42247                  23055332.5364
        45.2504         30.5004
  21407832.5574   -3781001.88749  -2922936.49647                  21407831.2004
        49.5004         38.7504
  24451577.7824   -1366706.21148  -1053879.72746                  24451580.3104
        35.2504         18.5004
 04  7 14 19  9 15.0000000  0  8G23G11G14G15G19G22G25G 1
  24532681.0204   -2229678.53149  -1732471.43746                  24532679.2434
        39.7504         22.0004
  22111861.3824   -3760354.98449  -2906974.33247                  22111858.9594
        44.5004         35.5004
  21434038.5944     930013.21949    714494.11347                  21434036.1754
        48.0004         38.2504
  23212759.3564    2716661.10549   2094229.11747                  23212760.5624
        43.2504         27.2504
  23620709.0134    1208197.93449    929544.76647                  23620707.8434
        44.7504         29.0004
  23058025.1334     965318.91849    741698.18447                  23058022.1464
        44.5004         30.5004
  21398913.3264   -3827871.85249  -2959458.52747                  21398911.8024
        46.5004         39.0004
  24440149.0604   -1426768.48448  -1100681.52746                  24440150.5304
        33.7504         18.5004
 04  7 14 19  9 30.0000000  0  8G23G11G14G15G19G22G25G 1
  24520891.9794   -2291629.69949  -1780745.04346                  24520890.6684
        36.0004         22.2504
  22103113.3634   -3806327.39149  -2942796.98447                  22103110.7654
        44.0004         35.7504
  21436818.8884     944622.65249    725878.07047                  21436816.3264
        46.7504         38.2504
  23220042.0234    2754933.99249   2124052.08647                  23220043.1624
        43.5004         27.0004
  23624244.5814    1226777.23849    944022.10547                  23624242.7264
        44.7504         28.5004
  23060723.7814     979502.20749    752750.05547                  23060721.6694
        43.0004         31.0004
  21390017.8894   -3874620.30549  -2995885.87548                  21390016.0004
        46.0004         39.7504
  24428729.5704   -1486775.91848  -1147440.46146                  24428730.8404
        35.7504         18.5004
 04  7 14 19  9 45.0000000  0  8G23G11G14G15G19G22G25G 1
  24509113.9664   -2353529.74649  -1828978.82046                  24509111.0414
        39.5004         22.5004
  22094387.7964   -3852179.74649  -2978526.08647                  22094385.2774
        47.5004         35.5004
  21439611.5504     959297.85249    737313.27347                  21439608.6434
        47.2504         38.0004
  23227338.5084    2793271.06349   2153925.05547                  23227338.3904
        44.0004         26.7504
  23627793.9964    1245426.35949    958553.82847                  23627792.0884
        45.0004         29.2504
  23063432.5364     993734.75449    763840.33247                  23063429.8684
        41.2504         31.0004
  21381145.2494   -3921245.46149  -3032217.15647                  21381143.1594
        49.5004         38.7504
  24417321.6834   -1546726.50049  -1194155.21946                  24417323.5494
        36.5004         19.0004
 04  7 14 19 10  0.0000000  0  8G23G11G14G15G19G22G25G 1
  24497344.0924   -2415380.09449  -1877173.88346                  24497340.8684
        40.5004         22.2504
  22085684.9204   -3897913.07449  -3014162.44947                  22085682.0484
        47.5004         36.0004
  21442415.9734     974037.20749    748798.47747                  21442413.5684
        47.0004         38.2504
  23234644.7694    2831670.62149   2183846.74647                  23234645.3694
        44.2504         27.0004
  23631355.3354    1264143.55149    973138.60247                  23631353.6684
        44.0004         28.0004
  23066149.7164    1008015.19949    774967.93447                  23066146.6974
        42.5004         31.2504
  21372295.6984   -3967748.55549  -3068453.32447                  21372293.8884
        50.0004         38.5004
  24405924.5544   -1606621.67649  -1240826.71946                  24405925.8334
        37.5004         20.0004
 04  7 14 19 10 15.0000000  0  8G23G11G14G15G19G22G25G 1
  24485582.7854   -2477181.59849  -1925330.86346                  24485581.3624
        40.7504         25.5004
  22077004.7684   -3943528.36349  -3049706.81247                  22077002.5234
        47.7504         36.0004
  21445233.0784     988839.44549    760332.67247                  21445230.1304
        48.5004         37.5004
  23241964.1344    2870131.43849   2213816.15647                  23241964.1624
        44.5004         26.7504
  23634929.3044    1282927.17649    987775.13747                  23634927.8784
        44.2504         27.5004
  23068876.7074    1022342.53949    786132.05147                  23068873.6944
        43.0004         31.2504
  21363469.8564   -4014130.33649  -3104594.94947                  21363468.1414
        49.7504         39.0004
  24394536.7644   -1666462.23048  -1287455.66046                  24394538.6274
        35.7504         17.7504
 04  7 14 19 10 30.0000000  0  8G23G11G14G15G19G22G25G 1
  24473831.6624   -2538934.44949  -1973449.96946                  24473830.0064
        41.7504         24.5004
  22068347.1834   -3989025.56249  -3085159.17247                  22068344.5694
        48.5004         35.5004
  21448061.3774    1003703.98049    771915.42647                  21448058.9604
        49.7504         37.7504
  23249294.6024    2908652.87549   2243832.78547                  23249294.9014
        44.5004         27.0004
  23638516.3034    1301776.68449   1002463.02047                  23638514.6984
        44.2504         29.0004
  23071611.4824    1036716.37949    797332.43047                  23071609.2204
        44.0004         31.5004
  21354666.5594   -4060390.89549  -3140642.11747                  21354664.9734
        50.0004         39.0004
  24383160.0724   -1726248.51249  -1334042.35246                  24383161.2874
        36.2504         19.2504
 04  7 14 19 10 45.0000000  0  8G23G11G14G15G19G22G25G 1
  24462090.0104   -2600638.44949  -2021530.96946                  24462088.1994
        41.7504         25.2504
  22059712.1294   -4034404.40249  -3120519.29747                  22059709.0374
        49.0004         35.5004
  21450902.0504    1018630.57049    783546.51247                  21450899.4394
        49.0004         38.0004
  23256636.5094    2947234.62549   2273896.44147                  23256636.9404
        45.0004         27.0004
  23642116.0904    1320691.78549   1017202.00447                  23642114.2444
        44.0004         27.5004
  23074355.7394    1051136.93849    808569.19947                  23074353.8474
        44.7504         30.5004
  21345886.7124   -4106529.73849  -3176594.45347                  21345885.3104
        49.5004         39.0004
  24371793.4314   -1785980.32449  -1380586.60246                  24371793.9914
        37.7504         18.2504
 04  7 14 19 11  0.0000000  0  8G23G11G14G15G19G22G25G 1
  24450356.9554   -2662295.20749  -2069575.18047                  24450355.5764
        38.7504         26.2504
  22051098.3894   -4079666.21949  -3155788.24247                  22051095.9274
        48.5004         35.5004
  21453754.2094    1033617.59449    795224.69547                  21453751.6304
        48.5004         38.0004
  23263989.0384    2985874.85949   2304005.64847                  23263989.8384
        44.7504         27.2504
  23645727.4184    1339670.63749   1031990.65647                  23645726.0734
        43.7504         28.5004
  23077108.1904    1065602.60949    819841.11347                  23077106.1584
        44.2504         31.2504
  21337129.4714   -4152548.28149  -3212453.03948                  21337127.8044
        47.5004         39.7504
  24360437.2144   -1845659.12549  -1427089.53946                  24360437.4984
        39.5004         19.5004
 04  7 14 19 11 15.0000000  0  8G23G11G14G15G19G22G25G 1
  24438633.3694   -2723903.44549  -2117581.54746                  24438631.7214
        41.7504         25.0004
  22042508.1294   -4124809.83249  -3190965.06647                  22042504.7754
        48.7504         34.7504
  21456617.4614    1048665.68849    806950.46947                  21456614.9004
        48.5004         37.7504
  23271353.6424    3024574.35249   2334161.04347                  23271354.3864
        45.2504         27.2504
  23649351.3264    1358713.69949   1046829.35547                  23649350.7174
        44.2504         28.2504
  23079869.9054    1080114.48849    831149.05947                  23079867.1794
        44.0004         30.7504
  21328395.7034   -4198445.36349  -3248216.98447                  21328393.6364
        49.2504         39.2504
  24349090.5444   -1905283.82849  -1473550.32446                  24349090.9884
        38.5004         20.0004
 04  7 14 19 11 30.0000000  0  8G23G11G14G15G19G22G25G 1
  24426918.4544   -2785463.79749  -2165550.62947                  24426916.7964
        41.5004         25.7504
  22033939.7414   -4169835.43049  -3226049.96147                  22033937.0094
        48.2504         34.5004
  21459492.6044    1063774.10949    818723.25847                  21459490.5274
        47.7504         38.0004
  23278729.3234    3063332.16849   2364361.89847                  23278729.6724
        45.5004         27.7504
  23652987.8424    1377820.14849   1061717.43447                  23652985.2064
        44.5004         28.5004
  23082640.6674    1094672.07849    842492.61347                  23082637.3554
        43.7504         31.5004
  21319684.5824   -4244221.15649  -3283886.41847                  21319683.0504
        49.0004         39.0004
  24337754.1954   -1964854.90249  -1519969.29346                  24337755.2914
        38.0004         20.0004
 04  7 14 19 11 45.0000000  0  8G23G11G14G15G19G22G25G 1
  24415213.1834   -2846975.78149  -2213482.03146                  24415211.4754
        41.0004         25.5004
  22025394.4984   -4214742.58249  -3261042.52347                  22025391.8894
        48.5004         34.7504
  21462378.8554    1078942.85949    830543.03947                  21462376.8544
        47.0004         37.7504
  23286115.5794    3102148.37149   2394608.23047                  23286116.2084
        45.5004         27.0004
  23656635.4264    1396989.71949   1076654.70347                  23656633.9934
        44.2504         28.5004
  23085419.4974    1109275.55949    853871.90647                  23085416.1864
        43.0004         31.5004
  21310997.3024   -4289875.25049  -3319461.02347                  21310995.5694
        49.0004         39.0004
  24326428.6604   -2024371.96949  -1566346.20746                  24326428.7054
        37.5004         20.0004
 04  7 14 19 12  0.0000000  0  8G23G11G14G15G19G22G25G 1
  24403516.6844   -2908440.12949  -2261376.27747                  24403515.4494
        41.5004         26.0004
  22016871.0754   -4259531.82049  -3295943.22747                  22016868.4724
        48.5004         35.0004
  21465276.8484    1094171.01249    842409.12147                  21465274.1584
        45.5004         38.2504
  23293512.9864    3141021.81349   2424899.18447                  23293513.8304
        45.2504         26.7504
  23660294.2594    1416221.36749   1091640.35547                  23660293.4424
        44.0004         27.5004
  23088207.1874    1123924.17649    865286.39147                  23088204.4764
        41.5004         31.5004
  21302332.6734   -4335408.04749  -3354941.10947                  21302330.7744
        48.0004         39.2504
  24315113.2164   -2083835.71549  -1612681.55546                  24315113.9484
        39.2504         20.0004
 04  7 14 19 12 15.0000000  0  8G23G11G14G15G19G22G25G 1
  24391829.7104   -2969856.80549  -2309233.40647                  24391827.8844
        43.0004         26.0004
  22008370.7384   -4304202.96149  -3330751.90647                  22008368.3464
        44.2504         35.2504
  21468185.9714    1109458.21549    854321.21547                  21468183.2414
        46.2504         37.0004
  23300921.8524    3179952.16849   2455234.45347                  23300921.9204
        45.2504         26.0004
  23663966.0914    1435514.59849   1106674.00047                  23663964.8544
        43.2504         27.0004
  23091003.0754    1138617.85949    876735.99247                  23091000.0184
        41.5004         30.5004
  21293690.9544   -4380819.53549  -3390326.67248                  21293689.2154
        45.7504         39.5004
  24303807.5654   -2143246.19949  -1658975.41046                  24303808.3764
        39.0004         21.5004
 04  7 14 19 12 30.0000000  0  8G23G11G14G15G19G22G25G 1
  24380151.8424   -3031226.53949  -2357053.94947                  24380149.5404
        42.5004         26.0004
  21999892.6314   -4348756.48449  -3365468.93447                  21999889.9314
        44.5004         35.0004
  21471106.2944    1124803.42649    866278.50447                  21471103.7254
        47.0004         37.0004
  23308340.3594    3218938.32449   2485613.21547                  23308340.2174
        44.2504         27.2504
  23667649.3684    1454868.25849   1121754.70747                  23667648.0744
        44.0004         28.2504
  23093807.6044    1153355.93849    888220.18447                  23093804.9074
        43.5004         31.0004
  21285072.2774   -4426110.25849  -3425618.11747                  21285070.8864
        45.5004         39.2504
  24292513.1624   -2202603.94549  -1705228.17646                  24292513.6314
        40.2504         22.2504
 04  7 14 19 12 45.0000000  0  8G23G11G14G15G19G22G25G 1
  24368482.3584   -3092549.99249  -2404838.43747                  24368480.4874
        42.5004         27.2504
  21991436.4774   -4393193.11749  -3400094.87547                  21991433.2394
        45.7504         34.5004
  21474036.8544    1140205.45349    878280.08247                  21474034.9004
        46.5004         37.7504
  23315769.0334    3257979.06349   2516034.52347                  23315769.9544
        45.0004         27.0004
  23671344.1404    1474281.03949   1136881.46147                  23671342.2054
        44.0004         28.5004
  23096620.5614    1168137.38349    899738.16447                  23096617.6334
        43.7504         31.2504
  21276476.5324   -4471280.89149  -3460816.00047                  21276475.4364
        47.0004         39.0004
  24281227.3274   -2261909.90649  -1751440.58646                  24281227.9884
        39.5004         22.5004
 04  7 14 19 13  0.0000000  0  8G23G11G14G15G19G22G25G 1
  24356820.9924   -3153826.28149  -2452586.17646                  24356820.3024
        42.2504         25.2504
  21983003.0594   -4437511.75849  -3434628.87147                  21982999.9174
        48.2504         34.5004
  21476978.9964    1155665.16849    890326.58247                  21476976.4514
        46.5004         37.0004
  23323209.6824    3297074.98049   2546498.80147                  23323209.4874
        44.7504         26.7504
  23675049.6644    1493753.52349   1152054.79747                  23675047.4634
        45.0004         29.5004
  23099441.6134    1182963.22349    911290.73847                  23099438.9064
        43.2504         30.5004
  21267903.8694   -4516330.36349  -3495919.46547                  21267902.0424
        48.0004         39.2504
  24269951.8414   -2321163.06249  -1797611.85946                  24269952.3254
        38.5004         22.5004
 04  7 14 19 13 15.0000000  0  8G23G11G14G15G19G22G25G 1
  24345169.9274   -3215054.55549  -2500296.46947                  24345168.8184
        43.0004         26.0004
  21974591.6674   -4481711.40649  -3469070.16447                  21974589.6244
        47.7504         35.0004
  21479932.1914    1171182.77349    902418.21947                  21479929.5014
        47.5004         38.0004
  23330659.3854    3336226.40649   2577006.37547                  23330659.9714
        46.0004         27.0004
  23678766.2394    1513285.86749   1167274.76647                  23678764.5644
        44.2504         27.0004
  23102271.8084    1197834.09849    922878.39147                  23102268.6914
        44.7504         31.5004
  21259354.8604   -4561257.49649  -3530927.60948                  21259353.0244
        48.5004         39.5004
  24258685.4554   -2380362.65649  -1843741.36346                  24258687.1964
        37.7504         22.7504
 04  7 14 19 13 30.0000000  0  8G23G11G14G15G19G22G25G 1
  24333527.3714   -3276235.07449  -2547969.55946                  24333526.2814
        42.0004         25.5004
  21966203.3384   -4525792.15649  -3503418.78947                  21966200.4244
        47.2504         35.0004
  21482895.2064    1186757.84849    914554.64147                  21482893.0264
        47.5004         37.7504
  23338120.7474    3375432.98049   2607556.90246                  23338120.7564
        45.0004         25.5004
  23682494.4414    1532877.60549   1182540.99647                  23682492.8084
        44.5004         28.5004
  23105110.1314    1212749.78549    934500.97747                  23105107.7884
        43.7504         31.2504
  21250828.9184   -4606062.64849  -3565840.69947                  21250827.3374
        49.2504         39.0004
  24247430.8704   -2439508.80149  -1889829.28547                  24247431.8784
        39.5004         25.7504
 04  7 14 19 13 45.0000000  0  8G23G11G14G15G19G22G25G 1
  24321894.5494   -3337367.78549  -2595605.41447                  24321892.9444
        42.0004         26.5004
  21957838.2214   -4569753.86749  -3537674.67647                  21957835.4084
        47.2504         35.5004
  21485870.3624    1202390.19549    926735.66047                  21485868.0544
        45.2504         38.0004
  23345591.6014    3414694.21149   2638150.01646                  23345591.5574
        44.2504         24.2504
  23686233.8144    1552528.23049   1197853.10247                  23686231.9204
        45.0004         28.7504
  23107957.1314    1227710.35249    946158.53547                  23107954.1014
        42.2504         30.7504
  21242325.1994   -4650745.53549  -3600658.51248                  21242324.2244
        49.5004         39.7504
  24236186.2484   -2498601.56249  -1935875.53546                  24236187.3104
        39.7504         24.0004
 04  7 14 19 14  0.0000000  0  8G23G11G14G15G19G22G25G 1
  24310270.7044   -3398453.24249  -2643204.42247                  24310269.0104
        42.7504         27.0004
  21949495.1114   -4613596.89549  -3571838.06247                  21949492.7784
        46.7504         35.2504
  21488855.6554    1218078.87549    938960.59847                  21488853.4584
        45.5004         37.7504
  23353073.0514    3454009.25849   2668785.05546                  23353073.3454
        44.5004         25.5004
  23689984.2804    1572236.68849   1213210.30547                  23689982.4974
        44.0004         28.2504
  23110812.6264    1242715.16449    957850.56647                  23110809.2614
        41.5004         30.5004
  21233846.0504   -4695306.59049  -3635381.38748                  21233844.5284
        49.2504         39.7504
  24224951.2374   -2557641.45749  -1981880.62546                  24224952.1964
        38.5004         24.7504
 04  7 14 19 14 15.0000000  0  8G23G11G14G15G19G22G25G 1
  24298655.5374   -3459490.64849  -2690765.97747                  24298653.6614
        42.5004         26.7504
  21941174.7344   -4657320.23049  -3605908.18447                  21941171.5554
        46.0004         35.0004
  21491852.6154    1233824.43849    951229.84847                  21491849.5154
        47.0004         38.2504
  23360564.4094    3493378.47749   2699462.30146                  23360565.3844
        44.0004         24.7504
  23693745.7484    1592003.30949   1228612.80547                  23693744.1074
        44.5004         28.0004
  23113676.4124    1257764.96149    969577.64847                  23113673.2134
        44.0004         31.0004
  21225389.8764   -4739744.75849  -3670008.50848                  21225387.8774
        47.5004         39.5004
  24213726.0044   -2616627.64149  -2027843.82846                  24213727.9754
        38.0004         25.0004
 04  7 14 19 14 30.0000000  0  8G23G11G14G15G19G22G25G 1
  24287048.9494   -3520480.41849  -2738290.46946                  24287047.4934
        41.5004         24.5004
  21932876.9934   -4700924.24649  -3639885.34047                  21932874.5114
        44.5004         35.0004
  21494859.5744    1249625.93849    963542.69147                  21494856.4614
        47.2504         38.2504
  23368066.8844    3532801.04749   2730181.11746                  23368067.1784
        44.5004         25.5004
  23697517.8214    1611827.13349   1244059.88747                  23697516.4964
        44.2504         27.7504
  23116548.7214    1272859.11749    981339.29747                  23116545.9594
        44.5004         31.7504
  21216956.7084   -4784060.50849  -3704540.25847                  21216954.7234
        45.5004         39.0004
  24202512.0874   -2675560.66049  -2073765.65646                  24202513.0884
        39.5004         24.2504
 04  7 14 19 14 45.0000000  0  8G23G11G14G15G19G22G25G 1
  24275452.8374   -3581422.82049  -2785778.01247                  24275450.2734
        42.0004         27.0004
  21924602.0354   -4744409.07449  -3673769.61747                  21924599.1214
        45.2504         35.0004
  21497876.6104    1265482.95349    975898.79347                  21497874.0444
        48.5004         37.7504
  23375578.5954    3572276.35949   2760941.04746                  23375579.2594
        44.0004         25.5004
  23701300.8794    1631707.53149   1259551.04347                  23701299.6584
        43.0004         27.2504
  23119428.7434    1287997.34449    993135.28547                  23119426.8374
        44.0004         31.2504
  21208546.6464   -4828253.91449  -3738976.65647                  21208545.2174
        46.7504         39.0004
  24191306.8234   -2734440.71949  -2119646.19146                  24191308.5584
        37.7504         22.5004
 04  7 14 19 15  0.0000000  0  8G23G11G14G15G19G22G25G 1
  24263864.5324   -3642319.13749  -2833229.64847                  24263862.3004
        42.2504         26.5004
  21916349.7644   -4787775.91849  -3707561.96147                  21916346.5864
        48.0004         34.7504
  21500904.0884    1281393.68449    988296.74647                  21500901.8524
        47.7504         37.2504
  23383100.2594    3611802.61749   2791740.66847                  23383100.6814
        44.7504         26.5004
  23705095.0274    1651642.61349   1275084.83247                  23705092.7084
        44.0004         27.0004
  23122318.2174    1303178.19149   1004964.49647                  23122315.3424
        45.7504         30.5004
  21200159.9664   -4872326.34049  -3773318.77748                  21200158.7954
        50.5004         39.5004
  24180112.1434   -2793269.25449  -2165486.57046                  24180113.3704
        39.7504         25.5004
 04  7 14 19 15 15.0000000  0  8G23G11G14G15G19G22G25G 1
  24252285.4174   -3703167.43449  -2880643.85247                  24252283.9604
        41.5004         26.5004
  21908119.4514   -4831022.59049  -3741260.66047                  21908117.4994
        46.5004         34.7504
  21503942.7164    1297359.90249   1000737.93447                  21503939.8984
        47.5004         37.0004
  23390631.6534    3651381.44949   2822581.27046                  23390632.3594
        43.7504         25.2504
  23708899.2894    1671633.95349   1290662.46147                  23708897.3294
        44.5004         27.5004
  23125215.6084    1318403.64549   1016828.45747                  23125212.5444
        44.0004         30.0004
  21191797.0184   -4916275.43749  -3807564.81648                  21191795.4144
        50.5004         40.2504
  24168927.5754   -2852044.06649  -2211285.11747                  24168929.4004
        39.2504         26.0004
 04  7 14 19 15 30.0000000  0  9G23G11G14G15G19G22G25G 1G20
  24240714.9144   -3763968.69549  -2928021.39546                  24240713.6994
        41.2504         23.0004
  21899913.5394   -4874149.93449  -3774866.37147                  21899911.1484
        48.5004         35.5004
  21506991.2884    1313380.29349   1013221.34447                  21506988.7654
        48.5004         37.5004
  23398173.2524    3691011.52749   2853461.77347                  23398173.9514
        43.5004         26.0004
  23712713.7094    1691680.10249   1306282.79747                  23712711.9914
        44.0004         28.2504
  23128121.0214    1333672.62549   1028726.33247                  23128118.3924
        45.5004         31.2504
  21183457.1814   -4960102.05949  -3841715.41448                  21183455.5044
        49.5004         40.0004
  24157753.5104   -2910766.27349  -2257042.65246                  24157754.9804
        38.7504         25.2504
  24708675.7764     -30687.30958
        34.7504
 04  7 14 19 15 45.0000000  0  9G23G11G14G15G19G22G25G 1G20
  24229154.0924   -3824722.34049  -2975361.85546                  24229151.6424
        41.2504         25.5004
  21891729.1844   -4917157.27749  -3808378.59447                  21891726.3604
        48.2504         35.0004
  21510050.0124    1329455.20349   1025747.24647                  21510048.0894
        48.0004         37.2504
  23405724.3484    3730692.99249   2884382.33246                  23405725.3524
        43.5004         25.0004
  23716538.6664    1711781.10249   1321945.85947                  23716537.8134
        43.7504         27.5004
  23131035.1504    1348985.68049   1040658.56347                  23131032.1394
        46.0004         31.5004
  21175140.2324   -5003805.55949  -3875770.06647                  21175138.6554
        49.5004         39.0004
  24146588.8644   -2969435.37549  -2302758.80546                  24146590.9404
        38.5004         23.0004
  24697444.6384     -89708.07849    -63771.15656                  24697444.9824
        36.0004         21.7504
 04  7 14 19 16  0.0000000  0  9G23G11G14G15G19G22G25G 1G20
  24217601.6874   -3885429.03949  -3022665.75047                  24217599.5024
        41.2504         26.0004
  21883567.5384   -4960045.23849  -3841797.76647                  21883565.4394
        49.2504         35.5004
  21513119.6554    1345583.33649   1038314.59447                  21513117.1794
        48.0004         37.5004
  23413284.9414    3770424.67649   2915342.02346                  23413285.7054
        43.5004         24.7504
  23720374.4654    1731935.64849   1337650.64847                  23720372.6734
        44.2504         27.5004
  23133957.3084    1364341.87149   1052624.39147                  23133954.1404
        44.7504         30.0004
  21166847.0414   -5047386.59449  -3909729.29747                  21166845.4304
        49.2504         39.2504
  24135434.0364   -3028052.18049  -2348434.18046                  24135436.3114
        38.5004         23.0004
  24686212.9174    -148731.81649   -109763.63346                  24686212.7264
        37.0004         22.2504
 04  7 14 19 16 15.0000000  0  9G23G11G14G15G19G22G25G 1G20
  24206058.6354   -3946089.16849  -3069933.35247                  24206056.4764
        41.5004         25.7504
  21875428.9974   -5002813.79749  -3875123.91847                  21875426.7014
        49.5004         35.7504
  21516198.5944    1361764.27349   1050923.11347                  21516195.8414
        48.2504         37.5004
  23420855.0684    3810206.00849   2946340.37546                  23420856.0744
        42.5004         23.7504
  23724219.5084    1752143.14149   1353396.69547                  23724218.0534
        45.0004         28.7504
  23136888.0194    1379740.96949   1064623.66847                  23136884.6774
        46.0004         30.7504
  21158577.3934   -5090845.22749  -3943593.14848                  21158575.8284
        48.7504         39.5004
  24124289.8924   -3086616.78949  -2394068.92646                  24124291.8094
        38.7504         24.7504
  24674980.7184    -207758.68349   -155758.54346                  24674979.4014
        39.2504         22.5004
 04  7 14 19 16 30.0000000  0  9G23G11G14G15G19G22G25G 1G20
  24194523.4284   -4006705.94949  -3117167.13747                  24194521.5364
        41.5004         26.7504
  21867312.2724   -5045466.34049  -3908359.65247                  21867309.7094
        49.7504         35.5004
  21519287.0404    1377994.45749   1063569.99647                  21519284.4904
        47.7504         37.0004
  23428434.1834    3850033.21549   2977374.50446                  23428435.0594
        44.2504         24.0004
  23728075.1314    1772399.77349   1369181.02747                  23728073.3204
        44.7504         28.2504
  23139825.3094    1395179.50049   1076653.65247                  23139823.0344
        45.5004         31.2504
  21150330.1714   -5134184.66049  -3977364.12948                  21150328.0874
        48.7504         39.7504
  24113155.1914   -3145132.57849  -2439665.60246                  24113156.2234
        37.2504         24.7504
  24663747.3724    -266791.95749   -201758.47746                  24663745.7764
        39.5004         22.2504
 04  7 14 19 16 45.0000000  0  9G23G11G14G15G19G22G25G 1G20
  24182996.5774   -4067279.48049  -3164367.20346                  24182995.4244
        41.5004         25.2504
  21859218.4594   -5088002.60549  -3941504.80147                  21859215.9604
        50.0004         36.0004
  21522384.8134    1394273.57449   1076255.00047                  21522382.2604
        46.7504         37.5004
  23436022.4904    3889906.04349   3008444.19147                  23436022.9624
        44.5004         26.0004
  23731938.0784    1792705.16049   1385003.36747                  23731936.5494
        44.5004         27.2504
  23142771.1584    1410657.69949   1088714.55147                  23142768.0894
        43.7504         31.0004
  21142105.5154   -5177404.66849  -4011042.03948                  21142103.9724
        49.0004         39.5004
  24102029.1294   -3203599.38749  -2485224.11346                  24102030.4524
        39.0004         25.0004
  24652511.9274    -325831.68049   -247763.40646                  24652511.2034
        39.0004         22.5004
 04  7 14 19 17  0.0000000  0  9G23G11G14G15G19G22G25G 1G20
  24171478.4704   -4127809.37549  -3211533.32046                  24171476.4154
        41.5004         24.2504
  21851146.2264   -5130422.38749  -3974559.15247                  21851143.7154
        48.2504         35.7504
  21525491.8624    1410601.31649   1088977.91047                  21525489.6564
        46.0004         37.2504
  23443617.9974    3929824.24649   3039549.22747                  23443618.9634
        44.7504         27.5004
  23735811.2344    1813058.93849   1400863.39147                  23735810.2684
        44.0004         27.0004
  23145724.0034    1426175.37149   1100806.22347                  23145721.1814
        41.5004         30.0004
  21133903.4074   -5220505.06649  -4044626.73848                  21133901.9304
        47.5004         39.5004
  24090912.4984   -3262017.21549  -2530744.47347                  24090914.0084
        38.7504         26.0004
  24641276.0924    -384877.82849   -293773.36746                  24641274.7344
        40.0004         24.0004
 04  7 14 19 17 15.0000000  0  9G23G11G14G15G19G22G25G 1G20
  24159968.1224   -4188294.86749  -3258664.80946                  24159966.0584
        41.7504         24.7504
  21843096.3554   -5172724.47349  -4007521.82047                  21843094.1894
        44.5004         36.5004
  21528608.2584    1426978.46949   1101739.30947                  21528605.4224
        46.0004         36.5004
  23451223.3164    3969788.37149   3070690.01647                  23451224.1944
        45.0004         28.2504
  23739694.0914    1833461.54349   1416761.46147                  23739692.5254
        44.5004         26.5004
  23148684.3624    1441733.51249   1112929.41047                  23148681.6244
        41.5004         30.0004
  21125725.1294   -5263484.77749  -4078117.41047                  21125723.2334
        45.7504         39.2504
  24079804.7314   -3320385.16949  -2576225.91046                  24079806.2424
        40.2504         24.7504
  24630038.4544    -443929.49249   -339787.59846                  24630037.7204
        40.0004         22.0004
 04  7 14 19 17 30.0000000  0  9G23G11G14G15G19G22G25G 1G20
  24148466.1254   -4248736.16849  -3305761.86746                  24148463.8544
        42.5004         25.2504
  21835068.9764   -5214909.00849  -4040392.88747                  21835067.0044
        48.2504         35.5004
  21531734.1844    1443404.53949   1114538.82447                  21531731.2064
        47.2504         37.0004
  23458836.6134    4009797.84449   3101866.15647                  23458838.0794
        44.7504         28.0004
  23743585.8694    1853912.40249   1432697.14547                  23743584.3364
        43.7504         27.7504
  23151653.0694    1457331.88349   1125083.96147                  23151649.4004
        42.0004         30.5004
  21117569.1354   -5306343.86349  -4111514.09048                  21117567.5504
        48.0004         39.7504
  24068706.9854   -3378703.37149  -2621668.64147                  24068709.0064
        38.7504         25.7504
  24618800.0294    -502986.77749   -385806.24246                  24618799.3044
        40.0004         21.5004
 04  7 14 19 17 45.0000000  0  9G23G11G14G15G19G22G25G 1G20
  24136973.2404   -4309132.72349  -3352824.10546                  24136970.9604
        41.7504         25.5004
  21827063.7384   -5256975.28149  -4073171.79347                  21827061.4024
        47.2504         36.7504
  21534869.1714    1459879.60249   1127376.53547                  21534866.7474
        48.5004         37.0004
  23466458.9184    4049852.84849   3133077.78947                  23466460.1764
        44.0004         27.5004
  23747487.2214    1874411.53549   1448670.44547                  23747485.4404
        45.5004         27.5004
  23154628.3864    1472971.04349   1137270.29747                  23154625.8744
        45.7504         30.0004
  21109436.7124   -5349081.59449  -4144816.19948                  21109434.6984
        47.2504         40.0004
  24057619.1444   -3436971.19549  -2667072.09046                  24057621.5294
        37.5004         25.5004
  24607561.2004    -562049.14849   -431828.82046                  24607559.5224
        40.5004         21.2504
 04  7 14 19 18  0.0000000  0  9G23G11G14G15G19G22G25G 1G20
  24125489.2544   -4369482.81649  -3399850.09046                  24125487.2404
        42.5004         25.5004
  21819081.4474   -5298921.55949  -4105857.19547                  21819078.9414
        45.2504         36.0004
  21538013.9264    1476405.07049   1140253.50847                  21538011.6804
        48.0004         37.2504
  23474089.7774    4089954.64549   3164325.87947                  23474091.0824
        44.0004         26.5004
  23751397.5814    1894960.24249   1464682.40247                  23751395.5714
        45.0004         27.0004
  23157612.8174    1488652.43849   1149489.53547                  23157609.6214
        45.0004         28.5004
  21101327.0534   -5391696.21949  -4178022.37948                  21101325.4754
        45.5004         39.5004
  24046541.5494   -3495187.07049  -2712435.05146                  24046542.9994
        38.5004         24.2504
  24596321.3184    -621115.07049   -477854.18446                  24596320.4324
        41.0004         22.2504
 04  7 14 19 18 15.0000000  0  9G23G11G14G15G19G22G25G 1G20
  24114013.1594   -4429786.55549  -3446839.94146                  24114011.7734
        42.5004         24.5004
  21811122.4464   -5340747.78149  -4138449.05147                  21811119.8174
        47.7504         36.0004
  21541168.0094    1492980.52749   1153169.42247                  21541165.2744
        47.0004         37.0004
  23481730.1264    4130102.69949   3195610.01247                  23481731.3894
        43.7504         26.2504
  23755316.5724    1915557.77749   1480732.36347                  23755315.9334
        44.0004         28.5004
  23160604.5514    1504375.74649   1161741.44147                  23160602.4804
        41.5004         29.5004
  21093241.4464   -5434187.75449  -4211132.64147                  21093239.3694
        48.0004         39.2504
  24035473.0014   -3553351.14549  -2757757.65646                  24035474.8564
        38.0004         23.0004
  24585080.1974    -680184.66049   -523882.41446                  24585079.4684
        41.2504         22.7504
 04  7 14 19 18 30.0000000  0  9G23G11G14G15G19G22G25G 1G20
  24102546.8514   -4490044.68049  -3493794.27046                  24102544.8634
        43.5004         25.5004
  21803185.8944   -5382454.43749  -4170947.73847                  21803183.2834
        50.5004         35.5004
  21544332.1364    1509604.88349   1166123.45747                  21544328.8694
        48.0004         37.0004
  23489378.2524    4170295.87149   3226929.30947                  23489379.8574
        44.2504         26.0004
  23759245.5614    1936202.91049   1496819.41447                  23759244.1444
        44.7504         27.5004
  23163605.3274    1520140.34449   1174025.50447                  23163601.7194
        42.5004         29.5004
  21085178.5604   -5476556.77049  -4244147.44548                  21085176.7104
        50.0004         39.5004
  24024413.7204   -3611464.25049  -2803040.52346                  24024415.9354
        36.7504         24.0004
  24573839.3994    -739258.61749   -569914.05946                  24573838.2344
        41.5004         22.2504
 04  7 14 19 18 45.0000000  0  9G23G11G14G15G19G22G25G 1G20
  24091089.4184   -4550256.82449  -3540712.79346                  24091086.3274
        42.5004         25.5004
  21795272.5324   -5424041.14549  -4203352.96147                  21795270.1404
        50.5004         35.7504
  21547504.3474    1526278.29349   1179115.71547                  21547501.7774
        49.7504         37.0004
  23497035.3504    4210534.16449   3258283.76647                  23497036.6464
        44.5004         26.7504
  23763182.9634    1956895.67649   1512943.59847                  23763181.6574
        44.0004         27.0004
  23166612.7684    1535946.55149   1186342.00847                  23166609.8544
        45.5004         29.5004
  21077139.5674   -5518802.77049  -4277066.39547                  21077137.7394
        50.7504         39.2504
  24013365.6794   -3669525.83649  -2848283.27746                  24013366.9594
        39.7504         22.5004
  24562596.9284    -798336.69949   -615948.88346                  24562595.1174
        41.0004         21.7504
 04  7 14 19 19  0.0000000  0  9G23G11G14G15G19G22G25G 1G20
  24079639.4134   -4610421.70349  -3587594.46146                  24079637.6934
        42.5004         24.7504
  21787381.7084   -5465506.47749  -4235663.59847                  21787379.0814
        50.7504         36.0004
  21550686.8994    1543001.73049   1192146.94947                  21550684.5784
        50.0004         36.5004
  23504701.2014    4250818.46149   3289674.05547                  23504703.1584
        43.0004         27.5004
  23767130.0754    1977636.76249   1529105.41047                  23767128.1984
        43.7504         26.5004
  23169628.4294    1551795.55149   1198691.85547                  23169626.0994
        45.0004         30.0004
  21069124.0914   -5560924.46949  -4309888.48048                  21069122.2464
        50.2504         39.5004
  24002326.3264   -3727534.78149  -2893484.98846                  24002328.4674
        38.0004         22.5004
  24551354.0354    -857417.59049   -661985.90246                  24551352.6284
        41.7504         22.0004
 04  7 14 19 19 15.0000000  0  9G23G11G14G15G19G22G25G 1G20
  24068200.1184   -4670539.92249  -3634439.75846                  24068197.7764
        42.7504         24.5004
  21779514.5174   -5506850.84049  -4267879.98447                  21779511.8454
        48.7504         36.0004
  21553878.9334    1559774.36749   1205216.52747                  21553876.0474
        50.2504         37.5004
  23512375.8234    4291147.85249   3321099.48047                  23512377.5034
        43.2504         25.7504
  23771086.2424    1998425.27049   1545304.19547                  23771084.5184
        44.7504         27.0004
  23172652.7664    1567686.73449   1211074.56347                  23172650.7284
        46.2504         29.7504
  21061132.2224   -5602922.32049  -4342614.07047                  21061130.2484
        49.5004         39.2504
  23991297.6514   -3785491.53549  -2938646.02746                  23991299.4514
        39.0004         23.0004
  24540110.9494    -916501.77349   -708025.52346                  24540109.5194
        41.0004         21.0004
 04  7 14 19 19 30.0000000  0  9G23G11G14G15G19G22G25G 1G20
  24056768.0854   -4730611.61349  -3681248.81646                  24056766.3104
        42.5004         24.7504
  21771669.8234   -5548074.30149  -4300002.15647                  21771667.5714
        44.7504         35.2504
  21557079.7084    1576595.53949   1218323.91847                  21557076.8964
        49.7504         37.5004
  23520059.2314    4331521.79349   3352559.61346                  23520060.6564
        43.7504         25.2504
  23775050.2114    2019260.41049   1561539.35947                  23775049.4994
        43.2504         28.0004
  23175684.7344    1583619.77349   1223489.89147                  23175682.3304
        46.0004         29.7504
  21053163.6934   -5644796.27349  -4375243.11348                  21053161.8444
        47.0004         39.7504
  23980278.8874   -3843396.40249  -2983766.64146                  23980279.9664
        39.7504         22.5004
  24528866.5704    -975589.62949   -754067.96546                  24528865.4564
        40.7504         21.0004
 04  7 14 19 19 45.0000000  0  9G23G11G14G15G19G22G25G 1G20
  24045346.3584   -4790636.25049  -3728021.19946                  24045343.5814
        43.0004         25.0004
  21763848.1594   -5589176.19549  -4332029.59447                  21763845.5784
        46.0004         35.5004
  21560289.9174    1593465.44949   1231469.28947                  21560287.5314
        49.0004         37.0004
  23527751.0584    4371940.40649   3384054.55947                  23527752.0694
        44.7504         26.7504
  23779024.9754    2040142.21549   1577810.81347                  23779024.0674
        44.2504         28.2504
  23178724.5154    1599595.13349   1235938.18847                  23178721.6704
        44.7504         28.5004
  21045218.9154   -5686545.66849  -4407775.09048                  21045217.3774
        46.5004         39.7504
  23969270.6394   -3901248.80949  -3028846.39846                  23969271.3304
        39.5004         23.2504
  24517621.7404   -1034680.60949   -800112.83646                  24517621.2364
        40.5004         20.5004
 04  7 14 19 20  0.0000000  0  9G23G11G14G15G19G22G25G 1G20
  24033932.3544   -4850615.09449  -3774757.93746                  24033929.2214
        43.5004         25.0004
  21756049.6224   -5630157.76649  -4363963.28147                  21756047.2254
        49.2504         36.5004
  21563509.2954    1610382.68049   1244651.52747                  21563506.6984
        48.2504         38.0004
  23535450.2554    4412402.00049   3415583.00847                  23535451.6674
        45.2504         28.2504
  23783006.8544    2061068.97749   1594117.34047                  23783006.3614
        44.2504         29.0004
  23181772.8984    1615611.53549   1248418.47347                  23181769.9724
        43.0004         29.0004
  21037297.9384   -5728171.72749  -4440210.96948                  21037295.9474
        50.7504         39.5004
  23958271.1634   -3959050.05949  -3073886.30546                  23958271.9584
        40.2504         22.5004
  24506376.3004   -1093775.87549   -846161.07846                  24506375.1124
        41.5004         20.5004
 04  7 14 19 20 15.0000000  0  9G23G11G14G15G19G22G25G 1G20
  24022527.8114   -4910547.76249  -3821458.64546                  24022525.0214
        43.5004         24.7504
  21748274.5214   -5671018.32449  -4395802.66847                  21748271.8704
        45.0004         36.7504
  21566737.5354    1627347.27349   1257870.68447                  21566734.8114
        49.0004         36.7504
  23543158.9944    4452906.65249   3447145.00447                  23543159.2984
        45.7504         27.0004
  23786997.7504    2082040.82849   1610458.99247                  23786996.6464
        43.7504         27.2504
  23184828.2904    1631669.37549   1260931.06347                  23184825.4814
        42.7504         29.7504
  21029400.1404   -5769673.92649  -4472550.32848                  21029398.5304
        45.5004         39.5004
  23947281.2104   -4016799.76649  -3118886.02046                  23947283.1094
        40.5004         22.2504
  24495130.7074   -1152875.09049   -892212.39146                  24495129.1024
        42.5004         21.0004
 04  7 14 19 20 30.0000000  0  9G23G11G14G15G19G22G25G 1G20
  24011130.9734   -4970433.36749  -3868122.69547                  24011129.3754
        43.2504         26.5004
  21740521.7974   -5711756.80149  -4427546.94147                  21740519.1384
        46.5004         36.2504
  21569974.7114    1644359.83249   1271127.21147                  21569972.2184
        50.0004         37.0004
  23550874.2794    4493454.96149   3478741.03547                  23550874.5004
        45.0004         25.7504
  23790997.2374    2103058.12549   1626836.04347                  23790996.4794
        43.5004         27.5004
  23187891.9224    1647769.46949   1273476.55147                  23187888.9414
        46.2504         29.5004
  21021526.4124   -5811051.22349  -4504792.36348                  21021524.6434
        47.5004         39.5004
  23936301.5864   -4074496.93049  -3163844.77746                  23936303.9814
        41.0004         24.5004
  24483883.6884   -1211977.31649   -938266.09046                  24483882.3654
        41.7504         19.0004
 04  7 14 19 20 45.0000000  0  9G23G11G14G15G19G22G25G 1G20
  23999744.6934   -5030271.33249  -3914749.62946                  23999742.0094
        44.2504         25.2504
  21732793.0014   -5752372.45349  -4459195.48447                  21732790.4634
        49.5004         36.5004
  21573221.1334    1661420.87149   1284421.52047                  21573219.0114
        49.0004         36.7504
  23558598.9574    4534047.06349   3510371.19146                  23558599.4734
        43.7504         25.0004
  23795005.6304    2124121.18449   1643248.77347                  23795004.9234
        43.2504         27.0004
  23190963.8154    1663912.40249   1286055.44147                  23190960.9774
        43.2504         28.7504
  21013676.5514   -5852302.88749  -4536936.50048                  21013674.6444
        51.2504         40.2504
  23925332.4344   -4132140.99249  -3208762.14146                  23925334.5874
        41.5004         25.0004
  24472635.6474   -1271082.02049   -984321.69546                  24472635.3784
        40.5004         19.0004
 04  7 14 19 21  0.0000000  0  9G23G11G14G15G19G22G25G 1G20
  23988366.8074   -5090062.59049  -3961340.16846                  23988363.9054
        43.7504         24.2504
  21725087.1194   -5792866.32449  -4490749.15647                  21725084.4734
        48.5004         35.2504
  21576477.0494    1678528.91849   1297752.44147                  21576475.0184
        48.0004         37.0004
  23566331.2374    4574681.47749   3542034.29346                  23566331.9394
        42.5004         24.2504
  23799022.1084    2145228.30149   1659695.82847                  23799020.4934
        43.7504         27.7504
  23194043.9164    1680097.04349   1298666.81347                  23194041.6704
        42.0004         29.2504
  21005850.1384   -5893429.86749  -4568983.48848                  21005848.5524
        50.2504         40.2504
  23914372.8964   -4189733.05149  -3253639.02046                  23914374.1204
        41.0004         22.5004
  24461387.8304   -1330190.16849  -1030379.93046                  24461386.7114
        40.5004         17.7504
 04  7 14 19 21 15.0000000  0  9G23G11G14G15G19G22G25G 1G20
  23976997.6164   -5149806.79749  -4007894.05147                  23976994.4274
        42.7504         27.0004
  21717404.9274   -5833237.96949  -4522207.57047                  21717402.1304
        45.5004         36.0004
  21579741.6304    1695683.91849   1311119.96947                  21579738.8764
        50.2504         37.5004
  23574071.4454    4615358.25849   3573730.38746                  23574073.0534
        41.7504         22.2504
  23803047.0674    2166379.36349   1676177.08647                  23803046.1834
        43.0004         28.5004
  23197131.6914    1696323.68049   1311310.91847                  23197129.3314
        45.2504         29.2504
  20998047.7784   -5934431.78149  -4600933.01648                  20998045.8184
        47.2504         39.5004
  23903423.7934   -4247272.66049  -3298475.02746                  23903424.5494
        42.2504         22.7504
  24450139.1464   -1389301.52049  -1076440.69946                  24450138.2744
        40.5004         17.5004
 04  7 14 19 21 30.0000000  0  9G23G11G14G15G19G22G25G 1G20
  23965637.8534   -5209505.96549  -4054412.81647                  23965635.3734
        43.5004         26.0004
  21709745.1694   -5873488.99649  -4553572.00447                  21709742.6534
        44.7504         36.2504
  21583013.7784    1712883.71949   1324522.40247                  21583012.1904
        50.2504         36.5004
  23581819.2734    4656074.99649   3605457.64146                  23581820.8114
        42.2504         22.0004
  23807080.0374    2187572.05149   1692690.82447                  23807079.1824
        43.0004         28.0004
  23200227.0264    1712590.30149   1323986.17247                  23200224.5414
        45.5004         29.5004
  20990268.8384   -5975310.34449  -4632786.42248                  20990267.0984
        45.7504         40.0004
  23892484.1634   -4304761.80949  -3343271.70346                  23892484.9174
        42.2504         22.7504
  24438890.4964   -1448417.95749  -1122505.41446                  24438888.1964
        41.0004         18.5004
 04  7 14 19 21 45.0000000  0  9G23G11G14G15G19G22G25G 1G20
  23954285.8124   -5269158.96149  -4100895.60247                  23954283.8234
        44.0004         25.7504
  21702108.6374   -5913618.21149  -4584841.51647                  21702106.3114
        49.5004         36.5004
  21586295.8034    1730129.09849   1337960.35247                  21586294.2424
        50.0004         36.7504
  23589575.6344    4696832.50849   3637216.68446                  23589576.4644
        42.2504         22.2504
  23811120.5674    2208806.89149   1709237.38347                  23811119.6324
        41.7504         26.5004
  23203330.0694    1728897.96949   1336693.41847                  23203327.5424
        45.0004         29.5004
  20982513.7724   -6016064.19149  -4664542.65648                  20982512.0534
        51.2504         40.2504
  23881552.8674   -4362199.40649  -3388028.22346                  23881554.7514
        40.5004         22.7504
  24427639.8224   -1507538.40249  -1168573.26246                  24427638.2914
        40.0004         19.2504
 04  7 14 19 22  0.0000000  0  9G23G11G14G15G19G22G25G 1G20
  23942943.2044   -5328765.20349  -4147341.99647                  23942940.9184
        43.7504         25.7504
  21694495.9234   -5953625.10249  -4616015.71947                  21694493.3474
        44.5004         36.5004
  21589586.2584    1747420.21149   1351433.92647                  21589584.2524
        50.0004         36.5004
  23597339.2174    4737630.80949   3669007.50846                  23597340.5384
        43.0004         22.0004
  23815169.7024    2230083.86349   1725816.78947                  23815168.1344
        43.0004         27.0004
  23206441.6154    1745246.98449   1349432.87947                  23206439.1234
        45.0004         28.2504
  20974782.3614   -6056692.84049  -4696201.33648                  20974780.6704
        47.5004         40.2504
  23870634.1294   -4419585.00049  -3432744.18446                  23870634.1824
        42.2504         25.2504
  24416388.7544   -1566662.45749  -1214643.94546                  24416386.2724
        40.0004         19.0004
 04  7 14 19 22 15.0000000  0  9G23G11G14G15G19G22G25G 1G20
  23931609.2524   -5388324.66449  -4193751.89847                  23931607.2444
        43.5004         26.2504
  21686906.1494   -5993509.50849  -4647094.47347                  21686903.4104
        45.2504         36.7504
  21592885.6174    1764756.94149   1364943.04747                  21592883.4514
        49.5004         36.5004
  23605111.0444    4778469.73449   3700829.96946                  23605111.3084
        42.5004         21.7504
  23819226.3474    2251402.66849   1742428.79747                  23819225.0834
        43.7504         27.2504
  23209560.4834    1761637.38749   1362204.57447                  23209558.1094
        44.7504         29.5004
  20967074.9654   -6097196.05549  -4727762.27048                  20967073.2084
        46.5004         40.7504
  23859724.0094   -4476918.50849  -3477419.60546                  23859723.9604
        42.7504         22.5004
  24405137.1434   -1625789.97749  -1260717.29346                  24405135.7514
        39.0004         19.0004
 04  7 14 19 22 30.0000000  0  9G23G11G14G15G19G22G25G 1G20
  23920284.2364   -5447838.55949  -4240126.30147                  23920282.5234
        44.0004         26.7504
  21679339.7044   -6033272.37149  -4678078.52347                  21679336.4964
        48.0004         37.5004
  21596193.0954    1782137.73849   1378486.51647                  21596190.8164
        48.0004         36.5004
  23612890.3614    4819347.69149   3732682.86346                  23612890.4624
        42.2504         20.0004
  23823291.5954    2272761.78949   1759072.19547                  23823289.7774
        42.0004         27.2504
  23212687.2294    1778068.02349   1375007.63347                  23212684.2324
        42.0004         28.5004
  20959391.0434   -6137574.91449  -4759226.30148                  20959389.1984
        50.0004         40.0004
  23848823.1314   -4534201.03949  -3522055.33246                  23848823.9834
        42.2504         22.7504
  24393884.7114   -1684922.18049  -1306794.27346                  24393883.1234
        39.5004         17.5004
 04  7 14 19 22 45.0000000  0  9G23G11G14G15G19G22G25G 1G20
  23908967.8274   -5507305.49249  -4286464.12947                  23908965.5854
        43.0004         26.5004
  21671796.5204   -6072912.30549  -4708966.77747                  21671793.7674
        50.2504         36.2504
  21599509.1414    1799563.59049   1392065.09847                  21599506.8844
        49.0004         36.5004
  23620675.9284    4860265.64849   3764566.89146                  23620677.5624
        42.5004         20.0004
  23827363.7384    2294161.87149   1775747.52347                  23827362.7714
        42.7504         28.0004
  23215821.5794    1794540.19949   1387843.07447                  23215819.2684
        44.2504         28.7504
  20951731.1674   -6177828.00049  -4790592.33648                  20951729.2664
        51.7504         40.7504
  23837932.3094   -4591431.33649  -3566650.31646                  23837933.0524
        42.0004         22.5004
  24382631.8894   -1744057.66449  -1352873.84046                  24382629.9644
        40.0004         18.5004
 04  7 14 19 23  0.0000000  0  9G23G11G14G15G19G22G25G 1G20
  23897660.9084   -5566726.40649  -4332766.10947                  23897657.4904
        43.7504         26.5004
  21664275.8674   -6112430.16049  -4739759.91447                  21664273.5154
        50.2504         36.0004
  21602833.5944    1817033.32449   1405677.85947                  21602831.4974
        49.0004         36.0004
  23628470.5534    4901222.32449   3796481.12546                  23628471.6314
        41.7504         20.5004
  23831443.4194    2315601.64549   1792453.78947                  23831442.9544
        41.5004         27.5004
  23218964.2724    1811052.98049   1400710.14847                  23218961.8004
        45.2504         28.5004
  20944094.9374   -6217956.16849  -4821861.02748                  20944093.0314
        51.2504         40.2504
  23827051.5954   -4648610.26249  -3611205.27746                  23827052.3424
        42.2504         23.5004
  24371377.6534   -1803197.39549  -1398956.72346                  24371375.4924
        39.7504         18.5004
 04  7 14 19 23 15.0000000  0  9G23G11G14G15G19G22G25G 1G20
  23886361.8574   -5626099.94149  -4379031.14547                  23886359.8564
        43.0004         26.5004
  21656779.5114   -6151824.25849  -4770456.60947                  21656776.9224
        49.5004         36.5004
  21606166.7524    1834548.09049   1419325.71147                  21606163.8894
        50.0004         36.0004
  23636270.8744    4942218.71949   3828426.28546                  23636272.1424
        41.5004         20.0004
  23835530.7144    2337082.02049   1809191.67647                  23835530.1364
        41.0004         26.0004
  23222114.4244    1827607.53549   1413609.76247                  23222111.7504
        44.7504         28.7504
  20936482.7884   -6257957.91449  -4853031.19948                  20936480.8334
        51.2504         40.0004
  23816180.4684   -4705736.55149  -3655719.19946                  23816181.9294
        41.5004         23.0004
  24360122.9864   -1862339.99249  -1445041.84046                  24360121.7004
        39.7504         19.5004
 04  7 14 19 23 30.0000000  0  9G23G11G14G15G19G22G25G 1G20
  23875072.9104   -5685426.39849  -4425259.51647                  23875070.3424
        44.0004         27.5004
  21649306.4684   -6191094.80949  -4801057.03547                  21649304.1634
        48.7504         36.2504
  21609508.0464    1852107.26249   1433008.16847                  21609505.2084
        50.0004         36.7504
  23644080.2204    4983254.07849   3860401.84046                  23644081.4144
        41.5004         20.5004
  23839626.0264    2358602.30949   1825960.66447                  23839625.3664
        40.0004         27.2504
  23225272.1644    1844203.50849   1426541.66847                  23225269.9784
        45.7504         29.5004
  20928894.5454   -6297833.41849  -4884103.00848                  20928893.0094
        50.2504         40.2504
  23805320.0584   -4762810.46549  -3700192.32446                  23805320.9734
        43.2504         23.5004
  24348867.7054   -1921485.83649  -1491129.46946                  24348866.4984
        40.0004         19.5004
 04  7 14 19 23 45.0000000  0  9G23G11G14G15G19G22G25G 1G20
  23863791.9654   -5744706.05149  -4471451.41047                  23863789.5854
        43.7504         26.5004
  21641857.1644   -6230242.00049  -4831561.33247                  21641854.8184
        44.5004         36.7504
  21612857.3104    1869710.17649   1446724.72747                  21612855.3654
        49.7504         36.5004
  23651896.6864    5024327.77749   3892407.25446                  23651897.6164
        42.2504         20.5004
  23843729.2484    2380161.67249   1842760.09047                  23843727.8954
        41.5004         27.2504
  23228438.3024    1860840.63349   1439505.62147                  23228435.9194
        45.2504         28.5004
  20921330.8524   -6337582.77049  -4915076.52348                  20921329.0234
        48.2504         40.7504
  23794469.0044   -4819832.31249  -3744624.90246                  23794469.2854
        43.5004         24.7504
  24337612.0484   -1980635.10949  -1537219.75446                  24337610.7374
        39.7504         20.5004
 04  7 14 19 24  0.0000000  0  9G23G11G14G15G19G22G25G 1G20
  23852520.2424   -5803938.23449  -4517606.30547                  23852517.8774
        43.0004         25.7504
  21634431.5474   -6269265.11749  -4861968.94947                  21634428.7674
        44.7504         36.7504
  21616216.0724    1887357.32449   1460475.72747                  21616213.9484
        49.0004         36.7504
  23659719.6504    5065440.02349   3924442.71946                  23659721.7144
        41.5004         21.0004
  23847839.5034    2401760.37549   1859590.18847                  23847837.6344
        41.7504         28.0004
  23231612.2864    1877519.35949   1452502.00047                  23231609.6394
        43.5004         29.5004
  20913791.3074   -6377205.41449  -4945951.30148                  20913789.0424
        46.2504         40.2504
  23783627.9724   -4876801.48449  -3789016.41846                  23783628.7584
        41.7504         23.0004
  24326355.3014   -2039787.22749  -1583312.25046                  24326355.2914
        40.0004         21.0004
 04  7 14 19 24 15.0000000  0  9G23G11G14G15G19G22G25G 1G20
  23841257.1274   -5863125.12549  -4563725.89147                  23841254.2014
        43.0004         27.0004
  21627028.8914   -6308166.12149  -4892281.43047                  21627026.1274
        45.5004         35.7504
  21619581.8814    1905046.28149   1474259.31647                  21619580.1174
        48.2504         36.7504
  23667550.7794    5106588.42249   3956506.31346                  23667551.7004
        41.0004         21.2504
  23851956.1484    2423395.70349   1876448.85547                  23851955.0964
        40.5004         27.7504
  23234793.8854    1894237.61349   1465529.17247                  23234791.9344
        42.2504         29.5004
  20906274.8994   -6416703.25449  -4976728.82848                  20906272.5854
        48.5004         40.0004
  23772796.8384   -4933720.07849  -3833368.50846                  23772797.0714
        41.7504         22.7504
  24315097.5524   -2098944.22349  -1629408.56646                  24315097.7744
        39.7504         21.0004
 04  7 14 19 24 30.0000000  0  9G23G11G14G15G19G22G25G 1G20
  23830003.6864   -5922264.74249  -4609808.67647                  23830000.3454
        43.5004         27.5004
  21619649.7824   -6346942.98049  -4922497.14847                  21619647.1244
        49.2504         35.7504
  21622956.0544    1922778.54349   1488076.65647                  21622953.6914
        49.0004         35.7504
  23675388.2364    5147774.46149   3988599.25046                  23675389.2034
        41.2504         21.2504
  23856080.1534    2445069.21149   1893337.21947                  23856079.5594
        40.7504         26.7504
  23237982.8084    1910997.27749   1478588.61347                  23237980.9404
        45.2504         30.0004
  20898782.7564   -6456074.37549  -5007407.61748                  20898780.8054
        51.0004         40.2504
  23761975.5874   -4990586.18749  -3877679.72346                  23761975.7654
        42.7504         24.0004
  24303840.1434   -2158104.33249  -1675507.30546                  24303839.5374
        40.0004         21.2504
 04  7 14 19 24 45.0000000  0  9G23G11G14G15G19G22G25G 1G20
  23818759.0104   -5981356.23049  -4655853.95747                  23818756.4564
        43.2504         27.0004
  21612294.4724   -6385594.70749  -4952615.37147                  21612292.1274
        50.5004         36.0004
  21626339.2334    1940554.78149   1501928.24647                  21626336.3804
        48.0004         36.5004
  23683232.2304    5188998.59849   4020721.91046                  23683234.0874
        38.5004         20.5004
  23860212.6444    2466781.27049   1910255.65247                  23860211.1414
        41.0004         27.2504
  23241180.3474    1927799.15249   1491680.94947                  23241177.5884
        44.5004         29.7504
  20891314.9734   -6495317.90649  -5037986.98048                  20891312.9984
        51.5004         39.7504
  23751164.4134   -5047398.91849  -3921949.32846                  23751165.0584
        42.2504         23.5004
  24292582.1914   -2217266.59849  -1721607.75846                  24292580.9324
        40.5004         22.2504
 04  7 14 19 25  0.0000000  0  9G23G11G14G15G19G22G25G 1G20
  23807523.3954   -6040400.73049  -4701862.59447                  23807521.3034
        43.0004         26.7504
  21604963.2714   -6424122.35949  -4982636.92647                  21604960.4704
        50.2504         36.0004
  21629729.9694    1958373.51649   1515812.96547                  21629727.3064
        48.0004         36.5004
  23691084.8544    5230259.30949   4052873.04346                  23691085.8304
        40.0004         20.0004
  23864350.6394    2488530.30149   1927202.89847                  23864349.7674
        41.0004         27.5004
  23244385.5724    1944641.90249   1504805.13747                  23244383.2524
        42.0004         30.2504
  20883871.3204   -6534434.76649  -5068467.64848                  20883869.4224
        51.5004         39.7504
  23740362.8374   -5104159.53149  -3966178.32846                  23740364.1734
        42.0004         24.2504
  24281324.1144   -2276432.23449  -1767710.83246                  24281323.0624
        42.7504         22.5004
 04  7 14 19 25 15.0000000  0  9G23G11G14G15G19G22G25G 1G20
  23796295.8394   -6099397.98849  -4747834.43047                  23796293.7684
        42.7504         27.5004
  21597655.2144   -6462525.39549  -5012561.36747                  21597652.3394
        50.0004         35.5004
  21633128.4344    1976234.91449   1529730.93047                  21633127.0344
        48.7504         36.2504
  23698943.2804    5271556.64549   4085052.70346                  23698944.4984
        39.5004         19.5004
  23868497.6594    2510316.19549   1944178.87547                  23868495.5514
        41.7504         28.0004
  23247598.4834    1961525.96949   1517961.52747                  23247595.8184
        46.0004         29.7504
  20876451.4914   -6573424.32849  -5098849.10948                  20876449.4144
        52.0004         40.5004
  23729572.0564   -5160867.64549  -4010366.40646                  23729573.0974
        42.0004         24.2504
  24270064.6674   -2335600.84449  -1813816.16846                  24270063.4944
        42.7504         22.2504
 04  7 14 19 25 30.0000000  0  9G23G11G14G15G19G22G25G 1G20
  23785077.0944   -6158349.21149  -4793770.37947                  23785075.9784
        43.5004         26.7504
  21590370.8274   -6500804.91049  -5042389.56247                  21590367.9894
        51.0004         36.0004
  21636535.4564    1994137.46149   1543680.95347                  21636533.5274
        48.7504         35.7504
  23706808.9434    5312888.98049   4117259.64146                  23706809.7834
        40.0004         21.0004
  23872649.3004    2532137.24249   1961182.22347                  23872648.3584
        40.5004         26.5004
  23250818.9524    1978450.02349   1531149.08647                  23250817.0794
        44.5004         30.0004
  20869056.4964   -6612287.80949  -5129132.33248                  20869053.9734
        51.0004         40.2504
  23718790.5354   -5217524.47749  -4054514.52747                  23718791.3954
        43.0004         25.7504
  24258804.1154   -2394773.65649  -1859924.84046                  24258802.8584
        42.7504         23.0004
 04  7 14 19 25 45.0000000  0  9G23G11G14G15G19G22G25G 1G20
  23773869.1924   -6217251.86749  -4839668.50446                  23773866.8124
        42.7504         25.5004
  21583110.5644   -6538958.38349  -5072119.54747                  21583107.3464
        50.5004         36.7504
  21639950.0524    2012083.20749   1557664.63347                  21639947.8064
        47.2504         36.5004
  23714681.4944    5354258.45349   4149495.51646                  23714682.4514
        42.0004         21.0004
  23876809.1304    2553995.58249   1978214.64847                  23876808.2734
        40.7504         27.0004
  23254047.7824    1995416.50049   1544369.67247                  23254045.5534
        42.0004         28.5004
  20861684.9214   -6651022.72749  -5159315.37548                  20861683.0514
        51.0004         40.2504
  23708019.0974   -5274127.63349  -4098620.83247                  23708020.1154
        43.5004         26.0004
  24247543.8004   -2453948.16049  -1906034.82846                  24247541.9844
        42.5004         24.0004
 04  7 14 19 26  0.0000000  0  9G23G11G14G15G19G22G25G 1G20
  23762669.2944   -6276107.12149  -4885529.72347                  23762666.2884
        42.2504         26.7504
  21575873.6514   -6576986.91449  -5101752.15647                  21575871.2904
        49.7504         36.5004
  21643372.9984    2030070.65249   1571680.80947                  21643370.5764
        48.7504         36.0004
  23722560.3354    5395663.35949   4181759.00446                  23722561.7484
        40.7504         21.7504
  23880975.6404    2575889.37549   1995274.65647                  23880974.5564
        40.5004         26.5004
  23257283.8764    2012424.11749   1557622.32447                  23257281.3654
        44.5004         29.5004
  20854338.4404   -6689629.99649  -5189398.94548                  20854336.5544
        51.0004         40.5004
  23697258.0084   -5330678.24649  -4142686.19146                  23697258.2654
        43.2504         25.5004
  24236283.2634   -2513125.56649  -1952147.03546                  24236281.3444
        42.7504         22.5004
 04  7 14 19 26 15.0000000  0  9G23G11G14G15G19G22G25G 1G20
  23751478.7664   -6334914.28949  -4931353.44147                  23751476.2074
        42.5004         25.7504
  21568661.4294   -6614889.58649  -5131286.70747                  21568658.8074
        50.5004         36.7504
  21646804.0454    2048100.35949   1585729.90647                  21646802.3364
        49.7504         36.5004
  23730445.8934    5437104.11349   4214050.39146                  23730447.3524
        40.2504         20.5004
  23885148.5264    2597818.93449   2012362.53947                  23885147.4394
        38.5004         26.5004
  23260528.5374    2029473.39849   1570907.45747                  23260526.2084
        45.7504         29.0004
  20847015.6874   -6728108.93449  -5219382.53148                  20847014.2274
        50.5004         39.7504
  23686506.8534   -5387175.62549  -4186710.07846                  23686507.4794
        43.7504         24.5004
  24225020.8924   -2572305.19949  -1998260.98846                  24225020.6164
        43.2504         25.0004
 04  7 14 19 26 30.0000000  0  9G23G11G14G15G19G22G25G 1G20
  23740296.4774   -6393673.66049  -4977139.91847                  23740294.0974
        41.7504         26.0004
  21561472.5054   -6652666.63349  -5160723.36747                  21561469.4854
        50.2504         36.7504
  21650243.2794    2066171.68449   1599811.45347                  21650240.6834
        49.0004         35.5004
  23738338.9134    5478580.00849   4246369.20746                  23738339.5344
        40.0004         21.5004
  23889327.7614    2619783.51649   2029477.78547                  23889327.3114
        39.2504         26.7504
  23263780.3094    2046564.20349   1584224.91447                  23263778.7264
        45.7504         29.0004
  20839718.1034   -6766459.69549  -5249266.23048                  20839715.9644
        51.0004         39.7504
  23675765.9284   -5443620.06249  -4230692.71546                  23675765.6244
        42.5004         23.5004
  24213758.9474   -2631487.31249  -2044376.87546                  24213758.0114
        42.5004         22.7504
 04  7 14 19 26 45.0000000  0  9G23G11G14G15G19G22G25G 1G20
  23729124.8114   -6452384.98849  -5022888.95347                  23729122.2714
        43.0004         27.2504
  21554307.6994   -6690317.73849  -5190061.89547                  21554305.4574
        49.5004         37.0004
  21653689.7024    2084284.60549   1613925.40247                  21653687.7004
        49.0004         36.5004
  23746237.9254    5520090.93449   4278715.32846                  23746239.2664
        41.2504         21.0004
  23893515.0054    2641783.01249   2046620.16447                  23893513.2444
        40.0004         26.2504
  23267041.1564    2063696.65249   1597574.84047                  23267038.0304
        45.7504         29.5004
  20832444.6744   -6804682.00049  -5279049.83248                  20832442.3724
        50.7504         39.7504
  23665034.3984   -5500011.34049  -4274633.91446                  23665035.0494
        42.5004         24.2504
  24202496.9924   -2690671.62549  -2090494.47746                  24202495.5304
        43.7504         22.5004
 04  7 14 19 27  0.0000000  0  9G23G11G14G15G19G22G25G 1G20
  23717961.1274   -6511049.19149  -5068601.26247                  23717958.7504
        42.2504         26.2504
  21547166.8504   -6727843.73849  -5219302.93447                  21547163.6784
        45.7504         36.5004
  21657144.2154    2102437.86749   1628070.78547                  21657141.8504
        49.0004         36.5004
  23754144.0844    5561635.62549   4311087.73846                  23754144.6474
        40.5004         20.0004
  23897707.0514    2663815.87149   2063788.56647                  23897705.9644
        40.2504         26.7504
  23270308.9744    2080869.66849   1610956.40647                  23270306.8004
        45.2504         28.5004
  20825195.5234   -6842776.73849  -5308734.03948                  20825193.5414
        47.7504         40.2504
  23654314.0914   -5556350.43449  -4318534.46146                  23654314.6874
        41.7504         25.2504
  24191233.5984   -2749859.13349  -2136614.56246                  24191232.4074
        43.5004         24.2504
 04  7 14 19 27 15.0000000  0  9G23G11G14G15G19G22G25G 1G20
  23706807.0164   -6569666.41849  -5114276.96947                  23706804.3374
        43.0004         28.0004
  21540049.7234   -6765244.38749  -5248446.29347                  21540047.1914
        45.0004         36.5004
  21660606.1734    2120631.14849   1642247.36347                  21660604.3784
        48.5004         35.7504
  23762056.0214    5603213.59049   4343486.08646                  23762057.2604
        40.5004         21.2504
  23901906.1864    2685881.66049   2080982.64146                  23901904.7624
        41.0004         25.5004
  23273584.2784    2098083.24649   1624369.52347                  23273582.2044
        44.5004         28.5004
  20817970.1904   -6880743.81249  -5338318.76248                  20817968.7484
        45.7504         40.5004
  23643602.1704   -5612637.39849  -4362394.38746                  23643603.1514
        42.5004         25.0004
  24179970.0714   -2809049.76249  -2182737.10247                  24179969.4664
        43.7504         26.0004
 04  7 14 19 27 30.0000000  0  9G23G11G14G15G19G22G25G 1G20
  23695660.9134   -6628234.29749  -5159914.25047                  23695659.3654
        41.7504         26.7504
  21532956.7714   -6802517.40649  -5277490.20347                  21532954.3374
        45.5004         36.7504
  21664076.1924    2138866.35549   1656456.57847                  21664074.5294
        48.0004         36.0004
  23769973.7134    5644826.68449   4375911.78546                  23769975.6324
        39.0004         21.0004
  23906112.0034    2707982.21149   2098203.79747                  23906110.1034
        40.2504         26.5004
  23276868.6864    2115339.39849   1637815.86347                  23276865.9464
        44.2504         28.5004
  20810770.2834   -6918580.90649  -5367802.20348                  20810768.3374
        46.2504         40.2504
  23632901.5904   -5668869.95349  -4406211.93746                  23632903.1904
        41.7504         25.0004
  24168706.3874   -2868241.37949  -2228860.41046                  24168704.8914
        43.5004         24.7504
 04  7 14 19 27 45.0000000  0  9G23G11G14G15G19G22G25G 1G20
  23684524.8004   -6686754.77749  -5205514.55147                  23684522.4094
        42.0004         25.7504
  21525887.9284   -6839664.75449  -5306436.18747                  21525885.0164
        48.5004         36.5004
  21667553.9064    2157141.37549   1670696.83647                  21667551.9934
        48.0004         36.2504
  23777899.1334    5686472.80549   4408363.23046                  23777901.3014
        38.0004         20.0004
  23910323.3664    2730115.12549   2115450.16047                  23910322.6494
        41.2504         26.0004
  23280160.3254    2132636.29349   1651293.93047                  23280157.7584
        42.5004         28.5004
  20803594.7034   -6956289.85949  -5397185.78948                  20803592.3324
        49.0004         40.7504
  23622210.6184   -5725050.05949  -4449988.55946                  23622212.0044
        42.0004         24.2504
  24157441.4344   -2927435.87549  -2274985.95346                  24157440.1544
        42.5004         24.7504
 04  7 14 19 28  0.0000000  0  9G23G11G14G15G19G22G25G 1G20
  23673397.8654   -6745227.43749  -5251077.60547                  23673395.9314
        42.7504         26.5004
  21518843.1324   -6876685.67249  -5335283.66047                  21518840.7154
        50.7504         36.7504
  21671039.8614    2175456.45349   1684968.31347                  21671036.9004
        49.2504         35.5004
  23785831.0044    5728151.89849   4440840.32846                  23785832.5404
        39.0004         20.0004
  23914541.9154    2752280.38749   2132721.75046                  23914539.7764
        41.5004         24.5004
  23283459.0394    2149974.33249   1664804.03547                  23283458.2434
        45.0004         29.7504
  20796443.1544   -6993870.09049  -5426469.07848                  20796441.1504
        50.5004         40.2504
  23611530.6064   -5781177.12549  -4493723.91046                  23611530.5124
        43.0004         25.2504
  24146177.1264   -2986632.67249  -2321113.27346                  24146175.8214
        42.5004         22.7504
 04  7 14 19 28 15.0000000  0  9G23G11G14G15G19G22G25G 1G20
  23662280.0364   -6803652.18449  -5296603.34447                  23662278.2164
        43.0004         28.2504
  21511822.5484   -6913580.05149  -5364032.51247                  21511819.7764
        51.0004         36.2504
  21674532.6684    2193811.44549   1699270.88347                  21674529.8174
        48.7504         35.2504
  23793768.5314    5769863.69049   4473342.88346                  23793770.8424
        38.2504         21.2504
  23918765.2644    2774477.68849   2150018.30146                  23918764.3054
        40.2504         25.5004
  23286765.6864    2167353.48449   1678346.21547                  23286764.2834
        44.0004         28.7504
  20789316.4234   -7031321.55949  -5455652.02748                  20789314.5884
        50.5004         40.2504
  23600860.2214   -5837251.22749  -4537417.95746                  23600861.3314
        42.5004         25.5004
  24134910.9434   -3045831.77349  -2367242.43446                  24134910.7144
        42.7504         22.2504
 04  7 14 19 28 30.0000000  0  9G23G11G14G15G19G22G25G 1G20
  23651171.8424   -6862030.18749  -5342092.68047                  23651168.4474
        43.0004         26.7504
  21504825.5154   -6950348.91849  -5392683.58247                  21504822.8194
        50.7504         36.0004
  21678033.0694    2212204.64849   1713603.23847                  21678030.1094
        48.5004         36.0004
  23801712.0194    5811606.58249   4505869.77046                  23801714.0634
        40.2504         21.2504
  23922995.5494    2796705.40649   2167338.54347                  23922993.8664
        42.5004         26.2504
  23290081.3564    2184772.55549   1691919.46147                  23290078.4224
        40.7504         28.5004
  20782213.8254   -7068645.15249  -5484735.34048                  20782212.0904
        51.5004         40.7504
  23590198.9264   -5893273.54749  -4581071.68047                  23590199.5344
        42.5004         25.7504
  24123645.7584   -3105034.32049  -2413374.24646                  24123644.0284
        42.2504         21.7504
 04  7 14 19 28 45.0000000  0  9G23G11G14G15G19G22G25G 1G20
  23640071.4364   -6920359.34449  -5387543.91847                  23640069.7124
        43.0004         28.2504
  21497853.0584   -6986990.23049  -5421235.25847                  21497850.5074
        50.7504         36.2504
  21681540.3284    2230637.96949   1727966.86347                  21681538.1294
        50.0004         35.0004
  23809661.4514    5853382.27049   4538422.19946                  23809663.8984
        40.7504         22.0004
  23927231.3184    2818964.99649   2184683.62146                  23927230.2844
        40.2504         25.0004
  23293404.1084    2202233.38749   1705525.27347                  23293401.0184
        44.0004         28.5004
  20775136.2574   -7105838.81649  -5513717.41048                  20775134.2414
        50.5004         40.2504
  23579548.7324   -5949242.07049  -4624683.45746                  23579549.2364
        42.5004         24.0004
  24112379.4944   -3164238.28549  -2459507.20746                  24112378.1774
        41.7504         21.5004
 04  7 14 19 29  0.0000000  0  9G23G11G14G15G19G22G25G 1G20
  23928774.3074   -6978637.09449  -5432955.11347                  23928772.1464
        42.5004         26.0004
  21790697.1004   -7023502.49649  -5449686.37547                  21790694.2544
        50.7504         36.2504
  21984847.3864    2249108.71549   1742359.64147                  21984845.0144
        48.5004         35.5004
  24117409.2134    5895186.39549   4570996.74646                  24117410.9604
        41.0004         20.0004
  24231265.0414    2841253.35249   2202051.11746                  24231264.0304
        39.7504         25.0004
  23596527.0724    2219733.77049   1719161.91047                  23596524.3934
        43.5004         29.7504
  21067876.0384   -7142901.09449  -5542597.09048                  21067874.3944
        51.2504         40.5004
  23868701.1974   -6005154.20349  -4668251.29746                  23868702.1294
        42.5004         23.2504
  24400905.8694   -3223440.97349  -2505639.14146                  24400904.5444
        40.7504         22.0004
 04  7 14 19 29 15.0000000  0  9G23G11G14G15G19G22G25G 1G20
  23917692.5674   -7036869.75049  -5478331.17247                  23917690.2834
        41.5004         26.2504
  21783773.1564   -7059889.12949  -5478039.59447                  21783770.7474
        50.7504         36.2504
  21988370.0564    2267620.42649   1756784.32847                  21988367.8214
        49.5004         35.0004
  24125371.3654    5937025.66049   4603598.69946                  24125372.1364
        40.5004         20.0004
  24235513.0464    2863574.46549   2219444.10946                  24235511.7664
        41.0004         24.7504
  23599865.0574    2237277.36349   1732832.20347                  23599862.8794
        44.7504         27.0004
  21060848.1264   -7179835.46549  -5571377.10548                  21060845.8174
        51.7504         40.7504
  23858070.8824   -6061016.08249  -4711780.00446                  23858071.6184
        41.7504         25.0004
  24389639.2264   -3282648.67649  -2551774.97346                  24389637.5284
        42.7504         21.5004
 04  7 14 19 29 30.0000000  0  9G23G11G14G15G19G22G25G 1G20
  23906619.6014   -7095054.28949  -5523669.71547                  23906618.3634
        41.7504         26.5004
  21776873.1904   -7096148.50049  -5506293.63347                  21776870.5814
        49.7504         36.7504
  21991900.3244    2286170.78149   1771239.14147                  21991898.0294
        49.7504         35.2504
  24133338.2374    5978895.95349   4636224.80946                  24133339.6624
        39.7504         19.2504
  24239766.1444    2885925.57849   2236860.51247                  24239765.2504
        41.7504         28.5004
  23603211.5944    2254862.03549   1746534.50447                  23603209.0744
        45.7504         27.7504
  21053843.7964   -7216640.23049  -5600056.14148                  21053841.9114
        50.5004         40.2504
  23847451.1174   -6116824.86349  -4755267.32846                  23847451.6454
        41.2504         24.5004
  24378372.0534   -3341858.48849  -2597912.46946                  24378370.7884
        42.0004         22.2504
 04  7 14 19 29 45.0000000  0  9G23G11G14G15G19G22G25G 1G20
  23895557.5974   -7153190.75449  -5568970.82447                  23895555.6794
        43.2504         27.0004
  21769997.6084   -7132280.53149  -5534448.46547                  21769994.5464
        46.5004         36.5004
  21995436.9184    2304759.45749   1785723.80547                  21995435.1514
        49.2504         35.5004
  24141312.2934    6020796.87549   4668874.78946                  24141313.9274
        40.0004         19.0004
  24244024.4784    2908306.08249   2254299.74246                  24244024.4904
        41.2504         25.0004
  23606564.8494    2272487.58249   1760268.64847                  23606563.0754
        44.5004         28.0004
  21046865.0404   -7253315.60949  -5628634.34848                  21046862.3564
        48.2504         40.5004
  23836840.7944   -6172580.58249  -4798713.28546                  23836841.6284
        42.5004         24.5004
  24367104.1934   -3401070.32449  -2644051.49646                  24367102.6584
        42.7504         21.7504
 04  7 14 19 30  0.0000000  0  9G23G11G14G15G19G22G25G 1G20
  23884503.6004   -7211279.52749  -5614234.76647                  23884501.8484
        42.5004         28.0004
  21763146.2264   -7168285.38749  -5562504.18747                  21763143.5604
        45.2504         36.7504
  21998981.6914    2323385.79349   1800237.81647                  21998980.0284
        48.0004         35.0004
  24149291.5164    6062727.80549   4701548.12546                  24149293.3164
        40.0004         20.0004
  24248289.0994    2930715.26649   2271761.46946                  24248288.1864
        42.2504         24.2504
  23609926.9314    2290153.68049   1774034.41847                  23609924.5194
        45.0004         28.0004
  21039910.1354   -7289861.69549  -5657111.80948                  21039908.1534
        45.7504         40.5004
  23826240.9224   -6228283.53949  -4842118.14547                  23826241.6914
        42.2504         26.2504
  24355836.5884   -3460284.41449  -2690192.36346                  24355834.1094
        42.0004         21.7504
 04  7 14 19 30 15.0000000  0  9G23G11G14G15G19G22G25G 1G20
  23873459.0544   -7269321.14849  -5659461.96147                  23873456.2524
        43.7504         27.5004
  21756318.3414   -7204163.58649  -5590461.22747                  21756315.6534
        45.2504         37.0004
  22002533.0794    2342048.92649   1814780.48447                  22002531.2314
        48.5004         35.7504
  24157275.8174    6104687.80549   4734244.14546                  24157277.6614
        40.5004         21.5004
  24252558.6774    2953152.03549   2289244.60246                  24252557.8044
        42.5004         22.5004
  23613296.4134    2307859.69949   1787831.27747                  23613294.5244
        44.7504         28.7504
  21032980.2134   -7326278.94949  -5685488.87548                  21032978.3484
        46.2504         40.0004
  23815651.1494   -6283934.44949  -4885482.43046                  23815652.1064
        42.2504         24.7504
  24344567.6494   -3519501.48849  -2736335.47346                  24344566.5884
        42.5004         21.5004
 04  7 14 19 30 30.0000000  0  9G23G11G14G15G19G22G25G 1G20
  23862423.5954   -7327315.11749  -5704652.03547                  23862420.6304
        44.5004         28.0004
  21749515.4944   -7239914.56649  -5618319.13347                  21749512.5664
        48.0004         36.7504
  22006091.7624    2360749.07049   1829352.00447                  22006090.3094
        49.2504         35.7504
  24165266.7274    6146676.82849   4766962.77346                  24165267.9144
        42.2504         21.2504
  24256833.2464    2975616.48049   2306749.30146                  24256833.1064
        41.2504         22.7504
  23616673.2144    2325606.10949   1801659.60547                  23616670.8114
        44.7504         28.7504
  21026074.9454   -7362566.91849  -5713765.20748                  21026072.8824
        49.0004         40.5004
  23805070.5034   -6339532.69949  -4928805.71547                  23805071.5484
        41.7504         26.5004
  24333297.9364   -3578720.92649  -2782480.45346                  24333296.2434
        41.0004         20.5004
 04  7 14 19 30 45.0000000  0  9G23G11G14G15G19G22G25G 1G20
  23851395.9564   -7385261.16049  -5749804.78147                  23851393.5084
        43.5004         28.5004
  21742736.8194   -7275537.97749  -5646077.63347                  21742734.1194
        50.5004         36.5004
  22009657.5574    2379486.14149   1843952.30147                  22009655.6294
        48.0004         35.5004
  24173262.1144    6188694.68849   4799703.88746                  24173263.9194
        41.7504         21.0004
  24261113.0484    2998108.41849   2324275.46546                  24261112.9544
        41.7504         24.0004
  23620058.0624    2343392.94949   1815519.44547                  23620056.2674
        43.0004         27.2504
  21019194.3094   -7398725.18449  -5741940.47348                  21019192.1234
        51.2504         40.2504
  23794500.5694   -6395078.25449  -4972087.92246                  23794501.7404
        42.2504         25.5004
  24322028.9454   -3637942.68749  -2828627.27046                  24322027.3444
        42.0004         21.0004
 04  7 14 19 31  0.0000000  0  9G23G11G14G15G19G22G25G 1G20
  23840378.4014   -7443158.49649  -5794919.53947                  23840375.9324
        42.7504         26.2504
  21735981.9524   -7311032.82849  -5673735.95747                  21735979.0854
        49.5004         36.7504
  22013230.0234    2398260.83649   1858581.91047                  22013227.8944
        47.5004         35.2504
  24181264.0974    6230741.97349   4832467.91446                  24181265.2734
        41.5004         20.5004
  24265399.1844    3020628.19149   2341823.24246                  24265398.3704
        42.7504         25.2504
  23623450.3194    2361221.06349   1829411.44547                  23623448.3144
        41.5004         27.0004
  21012337.9314   -7434752.82049  -5770013.94548                  21012336.5754
        50.5004         40.2504
  23783941.1084   -6450570.12549  -5015328.31646                  23783941.6324
        41.0004         25.5004
  24310759.1544   -3697165.77749  -2874775.10246                  24310757.6654
        41.0004         20.0004
 04  7 14 19 31 15.0000000  0  9G23G11G14G15G19G22G25G 1G20
  23829370.2144   -7501008.82449  -5839997.68447                  23829367.6654
        43.5004         26.2504
  21729251.7544   -7346400.69149  -5701295.33647                  21729249.1114
        46.5004         37.2504
  22016809.7054    2417071.21949   1873239.31647                  22016807.2394
        48.7504         34.7504
  24189271.5044    6272816.65649   4865253.28146                  24189272.0874
        42.5004         19.0004
  24269689.6474    3043173.62149   2359391.06347                  24269690.0324
        42.5004         26.0004
  23626851.3054    2379088.80149   1843334.32447                  23626848.3794
        45.7504         29.2504
  21005507.0694   -7470651.41049  -5797986.85948                  21005505.2994
        47.5004         40.5004
  23773390.9304   -6506010.03549  -5058528.21546                  23773391.8204
        42.5004         23.0004
  24299488.8254   -3756391.84449  -2920925.22746                  24299486.6834
        41.5004         18.2504
 04  7 14 19 31 30.0000000  0  9G23G11G14G15G19G22G25G 1G20
  23818370.4434   -7558810.18049  -5885037.68047                  23818368.3524
        44.5004         28.5004
  21722546.4364   -7381639.58249  -5728754.19547                  21722543.2094
        45.0004         37.2504
  22020396.3504    2435919.07049   1887925.95347                  22020393.9414
        49.0004         34.5004
  24197282.8134    6314920.28549   4898061.20746                  24197284.2434
        41.2504         18.2504
  24273985.3334    3065746.32049   2376980.12147                  24273985.4624
        42.2504         26.5004
  23630258.8814    2396998.02049   1857289.52747                  23630257.3464
        44.7504         28.0004
  20998700.9204   -7506418.99249  -5825857.69948                  20998698.8394
        46.0004         40.5004
  23762850.6614   -6561396.04349  -5101686.07846                  23762852.0754
        41.5004         23.2504
  24288218.1064   -3815618.78949  -2967076.11346                  24288215.3164
        41.5004         19.5004
 04  7 14 19 31 45.0000000  0  9G23G11G14G15G19G22G25G 1G20
  23807380.8024   -7616563.02349  -5930039.87147                  23807378.0884
        43.2504         27.2504
  21715864.4874   -7416749.78549  -5756112.80547                  21715861.7314
        45.7504         36.5004
  22023989.5154    2454803.44549   1902641.04347                  22023987.9734
        48.5004         35.0004
  24205300.5644    6357052.12149   4930891.13746                  24205301.1614
        41.0004         17.7504
  24278285.2864    3088345.38749   2394589.72346                  24278286.1504
        41.0004         24.7504
  23633674.9984    2414948.27749   1871276.71947                  23633672.3664
        44.2504         26.2504
  20991919.2164   -7542055.91049  -5853626.71548                  20991917.6514
        46.7504         40.7504
  23752321.8224   -6616728.59849  -5144802.33246                  23752323.1044
        42.5004         25.5004
  24276947.4604   -3874847.19149  -3013228.05946                  24276945.2064
        42.5004         21.0004
 04  7 14 19 32  0.0000000  0  9G23G11G14G15G19G22G25G 1G20
  23796400.3464   -7674267.72349  -5975004.52047                  23796397.2314
        44.5004         28.2504
  21709208.1674   -7451731.55549  -5783371.31247                  21709205.2764
        48.7504         36.7504
  22027590.4494    2473723.77749   1917384.13347                  22027588.5754
        48.7504         34.5004
  24213323.0704    6399211.37949   4963742.42246                  24213323.8964
        41.5004         19.0004
  24282590.8684    3110969.89549   2412219.12946                  24282590.5874
        41.5004         24.5004
  23637098.5904    2432939.02049   1885295.43847                  23637095.3624
        44.7504         27.5004
  20985162.5004   -7577562.55949  -5881294.22748                  20985160.6944
        50.0004         40.5004
  23741802.6984   -6672008.10249  -5187877.25047                  23741803.3624
        43.0004         25.7504
  24265676.1764   -3934077.30149  -3059381.35546                  24265674.8844
        42.7504         20.0004
 04  7 14 19 32 15.0000000  0  9G23G11G14G15G19G22G25G 1G20
  23785428.2964   -7731923.52049  -6019931.09847                  23785426.6944
        43.5004         26.5004
  21702575.9684   -7486584.29349  -5810529.28947                  21702573.2914
        51.7504         37.0004
  22031197.2354    2492680.48449   1932155.57047                  22031196.1684
        48.5004         34.7504
  24221350.2734    6441398.29749   4996615.25446                  24221352.9064
        42.5004         19.0004
  24286900.5044    3133620.06349   2429868.55946                  24286900.5434
        41.0004         25.5004
  23640529.3724    2450970.73849   1899346.11747                  23640527.4554
        45.0004         29.0004
  20978430.8424   -7612937.94949  -5908859.45348                  20978429.1314
        52.0004         40.5004
  23731293.6974   -6727234.00849  -5230910.38346                  23731294.3804
        42.5004         25.2504
  24254405.0084   -3993308.53149  -3105535.56246                  24254403.4284
        43.2504         21.0004
 04  7 14 19 32 30.0000000  0  9G23G11G14G15G19G22G25G 1G20
  23774465.6244   -7789530.50849  -6064819.67647                  23774462.7454
        43.5004         27.0004
  21695968.3124   -7521307.84049  -5837586.59847                  21695965.1914
        51.2504         37.5004
  22034811.9304    2511673.27349   1946955.13347                  22034809.5164
        49.0004         34.7504
  24229384.3824    6483612.53549   5029509.37946                  24229385.5914
        43.5004         20.0004
  24291215.7574    3156295.46949   2447537.61747                  24291215.8974
        41.5004         26.2504
  23643968.6664    2469043.57849   1913428.80147                  23643966.8184
        44.5004         28.0004
  20971724.0454   -7648182.18449  -5936322.48048                  20971722.2084
        52.2504         40.0004
  23720794.6284   -6782406.27749  -5273901.71946                  23720795.0564
        43.2504         24.7504
  24243133.3504   -4052540.79349  -3151690.55946                  24243131.5244
        42.7504         21.7504
 04  7 14 19 32 45.0000000  0  9G23G11G14G15G19G22G25G 1G20
  23763512.7454   -7847090.09849  -6109671.27347                  23763509.9694
        44.0004         27.7504
  21689384.7684   -7555903.48849  -5864544.25047                  21689382.7114
        51.5004         36.7504
  22038432.5134    2530700.42249   1961781.46547                  22038430.2734
        47.5004         34.5004
  24237422.6904    6525852.26649   5062423.35946                  24237423.9694
        43.5004         21.7504
  24295534.9614    3178994.27049   2465224.94947                  24295535.1084
        40.7504         26.0004
  23647415.6444    2487155.94549   1927542.27747                  23647413.8104
        43.7504         28.2504
  20965041.7834   -7683296.54349  -5963684.31248                  20965040.1664
        52.0004         40.5004
  23710305.8664   -6837526.33649  -5316852.37546                  23710306.8054
        44.2504         25.5004
  24231861.3504   -4111775.60949  -3197847.48446                  24231860.4314
        43.2504         22.0004
 04  7 14 19 33  0.0000000  0  9G23G11G14G15G19G22G25G 1G20
  23752568.9524   -7904601.16849  -6154485.05947                  23752566.1644
        44.7504         27.0004
  21682825.5044   -7590370.08649  -5891401.33647                  21682823.0334
        51.0004         37.0004
  22042060.0344    2549762.77349   1976635.24247                  22042057.9854
        46.5004         35.0004
  24245465.8164    6568118.30549   5095357.82846                  24245467.5104
        43.5004         21.7504
  24299859.6114    3201717.17649   2482931.05546                  24299859.6214
        41.7504         25.5004
  23650870.6224    2505308.88749   1941687.39547                  23650867.7064
        41.5004         26.0004
  20958385.1584   -7718279.95349  -5990944.10548                  20958382.8334
        51.5004         40.7504
  23699826.3734   -6892593.13349  -5359761.53946                  23699827.2024
        43.0004         24.7504
  24220588.6074   -4171011.62549  -3244005.42246                  24220588.3634
        43.0004         22.2504
 04  7 14 19 33 15.0000000  0  9G23G11G14G15G19G22G25G 1G20
  23741634.3664   -7962063.27349  -6199260.69947                  23741631.7054
        44.0004         27.5004
  21676291.8944   -7624706.96149  -5918157.35247                  21676289.3784
        51.2504         37.7504
  22045694.3334    2568860.67249   1991516.70347                  22045692.2644
        48.0004         35.0004
  24253513.1894    6610410.69949   5128312.84846                  24253515.3954
        43.7504         22.2504
  24304188.3764    3224464.21549   2500655.93446                  24304188.6284
        41.0004         24.0004
  23654332.5764    2523502.94549   1955864.56347                  23654330.3054
        44.0004         28.0004
  20951752.9614   -7753131.80549  -6018101.39148                  20951751.1694
        51.7504         41.0004
  23689358.0384   -6947606.09449  -5402628.75046                  23689358.0664
        43.7504         25.2504
  24209317.1874   -4230248.48449  -3290163.97746                  24209315.8364
        42.5004         22.5004
 04  7 14 19 33 30.0000000  0  9G23G11G14G15G19G22G25G 1G20
  23730708.7724   -8019476.23849  -6243998.03947                  23730706.4564
        43.5004         27.0004
  21669782.4934   -7658913.81649  -5944812.04347                  21669780.0604
        51.5004         37.5004
  22049335.1204    2587993.95749   2006425.73847                  22049333.4394
        48.5004         34.7504
  24261566.3314    6652729.32449   5161288.28146                  24261569.0614
        43.0004         21.5004
  24308521.4764    3247235.11349   2518399.41846                  24308521.3274
        40.5004         22.5004
  23657802.3394    2541738.28949   1970073.87147                  23657800.4874
        44.0004         28.5004
  20945145.9564   -7787851.85249  -6045155.95748                  20945143.7574
        51.2504         41.0004
  23678899.3394   -7002565.07849  -5445453.88746                  23678900.8444
        42.2504         25.0004
  24198044.5684   -4289485.90249  -3336322.98446                  24198042.9994
        43.2504         22.5004
 04  7 14 19 33 45.0000000  0  9G23G11G14G15G19G22G25G 1G20
  23719792.7474   -8076840.33249  -6288697.31247                  23719790.6564
        44.0004         27.7504
  21663297.8444   -7692990.89849  -5971365.61347                  21663295.2264
        51.0004         37.2504
  22052982.8464    2607162.09449   2021361.94147                  22052980.4424
        46.7504         33.5004
  24269623.8424    6695073.41049   5194283.58646                  24269626.6534
        42.0004         21.5004
  24312859.3064    3270029.04749   2536160.87147                  24312858.8974
        42.0004         25.7504
  23661280.5404    2560014.40249   1984314.96947                  23661277.6594
        41.2504         27.7504
  20938564.0314   -7822440.32049  -6072108.00048                  20938561.8144
        52.0004         40.5004
  23668451.9344   -7057470.48449  -5488237.28547                  23668452.1764
        43.2504         27.2504
  24186771.1584   -4348724.18449  -3382482.61746                  24186770.5364
        43.0004         23.2504
 04  7 14 19 34  0.0000000  0  9G23G11G14G15G19G22G25G 1G20
  23708885.7834   -8134156.88349  -6333359.52047                  23708883.4534
        44.2504         27.2504
  21656837.6974   -7726939.37549  -5997818.97347                  21656835.1754
        50.7504         37.5004
  22056637.0804    2626363.52349   2036324.06647                  22056634.0804
        46.0004         35.0004
  24277686.6034    6737441.30149   5227297.43046                  24277689.2364
        40.7504         20.0004
  24317200.8044    3292844.36349   2553938.98847                  24317199.8134
        41.5004         25.7504
  23664765.8374    2578330.07849   1998586.87947                  23664763.3194
        40.7504         27.7504
  20932006.8134   -7856898.41849  -6098958.46148                  20932004.5264
        51.7504         40.7504
  23658013.4654   -7112323.59449  -5530979.93746                  23658013.6894
        44.5004         25.2504
  24175497.8464   -4407964.60949  -3428643.99646                  24175496.7554
        43.2504         22.7504
 04  7 14 19 34 15.0000000  0  9G23G11G14G15G19G22G25G 1G20
  23697988.2374   -8191424.13749  -6377983.32847                  23697985.7194
        43.2504         28.0004
  21650402.6254   -7760757.42249  -6024170.69947                  21650399.7094
        50.5004         37.5004
  22060297.4594    2645599.64849   2051313.24247                  22060295.6274
        47.0004         34.7504
  24285753.5784    6779834.50049   5260330.98846                  24285755.4734
        40.2504         20.0004
  24321546.4094    3315682.33649   2571734.73846                  24321546.5614
        42.0004         25.2504
  23668258.9304    2596686.84049   2012890.81347                  23668256.3474
        40.5004         27.0004
  20925474.6254   -7891224.35549  -6125705.93048                  20925472.6794
        51.7504         41.5004
  23647586.1114   -7167122.64849  -5573680.46546                  23647585.6264
        44.7504         25.5004
  24164225.5224   -4467205.35949  -3474805.58246                  24164223.9394
        44.0004         22.7504
 04  7 14 19 34 30.0000000  0  9G23G11G14G15G19G22G25G 1G20
  23687099.6324   -8248642.32849  -6422568.89547                  23687097.1654
        42.7504         27.0004
  21643991.7694   -7794445.28549  -6050420.98047                  21643989.4324
        51.0004         37.7504
  22063964.5944    2664870.10249   2066329.16047                  22063963.0164
        47.5004         35.2504
  24293825.2794    6822252.40249   5293383.81646                  24293827.1484
        40.5004         19.2504
  24325897.1964    3338542.31349   2589547.64846                  24325896.7954
        43.5004         24.7504
  23671760.2494    2615084.49249   2027226.62547                  23671757.5684
        43.0004         28.0004
  20918967.8684   -7925418.24649  -6152350.51648                  20918965.8534
        51.7504         40.5004
  23637167.6404   -7221867.95349  -5616339.10946                  23637167.7074
        43.0004         24.7504
  24152951.8794   -4526446.63749  -3520967.60546                  24152951.3954
        43.7504         25.0004
 04  7 14 19 34 45.0000000  0  9G23G11G14G15G19G22G25G 1G20
  23676220.9954   -8305812.18049  -6467116.78547                  23676218.4714
        44.7504         28.0004
  21637605.7764   -7828003.48849  -6076570.23847                  21637603.5004
        51.2504         37.7504
  22067637.6264    2684173.82449   2081370.99247                  22067635.9024
        48.2504         33.7504
  24301902.1974    6864693.92649   5326455.03146                  24301904.5594
        40.5004         20.0004
  24330251.6884    3361423.12949   2607376.80547                  24330250.9444
        42.5004         25.7504
  23675268.5884    2633522.13349   2041593.57047                  23675266.8634
        44.0004         26.7504
  20912486.0274   -7959480.96549  -6178892.87948                  20912483.9824
        52.5004         40.7504
  23626759.8424   -7276560.25849  -5658956.44147                  23626760.7184
        43.2504         25.7504
  24141678.5354   -4585689.25849  -3567130.66046                  24141677.8294
        44.2504         25.2504
 04  7 14 19 35  0.0000000  0  9G23G11G14G15G19G22G25G 1G20
  23665350.7034   -8362933.18449  -6511626.63747                  23665347.8434
        45.0004         26.5004
  21631244.7114   -7861431.60549  -6102618.11747                  21631242.0354
        51.0004         37.5004
  22071317.9854    2703511.03549   2096438.93447                  22071315.0724
        49.2504         34.5004
  24309983.3404    6907159.13749   5359544.68046                  24309985.5764
        40.5004         19.5004
  24334609.7774    3384324.76649   2625222.14546                  24334608.6254
        42.5004         25.0004
  23678785.3714    2652000.30949   2055992.10247                  23678782.0494
        45.2504         28.5004
  20906029.0034   -7993411.89149  -6205332.55948                  20906026.7904
        51.5004         41.0004
  23616362.8814   -7331199.02749  -5701532.07047                  23616363.5954
        44.2504         26.5004
  24130404.5694   -4644932.55549  -3613294.23846                  24130404.3744
        42.5004         24.5004
 04  7 14 19 35 15.0000000  0  9G23G11G14G15G19G22G25G 1G20
  23654489.3334   -8420006.31249  -6556099.16447                  23654487.5634
        43.5004         28.2504
  21624908.5884   -7894730.37549  -6128565.21547                  21624905.5654
        51.5004         37.5004
  22075003.9404    2722880.48849   2111532.00447                  22075001.0904
        49.2504         34.0004
  24318068.1844    6949646.64549   5392651.75446                  24318070.4674
        39.2504         21.0004
  24338970.9004    3407245.75849   2643082.58647                  24338971.1824
        42.5004         26.2504
  23682308.3734    2670517.93449   2070421.39547                  23682306.3094
        45.2504         26.2504
  20899597.0834   -8027211.88349  -6231670.20348                  20899595.0194
        51.7504         41.0004
  23605975.0474   -7385785.23449  -5744066.76647                  23605976.4784
        43.7504         26.7504
  24119131.0014   -4704177.50049  -3659459.08647                  24119130.0014
        42.7504         26.7504
 04  7 14 19 35 30.0000000  0  9G23G11G14G15G19G22G25G 1G20
  23643638.3184   -8477032.35549  -6600535.00047                  23643635.2984
        44.0004         26.7504
  21618596.3014   -7927900.48449  -6154412.03947                  21618593.0524
        50.5004         37.7504
  22078695.7164    2742281.31349   2126649.50047                  22078692.8334
        49.5004         34.2504
  24326156.4294    6992155.46949   5425775.39846                  24326159.6044
        38.0004         21.0004
  24343336.4234    3430185.13749   2660957.37147                  24343336.0504
        43.0004         26.2504
  23685840.1404    2689074.25849   2084880.82047                  23685838.4504
        44.7504         28.0004
  20893190.1184   -8060881.45749  -6257906.21948                  20893188.0034
        51.2504         41.0004
  23595597.7294   -7440319.62949  -5786561.07047                  23595597.7874
        44.5004         26.0004
  24107856.2134   -4763424.81649  -3705625.80147                  24107855.6594
        44.2504         26.5004
 04  7 14 19 35 45.0000000  0  9G23G11G14G15G19G22G25G 1G20
  23632796.2534   -8534008.93749  -6644932.29747                  23632793.0364
        43.0004         26.7504
  21612308.8444   -7960939.38749  -6180156.64847                  21612306.3044
        50.7504         37.2504
  22082393.6884    2761715.52049   2141793.01647                  22082391.6144
        48.7504         34.0004
  24334250.6304    7034687.55149   5458917.15246                  24334253.7784
        36.5004         20.5004
  24347705.4184    3453144.81349   2678847.93847                  24347705.1424
        42.5004         25.7504
  23689378.0814    2707671.71949   2099372.29747                  23689376.5734
        43.5004         26.5004
  20886808.1304   -8094418.39849  -6284038.90648                  20886806.2524
        52.0004         40.7504
  23585229.7954   -7494799.88349  -5829013.18047                  23585230.5434
        44.7504         26.7504
  24096581.8444   -4822672.14849  -3751792.50046                  24096581.2034
        44.2504         25.5004
 04  7 14 19 36  0.0000000  0  9G23G11G14G15G19G22G25G 1G20
  23621963.0264   -8590936.14549  -6689291.15247                  23621960.3654
        42.7504         28.0004
  21606047.0844   -7993847.25449  -6205799.12947                  21606044.6274
        50.7504         37.0004
  22086098.6414    2781182.75449   2156962.27047                  22086095.6804
        47.2504         34.5004
  24342347.5264    7077242.44148   5492076.69546                  24342351.9264
        32.5004         17.7504
  24352078.0864    3476124.07849   2696753.81346                  24352077.8594
        42.2504         24.7504
  23692925.5684    2726310.00049   2113895.60547                  23692923.8254
        40.7504         27.7504
  20880451.4804   -8127822.74649  -6310068.25048                  20880449.6324
        51.5004         41.7504
  23574873.2974   -7549226.14549  -5871423.24247                  23574873.6884
        44.0004         26.0004
  24085308.5244   -4881919.62149  -3797959.35946                  24085306.0394
        44.5004         25.2504
 04  7 14 19 36 15.0000000  0  8G23G11G14G19G22G25G 1G20
  23611139.4444   -8647815.55149  -6733612.71147                  23611137.0304
        44.2504         26.0004
  21599809.5164   -8026625.36349  -6231340.52347                  21599806.7944
        49.5004         38.0004
  22089808.4344    2800681.33249   2172155.96547                  22089805.7984
        48.2504         35.0004
  24356454.4744    3499121.09449   2714673.50847                  24356453.9234
        42.7504         27.2504
  23696480.2464    2744987.61349   2128449.53947                  23696477.6354
        41.7504         28.0004
  20874119.7404   -8161095.84049  -6335995.33648                  20874118.0214
        50.7504         40.7504
  23564525.8034   -7603599.82849  -5913792.32446                  23564527.0904
        44.0004         25.2504
  24074032.9064   -4941168.56249  -3844127.33246                  24074031.2514
        44.2504         25.0004
 04  7 14 19 36 30.0000000  0  9G23G11G14G15G19G22G25G 1G20
  23600324.5244   -8704645.52349  -6777895.77747                  23600322.1104
        43.5004         26.7504
  21593596.9434   -8059272.13349  -6256779.55947                  21593594.7844
        46.5004         37.5004
  22093525.4674    2820212.57049   2187375.08647                  22093522.7714
        48.7504         34.5004
  24358557.5594
        32.0004
  24360834.4804    3522137.00849   2732607.88747                  24360834.7994
        42.2504         27.5004
  23700041.6844    2763706.06349   2143035.32047                  23700039.7394
        43.7504         27.5004
  20867813.4274   -8194236.03149  -6361818.85248                  20867811.6314
        48.0004         41.0004
  23554189.5794   -7657919.51649  -5956119.31647                  23554190.3624
        44.2504         28.0004
  24062757.9354   -5000417.38349  -3890295.22746                  24062757.6374
        43.7504         25.0004
 04  7 14 19 36 45.0000000  0  9G23G11G14G15G19G22G25G 1G20
  23589520.0824   -8761425.55549  -6822139.91847                  23589517.7474
        43.2504         27.0004
  21587409.4844   -8091787.21949  -6282115.99647                  21587406.9384
        45.7504         37.5004
  22097248.3794    2839776.47749   2202619.67647                  22097246.1624
        49.2504         34.2504
  24366667.9714    7205031.53948
        35.5004
  24365217.7194    3545171.69149   2750556.92646                  24365217.9724
        42.5004         25.0004
  23703612.0094    2782465.57049   2157653.07847                  23703609.9724
        43.7504         27.0004
  20861532.4974   -8227242.93449  -6387538.50848                  20861530.5894
        46.0004         41.0004
  23543863.1974   -7712184.77749  -5998403.90647                  23543864.1264
        43.5004         26.5004
  24051483.5694   -5059665.59049  -3936462.62946                  24051482.5214
        42.7504         23.5004
 04  7 14 19 37  0.0000000  0  9G23G11G14G15G19G22G25G 1G20
  23578724.4904   -8818158.96149  -6866347.72747                  23578721.1464
        44.0004         28.0004
  21581246.4194   -8124173.53949  -6307352.07847                  21581243.4734
        45.0004         37.0004
  22100976.8904    2859369.76249   2217887.15247                  22100974.4934
        50.0004         34.0004
  24374782.2434    7247670.25449   5624877.74656                  24374783.6144
        36.2504         21.5004
  24369604.2214    3568221.60549   2768517.87547                  24369603.4934
        43.5004         26.7504
  23707188.5254    2801262.96949   2172300.35247                  23707187.5434
        44.2504         27.0004
  20855275.7474   -8260119.77049  -6413156.81648                  20855274.3594
        46.5004         41.0004
  23533546.5204   -7766398.75049  -6040648.50846                  23533547.6564
        44.2504         25.5004
  24040208.8524   -5118916.44949  -3982632.09447                  24040207.4134
        43.2504         26.2504
 04  7 14 19 37 15.0000000  0  9G23G11G14G15G19G22G25G 1G20
  23567936.5484   -8874847.55949  -6910520.62147                  23567934.3084
        42.5004         27.5004
  21575108.0254   -8156432.92649  -6332489.27747                  21575105.4724
        48.2504         38.0004
  22104710.4354    2878990.30549   2233175.87547                  22104708.4414
        49.2504         35.0004
  24382898.8364    7290325.32049   5658115.33246                  24382901.4424
        39.7504         21.0004
  24373992.5784    3591284.40249   2786488.84447                  24373992.4544
        42.7504         26.7504
  23710772.7714    2820096.40249   2186975.70747                  23710770.9574
        42.5004         25.7504
  20849044.1684   -8292868.35249  -6438675.18048                  20849042.3834
        48.5004         41.2504
  23523239.5424   -7820563.35249  -6082854.65647                  23523240.5664
        43.5004         27.0004
  24028932.4394   -5178171.65249  -4028804.95346                  24028931.6424
        43.0004         24.0004
 04  7 14 19 37 30.0000000  0  9G23G11G14G15G19G22G25G 1G20
  23557157.2734   -8931491.49249  -6954658.71147                  23557155.7874
        42.7504         28.0004
  21568993.2224   -8188565.40249  -6357527.55947                  21568990.6694
        50.0004         37.5004
  22108449.3074    2898637.73049   2248485.53947                  22108446.7084
        47.7504         34.0004
  24391018.8744    7332996.36349   5691365.43046                  24391021.8514
        40.2504         20.5004
  24378383.9724    3614359.65249   2804469.47347                  24378383.5274
        42.5004         26.7504
  23714362.8024    2838965.63749   2201678.96947                  23714361.1004
        39.7504         27.0004
  20842837.0804   -8325488.48449  -6464093.45748                  20842834.9684
        51.2504         41.0004
  23512942.0094   -7874678.75449  -6125022.48047                  23512942.3474
        44.2504         25.7504
  24017655.8294   -5237431.35949  -4074981.31646                  24017655.0064
        41.5004         24.5004
 04  7 14 19 37 45.0000000  0  9G23G11G14G15G19G22G25G 1G20
  23546386.2824   -8988093.85249  -6998764.39147                  23546383.6904
        43.0004         28.2504
  21562902.3224   -8220573.95349  -6382469.29347                  21562899.9794
        50.0004         38.0004
  22112192.4924    2918308.68849   2263813.54747                  22112190.3004
        48.5004         33.7504
  24399142.2884    7375679.84849   5724625.14846                  24399144.0864
        41.0004         19.5004
  24382776.4354    3637443.68449   2822456.93847                  24382776.0414
        41.7504         26.2504
  23717960.6734    2857867.46149   2216407.62547                  23717957.5694
        42.0004         27.0004
  20836653.4474   -8357983.42649  -6489414.19148                  20836651.7314
        51.7504         41.2504
  23502652.4864   -7928748.04749  -6167154.33247                  23502653.4844
        45.2504         26.5004
  24006377.1664   -5296698.60949  -4121163.54746                  24006376.8044
        42.2504         24.7504
 04  7 14 19 38  0.0000000  0  9G23G11G14G15G19G22G25G 1G20
  23535623.8504   -9044652.39849  -7042835.93447                  23535621.2194
        44.5004         27.2504
  21556835.0784   -8252456.35949  -6407312.72347                  21556832.8494
        47.5004         37.5004
  22115940.9634    2938005.10549   2279161.37547                  22115937.9534
        49.5004         34.0004
  24407267.2694    7418377.68049   5757896.18046                  24407269.1054
        40.7504         18.5004
  24387171.8474    3660538.29349   2840452.68046                  24387171.1324
        42.5004         23.2504
  23721564.2464    2876804.16849   2231163.46547                  23721562.3434
        44.5004         27.2504
  20830493.9964   -8390350.77749  -6514635.48848                  20830492.1044
        48.5004         41.5004
  23492372.5054   -7982769.03949  -6209248.58647                  23492373.8224
        44.0004         26.7504
  23995098.1384   -5355971.11749  -4167349.87946                  23995097.0604
        42.2504         23.5004
 04  7 14 19 38 15.0000000  0  9G23G11G14G15G19G22G25G 1G20
  23524869.1424   -9101167.57449  -7086873.70347                  23524866.3944
        44.0004         27.7504
  21550791.9634   -8284212.84849  -6432058.03947                  21550789.4594
        45.5004         37.5004
  22119693.8774    2957726.34049   2294528.55147                  22119690.6744
        48.0004         34.0004
  24415395.0624    7461089.10949   5791177.80546                  24415396.4674
        39.5004         16.2504
  24391568.1174    3683642.74649   2858456.07846                  24391567.9944
        42.5004         24.0004
  23725173.7754    2895775.28949   2245946.10247                  23725172.5194
        42.7504         26.5004
  20824358.9504   -8422590.99649  -6539757.73448                  20824357.1114
        46.5004         41.5004
  23482101.7034   -8036742.15649  -6251305.50447                  23482102.6234
        45.0004         26.0004
  23983817.9944   -5415249.20349  -4213540.59046                  23983817.0024
        42.2504         23.0004
 04  7 14 19 38 30.0000000  0  9G23G11G14G15G19G22G25G 1G20
  23514123.3014   -9157634.82849  -7130874.10247                  23514120.6024
        42.5004         28.2504
  21544774.2724   -8315838.78949  -6456701.63747                  21544771.5674
        45.0004         37.2504
  22123451.9944    2977476.78549   2309918.49247                  22123449.8734
        47.5004         34.0004
  24423526.1194    7503818.27749   5824473.26646                  24423527.3834
        39.2504         17.5004
  24395967.2704    3706761.04349   2876470.28946                  24395967.3324
        42.5004         23.0004
  23728791.4924    2914785.23049   2260759.02747                  23728789.5654
        40.0004         26.2504
  20818248.9334   -8454699.41849  -6564777.27048                  20818246.8454
        46.5004         41.0004
  23471841.2384   -8090662.94149  -6293321.66447                  23471842.4794
        44.7504         27.0004
  23972537.0804   -5474528.35249  -4259732.10546                  23972536.2304
        41.0004         24.0004
 04  7 14 19 38 45.0000000  0  9G23G11G14G15G19G22G25G 1G20
  23503387.0874   -9214055.02049  -7174837.84847                  23503384.1564
        43.5004         28.5004
  21538780.4874   -8347334.94549  -6481244.09447                  21538777.5344
        46.7504         37.5004
  22127215.1084    2997255.18849   2325330.22747                  22127212.8284
        48.5004         34.0004
  24431660.0864    7546564.04348   5857781.59046                  24431661.9474
        35.5004         17.7504
  24400369.1964    3729891.85549   2894494.25446                  24400368.9464
        44.0004         23.2504
  23732416.2914    2933833.07049   2275601.44147                  23732413.9644
        42.0004         27.0004
  20812163.6854   -8486676.97349  -6589694.84048                  20812161.8214
        47.5004         41.0004
  23461590.0424   -8144532.22349  -6335297.69547                  23461591.1454
        43.5004         26.0004
  23961256.3434   -5533809.38749  -4305925.05546                  23961255.7164
        41.7504         22.2504
 04  7 14 19 39  0.0000000  0  9G23G11G14G15G19G22G25G 1G20
  23492659.2444   -9270428.62949  -7218765.28147                  23492656.9454
        44.0004         28.7504
  21532811.1644   -8378701.95749  -6505685.91847                  21532808.7324
        48.7504         37.0004
  22130984.3644    3017060.95749   2340763.28147                  22130982.3064
        49.2504         34.0004
  24439798.6844    7589325.56648   5891102.13746                  24439800.0434
        35.2504         17.7504
  24404773.1624    3753034.28149   2912527.25046                  24404772.6814
        43.0004         22.5004
  23736047.8394    2952918.27349   2290472.99247                  23736045.9594
        43.5004         25.7504
  20806103.7054   -8518524.10949  -6614510.78948                  20806101.4554
        49.5004         41.2504
  23451348.7154   -8198350.54349  -6377233.99247                  23451349.4044
        44.2504         27.2504
  23949974.4794   -5593092.75049  -4352119.84046                  23949974.0264
        40.5004         22.2504
 04  7 14 19 39 15.0000000  0  9G23G11G14G15G19G22G25G 1G20
  23481941.6274   -9326753.43049  -7262654.68447                  23481938.8194
        44.0004         29.2504
  21526867.7654   -8409937.28549  -6530025.13747                  21526865.5664
        51.0004         37.5004
  22134758.7354    3036896.07849   2356219.19947                  22134756.7214
        49.2504         34.2504
  24447937.9124                                                   24447940.3374
        27.5004         15.5004
  24409179.7064    3776190.25849   2930570.79746                  24409179.1724
        42.5004         22.2504
  23739686.7584    2972043.24249   2305375.52746                  23739685.3054
        43.2504         25.5004
  20800068.6034   -8550238.28149  -6639223.12148                  20800066.4174
        52.2504         41.2504
  23441118.0184   -8252115.57449  -6419128.78947                  23441117.8874
        44.0004         26.0004
  23938693.9524   -5652376.04749  -4398314.60246                  23938693.1014
        40.5004         22.2504
 04  7 14 19 39 30.0000000  0  8G23G11G14G19G22G25G 1G20
  23471233.2634   -9383027.87949  -7306504.84047                  23471230.5724
        44.5004         29.2504
  21520948.9764   -8441039.19949  -6554260.39847                  21520946.3054
        48.2504         37.2504
  22138539.3524    3056761.79349   2371698.96147                  22138537.4384
        48.5004         33.7504
  24413588.8184    3799360.90249   2948625.77046                  24413587.8814
        42.5004         23.5004
  23743334.3234    2991209.32449   2320310.08247                  23743332.7194
        43.7504         25.7504
  20794059.0304   -8581817.95349  -6663830.65648                  20794057.0594
        50.0004         41.0004
  23430896.8394   -8305825.69549  -6460980.79747                  23430897.1454
        44.7504         26.7504
  23927413.1174   -5711657.72749  -4444508.07446                  23927412.1974
        42.2504         22.5004
 04  7 14 19 39 45.0000000  0  8G23G11G14G19G22G25G 1G20
  23460533.5914   -9439250.90649  -7350314.94147                  23460530.8214
        44.0004         28.2504
  21515056.3054   -8472006.74649  -6578390.94947                  21515053.7384
        46.0004         37.7504
  22142325.3774    3076658.95749   2387203.23047                  22142323.2834
        48.7504         33.5004
  24418000.8914    3822546.76249   2966692.62946                  24417999.9964
        42.2504         22.5004
  23746989.6974    3010417.36749   2335277.35946                  23746987.5004
        42.0004         25.0004
  20788075.3454   -8613262.33249  -6688332.75848                  20788073.5874
        47.2504         41.0004
  23420686.3204   -8359480.05949  -6502789.32447                  23420686.9104
        45.0004         28.0004
  23916132.9364   -5770936.66449  -4490699.43746                  23916131.6514
        43.5004         22.5004
 04  7 14 19 40  0.0000000  0  9G23G11G14G15G19G22G25G 1G20
  23449844.7604   -9495423.70749  -7394085.89547                  23449842.0804
        44.7504         29.7504
  21509188.7474   -8502841.06249  -6602417.69947                  21509186.1634
        45.0004         37.5004
  22146117.5784    3096586.12149   2402730.86747                  22146115.1864
        47.0004         34.0004
  24472382.9044      33715.64558
        35.5004
  24422415.8804    3845746.32449   2984770.14546                  24422414.8714
        42.5004         22.5004
  23750652.5024    3029666.31649   2350276.50047                  23750650.6874
        40.5004         25.7504
  20782117.2854   -8644572.37149  -6712730.18048                  20782115.3494
        46.5004         42.0004
  23410487.2224   -8413079.76249  -6544555.28547                  23410487.2644
        45.2504         27.0004
  23904852.8144   -5830213.96949  -4536889.53946                  23904851.9564
        42.5004         25.5004
 04  7 14 19 40 15.0000000  0  9G23G11G14G15G19G22G25G 1G20
  23439165.4834   -9551544.50049  -7437816.34847                  23439162.5904
        44.0004         30.0004
  21503346.9274   -8533540.37549  -6626339.22747                  21503343.7234
        48.2504         38.0004
  22149915.4524    3116544.81649   2418283.08247                  22149913.8684
        48.0004         33.7504
  24480537.2504      76570.16849   5980072.29356                  24480539.2334
        36.2504         21.0004
  24426834.0594    3868960.82049   3002859.29746                  24426832.8464
        43.0004         23.5004
  23754322.7134    3048957.80149   2365308.78146                  23754321.9444
        39.2504         24.5004
  20776184.9224   -8675746.30149  -6737021.55548                  20776182.9254
        49.2504         41.5004
  23400297.7164   -8466623.07049  -6586277.31647                  23400298.4654
        44.7504         28.0004
  23893572.9194   -5889487.96949  -4583077.00046                  23893571.9244
        42.5004         22.2504
 04  7 14 19 40 30.0000000  0  9G23G11G14G15G19G22G25G 1G20
  23428495.4294   -9607613.05949  -7481506.06647                  23428492.4214
        45.0004         29.5004
  21497530.4544   -8564104.14849  -6650155.16847                  21497528.1594
        50.2504         38.0004
  22153719.8164    3136535.16049   2433859.93447                  22153717.6624
        48.2504         33.2504
  24488696.0114     119443.97349   6013480.31646                  24488698.3304
        38.7504         21.2504
  24431254.0664    3892190.15649   3020960.02046                  24431253.5714
        41.2504         22.2504
  23758002.9884    3068292.08649   2380374.40646                  23758001.1004
        43.0004         25.2504
  20770278.8184   -8706783.74249  -6761206.56648                  20770277.1834
        52.0004         41.0004
  23390119.7834   -8520109.80149  -6627955.22747                  23390120.6684
        44.2504         27.5004
  23882294.3174   -5948758.19549  -4629261.55946                  23882292.8874
        42.5004         22.2504
 04  7 14 19 40 45.0000000  0  9G23G11G14G15G19G22G25G 1G20
  23417835.8284   -9663630.56249  -7525156.03547                  23417832.6944
        44.7504         29.5004
  21491740.0374   -8594533.79349  -6673866.57447                  21491737.4154
        45.5004         38.0004
  22157529.6534    3156555.44149   2449460.15247                  22157527.1224
        46.5004         33.7504
  24496858.4624     162335.35249   6046902.04346                  24496860.5984
        39.7504         20.5004
  24435676.2614    3915432.62549   3039070.96146                  24435677.3594
        41.0004         21.7504
  23761689.8874    3087667.84049   2395472.37147                  23761688.1224
        40.2504         25.7504
  20764398.3434   -8737685.91849  -6785286.18048                  20764396.5404
        46.5004         41.5004
  23379952.1884   -8573541.21949  -6669590.05547                  23379952.4314
        45.0004         26.2504
  23871016.2814   -6008025.88749  -4675444.18446                  23871014.1174
        43.5004         22.5004
 04  7 14 19 41  0.0000000  0  9G23G11G14G15G19G22G25G 1G20
  23407185.7204   -9719595.53149  -7568765.05147                  23407182.8224
        43.7504         29.7504
  21485975.2754   -8624827.55549  -6697472.10947                  21485973.1774
        45.5004         38.0004
  22161345.0614    3176607.12949   2465084.82847                  22161343.2234
        47.0004         34.0004
  24505023.3494     205245.57049   6080338.44946                  24505026.6194
        39.7504         21.0004
  24440103.0594    3938689.42649   3057193.09446                  24440101.9704
        40.7504         21.7504
  23765385.3134    3107086.48449   2410603.75447                  23765384.2444
        41.7504         26.2504
  20758544.0164   -8768451.23449  -6809259.14148                  20758541.8524
        46.5004         41.5004
  23369795.0644   -8626915.81649  -6711180.59047                  23369795.5184
        44.0004         27.5004
  23859738.6124   -6067289.48049  -4721623.59046                  23859736.3554
        44.2504         22.2504
 04  7 14 19 41 15.0000000  0  9G23G11G14G15G19G22G25G 1G20
  23396546.5784   -9775507.50449  -7612332.78147                  23396543.1104
        44.5004         30.2504
  21480236.5874   -8654984.91049  -6720971.34847                  21480234.2624
        45.2504         37.5004
  22165166.6394    3196690.39849   2480734.10547                  22165164.9624
        47.7504         34.0004
  24513193.5094     248174.69549   6113789.56346                  24513195.7354
        40.5004         20.0004
  24444530.7324    3961960.50449   3075326.33646                  24444530.3574
        42.5004         21.2504
  23769089.2274    3126548.50849   2425768.89547                  23769087.8474
        43.0004         26.2504
  20752715.2464   -8799079.21549  -6833125.09848                  20752713.2444
        46.5004         41.7504
  23359649.0684   -8680233.16449  -6752726.52747                  23359649.7074
        45.2504         27.5004
  23848462.3384   -6126548.40649  -4767799.36346                  23848459.8404
        44.5004         22.2504
 04  7 14 19 41 30.0000000  0  9G23G11G14G15G19G22G25G 1G20
  23385916.6534   -9831367.50449  -7655860.00847                  23385913.9004
        45.0004         30.7504
  21474523.3684   -8685006.83649  -6744365.05947                  21474520.9404
        45.2504         37.2504
  22168994.3144    3216804.09049   2496407.10547                  22168991.8334
        48.0004         33.5004
  24521365.0094     291121.41049   6147254.40246                  24521368.3754
        39.7504         20.0004
  24448961.8884    3985244.34449   3093469.53146                  24448961.4904
        40.7504         21.2504
  23772801.4474    3146052.73449   2440966.94547                  23772798.6264
        43.2504         26.0004
  20746913.2934   -8829570.93049  -6856884.86348                  20746911.2674
        46.5004         42.0004
  23349513.8234   -8733494.23449  -6794228.60547                  23349514.0504
        45.0004         27.5004
  23837186.7214   -6185803.65649  -4813972.29346                  23837184.2554
        43.5004         22.2504
 04  7 14 19 41 45.0000000  0  9G23G11G14G15G19G22G25G 1G20
  23375296.1864   -9887175.81249  -7699346.94547                  23375293.8134
        44.5004         30.5004
  21468836.1364   -8714893.54349  -6767653.40247                  21468834.1024
        45.2504         37.5004
  22172827.5934    3236947.69549   2512103.40647                  22172826.1664
        47.0004         33.0004
  24529541.6624     334085.12949   6180732.44146                  24529544.1994
        39.5004         18.2504
  24453393.7264    4008540.40649   3111622.21146                  24453395.0904
        37.2504         20.5004
  23776520.2424    3165598.95749   2456197.74247                  23776518.4904
        42.0004         26.0004
  20741136.7734   -8859926.50849  -6880538.55148                  20741134.8834
        46.5004         41.5004
  23339389.4144   -8786699.35249  -6835687.09447                  23339389.4524
        44.5004         27.5004
  23825911.1624   -6245055.41449  -4860142.47746                  23825909.4354
        41.7504         22.7504
 04  7 14 19 42  0.0000000  0  9G23G11G14G15G19G22G25G 1G20
  23364685.7804   -9942932.55149  -7742793.69947                  23364683.0744
        43.5004         29.5004
  21463174.5964   -8744644.91449  -6790836.28947                  21463172.3204
        45.5004         37.5004
  22176666.3294    3257120.80149   2527822.67247                  22176664.5184
        45.2504         33.5004
  24537719.9414     377065.21149   6214223.32846                  24537722.8354
        37.0004         17.0004
  24457829.7164    4031848.04349   3129783.92246                  24457830.4524
        38.5004         20.0004
  23780247.9554    3185187.02749   2471461.12146                  23780245.5584
        40.5004         25.5004
  20735386.1674   -8890146.17649  -6904086.34448                  20735383.9454
        46.5004         42.0004
  23329274.8554   -8839848.67649  -6877102.10247                  23329276.7074
        44.2504         28.5004
  23814636.9524   -6304303.85949  -4906310.05946                  23814634.8154
        41.5004         23.7504
 04  7 14 19 42 15.0000000  0  9G23G11G14G15G19G22G25G 1G20
  23354085.9034   -9998636.79349  -7786199.55147                  23354083.0094
        43.7504         29.5004
  21457539.2854   -8774260.18449  -6813913.12547                  21457536.6684
        45.2504         36.7504
  22180510.9684    3277324.01249   2543565.41847                  22180509.0294
        46.2504         33.7504
  24545901.3614     420062.37549   6247727.41446                  24545905.3824
        37.0004         17.0004
  24462267.7174    4055167.62949   3147954.96946                  24462268.1064
        39.7504         20.0004
  23783983.7224    3204817.69149   2486757.69147                  23783981.3744
        41.5004         26.7504
  20729661.5534   -8920228.84049  -6927527.37148                  20729659.4324
        46.2504         42.0004
  23319172.1574   -8892941.32849  -6918472.94547                  23319172.8744
        45.0004         28.2504
  23803363.0314   -6363547.95349  -4952474.27046                  23803361.0174
        43.2504         24.7504
 04  7 14 19 42 30.0000000  0  8G23G11G14G19G22G25G 1G20
  23343494.9034  -10054288.87949  -7829564.76247                  23343491.9734
        44.0004         28.5004
  21451929.3574   -8803739.57049  -6836884.08647                  21451926.8514
        45.5004         37.2504
  22184361.1534    3297556.79749   2559331.20347                  22184359.3344
        48.0004         33.7504
  24466707.3104    4078498.56649   3166134.93046                  24466707.2604
        40.0004         18.5004
  23787726.9124    3224490.64149   2502087.22346                  23787724.7404
        43.5004         25.5004
  20723962.8984   -8950174.85249  -6950861.91848                  20723960.9494
        46.2504         41.7504
  23309079.7434   -8945977.64849  -6959799.89147                  23309079.9784
        46.0004         28.5004
  23792090.0434   -6422787.94949  -4998635.30147                  23792087.5104
        44.0004         25.7504
 04  7 14 19 42 45.0000000  0  8G23G11G14G19G22G25G 1G20
  23332915.2884  -10109888.21949  -7872888.87147                  23332912.6474
        44.5004         29.5004
  21446345.6154   -8833082.25849  -6859748.50847                  21446343.4344
        46.0004         38.0004
  22188217.1944    3317819.78549   2575120.53547                  22188214.8514
        48.2504         32.5004
  24471149.4224    4101841.29749   3184323.99246                  24471149.0344
        39.5004         19.2504
  23791478.7844    3244206.44549   2517450.13746                  23791476.6024
        43.2504         25.0004
  20718290.7444   -8979983.40249  -6974089.35248                  20718288.7134
        47.5004         41.2504
  23298997.9684   -8998956.87549  -7001082.34447                  23298998.7714
        45.2504         28.2504
  23780817.4324   -6482023.05549  -5044792.52346                  23780815.1474
        40.7504         23.5004
 04  7 14 19 43  0.0000000  0  8G23G11G14G19G22G25G 1G20
  23322345.6234  -10165434.19549  -7916171.42647                  23322342.8454
        43.7504         29.5004
  21440788.0404   -8862287.66849  -6882505.98047                  21440785.3424
        48.5004         37.7504
  22192078.9994    3338113.15649   2590933.52347                  22192076.9464
        47.2504         33.0004
  24475594.9294    4125195.62549   3202522.07046                  24475593.9034
        40.5004         21.2504
  23795239.1334    3263965.61749   2532846.85246                  23795236.6904
        43.5004         24.7504
  20712644.2354   -9009653.98049  -6997209.27748                  20712642.4374
        49.5004         41.2504
  23288927.3174   -9051878.57049  -7042319.96947                  23288928.0634
        45.0004         29.0004
  23769546.5324   -6541252.77349  -5090945.52046                  23769544.5064
        43.0004         24.2504
 04  7 14 19 43 15.0000000  0  8G23G11G14G19G22G25G 1G20
  23311785.7064  -10220925.46549  -7959411.31647                  23311783.2244
        44.2504         30.5004
  21435256.6614   -8891354.63349  -6905155.55547                  21435254.3714
        50.2504         38.0004
  22195946.6424    3358437.96949   2606771.01647                  22195944.1694
        47.0004         33.0004
  24480040.7024    4148562.52749   3220729.98046                  24480040.9254
        40.2504         21.0004
  23799007.3444    3283769.41849   2548278.32847                  23799005.8764
        41.0004         26.7504
  20707024.6794   -9039185.30949  -7020220.69548                  20707022.9444
        50.7504         42.0004
  23278868.3154   -9104741.44149  -7083511.76647                  23278867.6504
        45.5004         29.0004
  23758277.1354   -6600475.68449  -5137093.24246                  23758275.1144
        43.0004         24.0004
 04  7 14 19 43 30.0000000  0  8G23G11G14G19G22G25G 1G20
  23301236.1984  -10276360.80549  -8002607.65247                  23301233.7354
        43.5004         29.5004
  21429751.9474   -8920281.77049  -6927696.19547                  21429749.7034
        50.7504         38.0004
  22199820.9474    3378795.14549   2622633.72747                  22199818.3384
        46.2504         33.5004
  24484489.7054    4171942.80949   3238948.30946                  24484490.1394
        41.2504         22.5004
  23802783.8034    3303618.93849   2563745.44146                  23802783.0574
        39.7504         25.0004
  20701431.7434   -9068576.19149  -7043122.66848                  20701429.9424
        50.5004         41.2504
  23268818.6744   -9157544.31649  -7124656.81647                  23268819.7584
        44.7504         27.7504
  23747008.8234   -6659690.55149  -5183234.68446                  23747006.6564
        41.0004         24.0004
 04  7 14 19 43 45.0000000  0  8G23G11G14G19G22G25G 1G20
  23290698.1924  -10331740.91049  -8045760.92247                  23290695.1084
        45.0004         29.5004
  21424274.1364   -8949069.53549  -6950128.21947                  21424271.6294
        51.0004         37.5004
  22203699.5464    3399183.97349   2638521.12147                  22203698.5054
        46.0004         33.0004
  24488940.9344    4195335.46549   3257176.30946                  24488941.7204
        41.0004         22.2504
  23806570.1394    3323513.61349   2579247.75446                  23806569.6294
        40.7504         24.5004
  20695865.4454   -9097827.10949  -7065915.59048                  20695863.9524
        51.5004         41.7504
  23258782.6874   -9210287.79349  -7165755.57447                  23258783.3824
        46.2504         28.2504
  23735741.9644   -6718897.87149  -5229370.26646                  23735739.4014
        42.2504         24.0004
 04  7 14 19 44  0.0000000  0  8G23G11G14G19G22G25G 1G20
  23280170.4714  -10387065.14549  -8088870.67247                  23280167.3874
        44.5004         29.0004
  21418822.4124   -8977717.35949  -6972451.19547                  21418820.4414
        50.7504         38.0004
  22207585.7824    3419604.75449   2654433.39847                  22207584.0764
        46.5004         33.0004
  24493395.0624    4218740.56649   3275414.00846                  24493395.3444
        40.2504         22.5004
  23810364.9074    3343453.87549   2594785.55546                  23810363.5814
        42.2504         25.5004
  20690325.7064   -9126937.48449  -7088598.98848                  20690324.2064
        51.5004         42.2504
  23248757.3254   -9262971.34049  -7206807.65647                  23248757.7304
        45.5004         28.5004
  23724476.0644   -6778097.02049  -5275499.45746                  23724474.6034
        39.7504         25.0004
 04  7 14 19 44 15.0000000  0  8G23G11G14G19G22G25G 1G20
  23269652.9714  -10442335.28149  -8131938.28147                  23269649.9034
        45.2504         29.0004
  21413397.3164   -9006226.80149  -6994666.33647                  21413394.8144
        49.7504         38.0004
  22211477.4194    3440055.46949   2670368.99247                  22211476.3134
        47.0004         33.2504
  24497850.7234    4242156.13349   3293659.80946                  24497850.2964
        38.0004         20.5004
  23814167.6774    3363437.97749   2610357.53546                  23814166.6104
        43.7504         25.5004
  20684813.0144   -9155909.07449  -7111174.23848                  20684811.2514
        51.2504         42.0004
  23238743.0704   -9315596.69949  -7247814.36747                  23238744.1544
        45.7504         27.7504
  23713213.2524   -6837289.69149  -5321623.58646                  23713210.9584
        40.5004         24.2504
 04  7 14 19 44 30.0000000  0  8G23G11G14G19G22G25G 1G20
  23259145.1134  -10497552.38749  -8174964.57847                  23259142.4044
        44.0004         30.0004
  21407998.4424   -9034598.84849  -7016774.43747                  21407996.1084
        47.5004         37.7504
  22215374.6974    3460534.96549   2686327.03147                  22215373.4344
        48.7504         32.7504
  24502308.6264    4265580.68049   3311912.63346                  24502307.8844
        39.7504         20.5004
  23817979.1184    3383464.85249   2625962.85546                  23817977.4834
        43.5004         25.0004
  20679326.3454   -9184742.88349  -7133642.13748                  20679324.3094
        48.7504         42.0004
  23228739.5914   -9368164.92649  -7288776.57047                  23228740.0944
        45.7504         28.2504
  23701949.4174   -6896476.73049  -5367743.32846                  23701947.9204
        39.5004         24.7504
 04  7 14 19 44 45.0000000  0  8G23G11G14G19G22G25G 1G20
  23248648.1624  -10552715.93749  -8217949.11747                  23248644.8214
        44.5004         28.7504
  21402625.7404   -9062833.08649  -7038775.14847                  21402623.0874
        45.5004         38.2504
  22219277.5284    3481043.45749   2702307.65647                  22219276.0634
        48.0004         33.5004
  24506768.2814    4289014.14549   3330172.40646                  24506767.5504
        40.5004         22.0004
  23821798.5724    3403534.85249   2641601.75846                  23821796.5554
        44.0004         24.2504
  20673865.1824   -9213438.43449  -7156002.30548                  20673863.8274
        46.7504         41.7504
  23218747.0894   -9420675.55949  -7329693.91047                  23218747.5404
        45.5004         27.5004
  23690688.0754   -6955657.70349  -5413858.35247                  23690685.7284
        41.5004         26.7504
 04  7 14 19 45  0.0000000  0  8G23G11G14G19G22G25G 1G20
  23238160.0654  -10607827.36749  -8260893.03947                  23238157.4584
        44.0004         30.2504
  21397278.8274   -9090930.89849  -7060669.55147                  21397276.5704
        45.5004         38.0004
  22223186.3154    3501579.46549   2718309.70747                  22223183.3364
        48.2504         33.2504
  24511228.7544    4312454.78949   3348437.77046                  24511228.6674
        41.7504         24.2504
  23825625.8784    3423646.71149   2657273.27247                  23825623.0064
        44.2504         26.5004
  20668430.7784   -9241997.05949  -7178255.76648                  20668429.2694
        46.2504         41.7504
  23208764.7854   -9473129.97749  -7370567.42647                  23208765.4464
        44.5004         27.7504
  23679427.4364   -7014833.82849  -5459969.61347                  23679425.3954
        42.5004         25.7504
 04  7 14 19 45 15.0000000  0  8G23G11G14G19G22G25G 1G20
  23227682.2664  -10662887.39849  -8303796.93447                  23227679.6954
        44.0004         29.7504
  21391957.3874   -9118892.87949  -7082458.10547                  21391955.6284
        45.7504         38.0004
  22227098.7244    3522141.86749   2734332.32447                  22227097.0144
        46.5004         32.7504
  24515691.0034    4335901.40249   3366707.79346                  24515690.7234
        41.7504         24.5004
  23829460.1114    3443799.53149   2672976.76647                  23829458.4364
        44.2504         26.2504
  20663022.4434   -9270419.39549  -7200403.03148                  20663020.4984
        47.2504         41.2504
  23198793.8994   -9525529.07449  -7411397.85947                  23198794.1884
        44.0004         27.2504
  23668167.1134   -7074005.81249  -5506077.64146                  23668165.7094
        42.0004         25.0004
 04  7 14 19 45 30.0000000  0  8G23G11G14G19G22G25G 1G20
  23217216.0584  -10717893.76649  -8346658.98447                  23217212.2764
        44.7504         29.7504
  21386663.4044   -9146716.64549  -7104138.96947                  21386660.8074
        48.5004         38.0004
  22231016.4694    3542732.70749   2750377.12547                  22231014.8214
        47.0004         33.0004
  24520153.6844    4359355.95749   3384984.00847                  24520153.9764
        42.0004         26.5004
  23833304.1334    3463995.60549   2688713.90246                  23833301.8614
        45.0004         24.0004
  20657640.3204   -9298703.18049  -7222442.33248                  20657638.1344
        49.7504         41.2504
  23188833.9854   -9577870.44949  -7452183.30547                  23188833.7074
        45.0004         29.0004
  23656908.2464   -7133171.34849  -5552180.62546                  23656906.4174
        41.7504         24.5004
 04  7 14 19 45 45.0000000  0  8G23G11G14G19G22G25G 1G20
  23206757.8594  -10772849.34849  -8389481.50447                  23206754.4974
        44.5004         29.0004
  21381394.1534   -9174405.18049  -7125714.44547                  21381391.5794
        51.5004         38.0004
  22234939.2154    3563348.94549   2766441.72747                  22234937.5744
        46.5004         33.2504
  24524617.6084    4382815.05549   3403263.76647                  24524617.6274
        41.2504         26.2504
  23837155.1294    3484231.84049   2704482.35547                  23837152.7754
        44.2504         26.5004
  20652283.8044   -9326851.36749  -7244375.98448                  20652281.6944
        51.7504         41.2504
  23178883.8204   -9630157.14149  -7492926.12547                  23178884.5284
        44.5004         28.7504
  23645649.0254   -7192333.30949  -5598280.82446                  23645648.0064
        42.5004         24.2504
 04  7 14 19 46  0.0000000  0  8G23G11G14G19G22G25G 1G20
  23196309.7464  -10827752.08249  -8432262.82047                  23196307.2034
        44.0004         29.0004
  21376151.3394   -9201956.19549  -7147182.78147                  21376148.8574
        51.2504         37.7504
  22238868.2914    3583992.30949   2782527.44147                  22238867.5194
        47.5004         33.0004
  24529083.7334    4406280.38349   3421548.37947                  24529083.2974
        42.0004         26.0004
  23841013.1194    3504510.20349   2720283.63746                  23841010.8214
        44.0004         23.0004
  20646953.2654   -9354861.87949  -7266202.35548                  20646951.4774
        52.2504         41.2504
  23168944.8354   -9682387.07449  -7533624.73047                  23168945.6664
        45.5004         28.7504
  23634392.9934   -7251489.40649  -5644376.45346                  23634390.7924
        42.5004         25.0004
 04  7 14 19 46 15.0000000  0  8G23G11G14G19G22G25G 1G20
  23185871.9794  -10882604.35949  -8475004.80547                  23185868.8724
        43.2504         28.5004
  21370934.3494   -9229372.09049  -7168545.80947                  21370931.7434
        50.5004         37.7504
  22242801.2334    3604660.41449   2798632.43047                  22242798.6234
        47.5004         32.7504
  24533549.1634    4429749.19549   3439835.72746                  24533549.4734
        41.5004         23.0004
  23844879.6104    3524828.36749   2736115.92646                  23844878.5824
        43.7504         25.5004
  20641648.7224   -9382736.94149  -7287923.16848                  20641647.1614
        52.5004         41.7504
  23159015.8064   -9734562.56249  -7574280.92247                  23159017.1124
        44.7504         27.5004
  23623135.6244   -7310642.06649  -5690469.41446                  23623135.0524
        41.5004         22.7504
 04  7 14 19 46 30.0000000  0  8G23G11G14G19G22G25G 1G20
  23175443.5154  -10937405.86749  -8517707.23447                  23175440.4774
        43.7504         29.0004
  21365743.0154   -9256652.43449  -7189803.22747                  21365740.6274
        50.5004         38.0004
  22246739.7564    3625353.27749   2814756.71147                  22246737.3094
        48.7504         33.5004
  24538016.1384    4453221.32049   3458125.61346                  24538015.8094
        42.0004         24.0004
  23848754.4604    3545186.69949   2751979.50446                  23848752.1694
        44.2504         23.7504
  20636370.6714   -9410476.25449  -7309538.21548                  20636368.3284
        52.0004         42.0004
  23149098.0594   -9786683.41449  -7614894.50447                  23149098.5984
        45.0004         28.2504
  23611879.8124   -7369790.94949  -5736559.38746                  23611879.9644
        41.5004         24.7504
 04  7 14 19 46 45.0000000  0  8G23G11G14G19G22G25G 1G20
  23165025.1884  -10992155.50849  -8560369.27047                  23165021.5854
        44.5004         29.0004
  21360577.4574   -9283796.30949  -7210954.29347                  21360575.1584
        50.7504         37.5004
  22250681.8944    3646071.68449   2830900.88747                  22250680.1964
        47.5004         33.0004
  24542483.2574    4476697.34049   3476418.58246                  24542483.3024
        42.0004         24.5004
  23852635.5614    3565586.00449   2767875.00846                  23852634.4884
        43.0004         23.0004
  20631117.5284   -9438078.83249  -7331046.71548                  20631115.8734
        52.0004         41.7504
  23139190.3584   -9838748.50849  -7655464.67647                  23139190.3634
        45.7504         29.5004
  23600625.5164   -7428934.78949  -5782645.44546                  23600625.2514
        43.0004         25.2504
 04  7 14 19 47  0.0000000  0  8G23G11G14G19G22G25G 1G20
  23154616.2874  -11046854.12949  -8602991.54347                  23154612.5524
        44.5004         28.2504
  21355438.3334   -9310804.27049  -7231999.46547                  21355435.9364
        51.0004         38.2504
  22254628.7234    3666814.59849   2847064.18447                  22254626.2694
        47.5004         32.5004
  24546951.3514    4500176.23849   3494713.76647                  24546951.3054
        42.7504         26.2504
  23856525.6434    3586025.53949   2783801.87546                  23856523.6454
        43.2504         22.2504
  20625890.9294   -9465545.43049  -7352449.25048                  20625889.6094
        52.0004         42.0004
  23129293.1544   -9890758.71949  -7695992.07847                  23129292.5454
        45.5004         28.2504
  23589371.7604   -7488074.36749  -5828728.21146                  23589371.0944
        42.0004         25.5004
 04  7 14 19 47 15.0000000  0  8G23G11G14G19G22G25G 1G20
  23144217.4034  -11101500.51249  -8645573.10247                  23144213.9524
        43.7504         29.0004
  21350324.6834   -9337675.14849  -7252937.80947                  21350322.4414
        51.2504         37.5004
  22258580.2874    3687583.06649   2863247.40647                  22258580.1304
        45.7504         32.0004
  24551419.6434    4523658.68449   3513011.70747                  24551420.5834
        42.0004         25.7504
  23860423.2244    3606506.53549   2799761.02746                  23860420.7604
        43.5004         25.0004
  20620690.6164   -9492874.82449  -7373744.87148                  20620688.2574
        52.0004         41.5004
  23119406.2724   -9942712.81249  -7736475.76647                  23119406.2894
        45.7504         28.5004
  23578118.7204   -7547208.33249  -5874806.59847                  23578118.0274
        41.2504         27.2504
 04  7 14 19 47 30.0000000  0  8G23G11G14G19G22G25G 1G20
  23133827.8364  -11156096.07849  -8688115.07047                  23133824.5144
        43.5004         29.0004
  21345237.2374   -9364410.39849  -7273770.47747                  21345234.7624
        50.2504         38.0004
  22262537.0554    3708375.47749   2879449.25047                  22262535.3974
        46.7504         32.0004
  24555888.7024    4547142.83649   3531311.00046                  24555889.5024
        41.0004         25.5004
  23864327.4844    3627027.33649   2815751.22346                  23864326.2394
        42.5004         23.2504
  20615515.7834   -9520068.45349  -7394934.70748                  20615513.6684
        52.2504         41.7504
  23109530.4894   -9994612.30549  -7776916.88747                  23109530.4784
        45.2504         28.2504
  23566866.6104   -7606338.06649  -5920881.66446                  23566865.5174
        42.0004         25.0004
 04  7 14 19 47 45.0000000  0  8G23G11G14G19G22G25G 1G20
  23123448.2194  -11210639.68449  -8730616.53947                  23123445.3754
        44.0004         29.0004
  21340175.6464   -9391008.77749  -7294496.48847                  21340173.3774
        48.7504         37.5004
  22266498.8404    3729192.64549   2895670.40247                  22266497.4484
        48.0004         32.5004
  24560357.5964    4570629.44949   3549612.21146                  24560358.8264
        40.2504         24.7504
  23868241.1814    3647589.09849   2831773.31346                  23868239.4784
        43.0004         24.7504
  20610366.6694   -9547125.27049  -7416017.94148                  20610365.1104
        50.5004         41.7504
  23099664.7654  -10046456.11349  -7817314.60947                  23099665.1194
        45.2504         28.5004
  23555615.7274   -7665462.37549  -5966952.52046                  23555614.7224
        42.0004         25.2504
 04  7 14 19 48  0.0000000  0  7G23G11G14G22G25G 1G20
  23113079.2894  -11265131.71149  -8773077.84447                  23113075.3014
        45.2504         29.5004
  21335140.3934   -9417470.56249  -7315116.05947                  21335137.5154
        46.7504         38.7504
  22270465.1674    3750034.10249   2911910.48447                  22270463.9724
        48.0004         33.2504
  23872161.0564    3668191.46149   2847827.04746                  23872160.1344
        42.7504         25.0004
  20605244.1754   -9574045.51649  -7436994.74648                  20605242.3564
        47.7504         41.7504
  23089809.6574  -10098244.53149  -7857669.18447                  23089809.4734
        45.5004         28.5004
  23544365.8014   -7724581.53949  -6013019.37147                  23544364.9234
        43.5004         26.0004
 04  7 14 19 48 15.0000000  0  7G23G11G14G22G25G 1G20
  23102719.4204  -11319571.73049  -8815498.60547                  23102716.5744
        44.7504         29.0004
  21330130.9054   -9443795.37949  -7335628.89547                  21330128.4024
        45.5004         38.2504
  22274435.9714    3770900.13749   2928169.69547                  22274433.5474
        47.5004         32.0004
  23876089.9944    3688834.73049   2863912.67246                  23876088.4364
        44.2504         25.2504
  20600147.4564   -9600828.71149  -7457864.75848                  20600145.7194
        46.5004         41.5004
  23079964.8614  -10149977.14549  -7897980.29747                  23079964.3904
        45.5004         27.0004
  23533117.0924   -7783695.02049  -6059081.79347                  23533116.2114
        44.5004         27.2504
 04  7 14 19 48 30.0000000  0  7G23G11G14G22G25G 1G20
  23092370.0454  -11373958.28149  -8857877.70747                  23092367.1854
        44.0004         29.7504
  21325147.7774   -9469981.52749  -7356033.68747                  21325145.2824
        45.5004         37.5004
  22278411.4184    3791791.97349   2944449.05947                  22278410.3544
        47.5004         32.5004
  23880026.3784    3709520.43049   2880031.32047                  23880024.6844
        43.7504         26.0004
  20595077.0534   -9627473.41849  -7478626.86348                  20595075.0494
        46.7504         41.7504
  23070131.7544  -10201652.50049  -7938246.77047                  23070131.7444
        45.7504         27.5004
  23521869.4614   -7842801.22349  -6105138.55147                  23521868.9014
        44.5004         27.5004
 04  7 14 19 48 45.0000000  0  7G23G11G14G22G25G 1G20
  23082030.5974  -11428291.09449  -8900214.93747                  23082027.9714
        44.2504         29.5004
  21320191.4544   -9496028.93049  -7376330.37147                  21320188.6254
        47.5004         38.0004
  22282391.8494    3812709.63349   2960748.48847                  22282389.9474
        47.5004         32.5004
  23883971.3114    3730248.68849   2896183.16047                  23883968.6694
        44.0004         26.5004
  20590033.2414   -9653979.37549  -7499280.85548                  20590031.1514
        48.5004         41.7504
  23060309.3264  -10253270.42649  -7978468.49647                  23060309.1744
        45.7504         28.5004
  23510623.0914   -7901899.97349  -6151189.49247                  23510622.1074
        43.7504         26.2504
 04  7 14 19 49  0.0000000  0  7G23G11G14G22G25G 1G20
  23071702.2814  -11482568.26649  -8942508.78547                  23071699.1804
        45.0004         30.5004
  21315261.2214   -9521935.55549  -7396517.34847                  21315258.9594
        50.2504         37.5004
  22286378.0494    3833654.85949   2977069.43047                  22286374.9264
        47.0004         32.5004
  23887923.9364    3751021.32049   2912369.59046                  23887920.8234
        44.0004         24.7504
  20585016.2044   -9680344.59049  -7519825.16448                  20585014.1224
        51.0004         42.0004
  23050497.5664  -10304829.00049  -8018643.95347                  23050497.8474
        45.0004         27.7504
  23499378.8924   -7960989.12949  -6197232.96147                  23499377.3424
        44.5004         27.0004
 04  7 14 19 49 15.0000000  0  7G23G11G14G22G25G 1G20
  23061384.5104  -11536790.34849  -8984759.73447                  23061380.5854
        45.2504         29.5004
  21310358.1404   -9547701.69949  -7416594.86747                  21310355.4354
        51.0004         37.5004
  22290368.6554    3854626.82849   2993411.20347                  22290367.1064
        47.0004         32.5004
  23891884.6704    3771837.83649   2928590.19546                  23891882.3454
        44.2504         24.7504
  20580025.9234   -9706569.56649  -7540260.21148                  20580023.6644
        52.5004         42.0004
  23040697.9454  -10356328.71149  -8058773.55947                  23040698.0184
        45.7504         28.2504
  23488136.5814   -8020069.12149  -6243269.30947                  23488134.7014
        45.0004         27.7504
 04  7 14 19 49 30.0000000  0  7G23G11G14G22G25G 1G20
  23051076.8014  -11590956.37549  -9026966.99247                  23051073.8724
        45.5004         30.2504
  21305482.0674   -9573326.66049  -7436562.37947                  21305479.5904
        51.0004         37.5004
  22294364.2234    3875626.28149   3009774.40247                  22294362.1144
        46.5004         32.2504
  23895854.5644    3792699.09849   2944845.68846                  23895852.8144
        44.2504         23.5004
  20575062.1614   -9732653.60549  -7560585.43048                  20575060.0554
        52.0004         41.7504
  23030909.0814  -10407768.75049  -8098856.67647                  23030908.7214
        45.2504         27.0004
  23476895.5824   -8079139.06249  -6289297.81647                  23476895.1044
        45.0004         26.5004
 04  7 14 19 49 45.0000000  0  7G23G11G14G22G25G 1G20
  23040779.8224  -11645068.10249  -9069131.93047                  23040776.8704
        44.5004         29.5004
  21300632.0324   -9598812.28149  -7456421.30547                  21300629.9984
        51.0004         38.0004
  22298365.7714    3896651.25849   3026157.47747                  22298364.1644
        46.7504         32.7504
  23899832.2644    3813603.19949   2961134.54747                  23899831.5474
        44.0004         25.7504
  20570124.7024   -9758598.41849  -7580802.16048                  20570123.0254
        52.5004         42.0004
  23021130.5564  -10459150.87149  -8138894.66847                  23021131.4114
        45.0004         27.7504
  23465656.9274   -8138200.56249  -6335319.73047                  23465656.3024
        45.0004         28.2504
 04  7 14 19 50  0.0000000  0  7G23G11G14G22G25G 1G20
  23030492.6114  -11699126.20749  -9111255.11747                  23030489.4414
        45.0004         29.7504
  21295808.9054   -9624158.81249  -7476171.85547                  21295806.3224
        50.7504         38.0004
  22302371.4744    3917700.84849   3042559.74247                  22302369.2714
        47.2504         32.5004
  23903819.0704    3834549.59049   2977456.33246                  23903817.2474
        44.0004         24.2504
  20565214.2624   -9784404.71949  -7600910.96948                  20565212.3334
        52.5004         41.7504
  23011364.2824  -10510475.85249  -8178888.11747                  23011364.6664
        45.0004         28.0004
  23454419.4824   -8197254.19149  -6381335.53147                  23454418.1984
        45.7504         27.0004
 04  7 14 19 50 15.0000000  0  7G23G11G14G22G25G 1G20
  23020215.1014  -11753130.75849  -9153336.54747                  23020212.2154
        43.2504         29.0004
  21291012.2824   -9649366.37949  -7495814.11347                  21291009.6854
        49.5004         38.0004
  22306381.7314    3938774.89149   3058981.04747                  22306379.4544
        47.5004         32.0004
  23907813.2024    3855538.04749   2993810.94147                  23907811.8234
        43.5004         26.0004
  20560330.0624   -9810072.30149  -7620911.67248                  20560327.9004
        50.2504         41.2504
  23001608.7474  -10561743.63349  -8218837.00847                  23001608.4134
        45.5004         27.0004
  23443183.4964   -8256299.82849  -6427345.11347                  23443180.7354
        46.0004         25.7504
 04  7 14 19 50 30.0000000  0  7G23G11G14G22G25G 1G20
  23009949.4134  -11807081.83249  -9195376.31247                  23009946.3104
        43.7504         29.0004
  21286241.9494   -9674435.05949  -7515348.14847                  21286238.9914
        46.0004         38.0004
  22310395.9854    3959873.18849   3075421.27047                  22310394.4334
        46.2504         32.0004
  23911814.3424    3876568.49249   3010198.26646                  23911813.4284
        43.7504         23.5004
  20555471.6684   -9835601.25449  -7640804.35248                  20555469.8514
        48.0004         41.7504
  22991862.9284  -10612954.32449  -8258741.41447                  22991863.5404
        45.0004         28.0004
  23431948.6294   -8315337.52749  -6473348.51247                  23431946.1424
        45.5004         26.0004
 04  7 14 19 50 45.0000000  0  7G23G11G14G22G25G 1G20
  22999692.5444  -11860979.81649  -9237374.72347                  22999689.6304
        43.2504         29.2504
  21281497.8014   -9699365.25049  -7534774.27747                  21281495.0244
        45.7504         38.0004
  22314415.6864    3980995.02049   3091879.81647                  22314413.0004
        45.7504         31.5004
  23915824.2894    3897640.50449   3026617.96947                  23915823.3354
        43.0004         26.5004
  20550640.1184   -9860992.10949  -7660589.43448                  20550637.7684
        46.5004         41.7504
  22982128.8914  -10664108.35949  -8298601.65647                  22982128.8104
        45.2504         27.5004
  23420715.9984   -8374367.57849  -6519345.92647                  23420713.9194
        46.0004         26.7504
 04  7 14 19 51  0.0000000  0  7G23G11G14G22G25G 1G20
  22989445.6504  -11914825.51249  -9279332.35947                  22989442.9184
        44.0004         29.5004
  21276780.0354   -9724157.61749  -7554093.00847                  21276777.2024
        45.5004         37.7504
  22318438.7794    4002139.35949   3108355.91447                  22318437.4394
        45.0004         31.5004
  23919842.0524    3918753.23049   3043069.36746                  23919840.9484
        42.5004         25.0004
  20545834.5604   -9886245.62149  -7680267.48848                  20545832.5164
        46.7504         42.0004
  22972405.2934  -10715206.58249  -8338418.43047                  22972405.8194
        45.5004         28.0004
  23409484.2054   -8433390.59849  -6565337.87547                  23409482.5424
        45.0004         26.7504
 04  7 14 19 51 15.0000000  0  7G23G11G14G22G25G 1G20
  22979209.9504  -11968618.57049  -9321249.00047                  22979206.8664
        44.2504         30.5004
  21272088.4524   -9748812.01649  -7573304.23047                  21272085.8014
        46.7504         37.7504
  22322467.3894    4023306.34449   3124849.63747                  22322465.2824
        45.2504         31.2504
  23923867.4184    3939906.73449   3059552.58246                  23923865.4304
        40.5004         22.5004
  20541054.9454   -9911361.46149  -7699838.26648                  20541053.0634
        48.2504         41.5004
  22962691.9004  -10766248.75849  -8378191.52047                  22962692.0804
        45.2504         28.2504
  23398253.6874   -8492406.43749  -6611324.19546                  23398252.0634
        44.5004         25.0004
 04  7 14 19 51 30.0000000  0  7G23G11G14G22G25G 1G20
  22968983.2954  -12022359.82449  -9363125.27047                  22968980.5134
        44.0004         30.5004
  21267423.0204   -9773329.06649  -7592408.42647                  21267420.1064
        49.2504         38.0004
  22326500.1004    4044495.00849   3141360.25447                  22326497.5574
        45.2504         32.5004
  23927899.7504    3961100.41849   3076067.09446                  23927899.0534
        41.0004         24.7504
  20536301.7874   -9936340.39849  -7719302.36748                  20536299.7254
        50.5004         42.0004
  22952989.4474  -10817235.52049  -8417921.43747                  22952989.4914
        45.0004         28.0004
  23387024.7934   -8551415.59449  -6657305.33646                  23387022.3844
        46.2504         25.5004
 04  7 14 19 51 45.0000000  0  7G23G11G14G22G25G 1G20
  22958766.9004  -12076049.38349  -9404961.25047                  22958763.6454
        42.2504         30.7504
  21262783.4004   -9797708.75049  -7611405.59047                  21262780.5084
        49.0004         38.0004
  22330535.7224    4065705.06349   3157887.54347                  22330534.1094
        44.0004         31.7504
  23931941.9674    3982334.02049   3092612.69546                  23931939.6994
        40.0004         25.5004
  20531574.0084   -9961182.59449  -7738659.92648                  20531572.3064
        51.5004         41.7504
  22943297.4964  -10868167.12149  -8457608.35947                  22943297.7494
        45.0004         28.5004
  23375796.7084   -8610418.10249  -6703281.33246                  23375794.4184
        45.5004         24.0004
 04  7 14 19 52  0.0000000  0  7G23G11G14G22G25G 1G20
  22948558.9664  -12129687.12149  -9446756.86747                  22948556.6594
        42.0004         31.0004
  21258170.5234   -9821950.98049  -7630295.64147                  21258167.5934
        49.5004         38.2504
  22334575.6524    4086936.56349   3174431.57847                  22334573.7504
        43.7504         31.7504
  23935989.3554    4003607.68849   3109189.51646                  23935988.7604
        40.0004         25.5004
  20526873.2374   -9985887.93449  -7757910.83248                  20526870.9824
        51.7504         42.5004
  22933616.1924  -10919043.34449  -8497252.14547                  22933616.1304
        46.0004         28.7504
  23364570.8234   -8669413.67249  -6749251.89546                  23364568.1244
        45.5004         25.5004
 04  7 14 19 52 15.0000000  0  7G23G11G14G22G25G 1G20
  22938362.0134  -12183273.95349  -9488512.80147                  22938358.7044
        43.0004         30.0004
  21253583.0264   -9846056.68049  -7649079.30547                  21253580.3964
        50.2504         38.2504
  22338620.2774    4108188.29749   3190991.35247                  22338618.3414
        44.0004         32.2504
  23940044.3914    4024920.43849   3125796.79346                  23940044.4134
        39.5004         24.5004
  20522197.9794  -10010457.34849  -7777055.82448                  20522195.7924
        51.2504         42.0004
  22923944.9154  -10969865.20749  -8536853.55947                  22923944.8944
        46.0004         27.0004
  23353345.7254   -8728403.14549  -6795217.70346                  23353342.3504
        46.0004         24.7504
 04  7 14 19 52 30.0000000  0  7G23G11G14G22G25G 1G20
  22928174.6644  -12236809.78149  -9530228.99647                  22928171.3244
        42.0004         31.0004
  21249022.0214   -9870025.80549  -7667756.54747                  21249019.6044
        50.0004         38.0004
  22342667.7314    4129460.02049   3207566.70347                  22342665.8434
        44.0004         31.5004
  23944107.7904    4046272.15249   3142434.43846                  23944106.9144
        39.0004         22.5004
  20517548.1954  -10034890.76249  -7796094.84048                  20517546.1564
        51.0004         42.0004
  22914284.0974  -11020632.75049  -8576412.64847                  22914284.6464
        45.7504         28.2504
  23342121.0234   -8787386.52349  -6841178.78146                  23342118.5934
        44.7504         24.7504
 04  7 14 19 52 45.0000000  0  7G23G11G14G22G25G 1G20
  22917997.2374  -12290291.64149  -9571903.14847                  22917994.0394
        42.5004         31.0004
  21244487.4784   -9893855.24249  -7686324.94947                  21244485.1094
        50.5004         38.0004
  22346720.5094    4150754.62549   3224159.86347                  22346718.2294
        45.7504         32.0004
  23948178.9874    4067665.96149   3159104.86746                  23948177.1344
        39.7504         24.0004
  20512925.0324  -10059185.20349  -7815025.56648                  20512922.9694
        51.0004         42.5004
  22904634.1744  -11071342.87549  -8615927.00447                  22904634.3994
        44.7504         28.0004
  23330897.9084   -8846360.62949  -6887132.59046                  23330896.3964
        45.0004         23.5004
 04  7 14 19 53  0.0000000  0  7G23G11G14G22G25G 1G20
  22907829.5704  -12343722.77049  -9613537.75847                  22907826.5174
        42.7504         31.5004
  21239978.6164   -9917548.26249  -7704787.03947                  21239976.2194
        50.2504         38.0004
  22350776.6504    4172068.55549   3240768.09847                  22350774.2844
        44.0004         32.0004
  23952258.5934    4089098.50449   3175805.51647                  23952256.0734
        38.7504         25.7504
  20508328.0104  -10083343.86749  -7833850.50048                  20508325.8814
        50.5004         42.2504
  22894995.1184  -11121998.94149  -8655399.21947                  22894995.0754
        45.7504         28.2504
  23319676.6084   -8905328.53949  -6933081.57447                  23319675.3764
        45.2504         26.5004
 04  7 14 19 53 15.0000000  0  7G23G11G14G22G25G 1G20
  23197464.8054  -12397099.87149  -9655130.25847                  23197462.0264
        42.7504         31.5004
  21535289.0044   -9941103.67249  -7723141.91447                  21535286.3844
        50.5004         38.0004
  22654627.8474    4193400.14549   3257390.09847                  22654625.9374
        44.0004         32.5004
  24256136.5244    4110568.01649   3192534.90247                  24256135.5184
        39.0004         26.2504
  20803549.0714  -10107365.51249  -7852568.65648                  20803547.2834
        50.7504         42.2504
  23185158.6184  -11172597.81249  -8694826.89547                  23185158.9584
        46.0004         30.0004
  23608249.9564   -8964286.50849  -6979022.85246                  23608248.3114
        44.2504         25.2504
 04  7 14 19 53 30.0000000  0  7G23G11G14G22G25G 1G20
  23187316.5764  -12450428.77749  -9696685.22747                  23187313.6604
        43.0004         31.0004
  21530832.5634   -9964522.97749  -7741390.72747                  21530829.9534
        49.7504         38.2504
  22658690.8804    4214753.23849   3274028.85947                  22658689.6394
        45.7504         32.2504
  24260229.8294    4132078.54749   3209296.32047                  24260228.1834
        39.5004         26.0004
  20799003.9394  -10131252.14149  -7871181.60948                  20799002.0794
        50.5004         41.7504
  23175539.7014  -11223145.03949  -8734214.30147                  23175540.0574
        46.0004         30.0004
  23597031.0194   -9023241.00449  -7024961.40246                  23597029.4894
        44.5004         25.0004
 04  7 14 19 53 45.0000000  0  7G23G11G14G22G25G 1G20
  23177177.6964  -12503705.85249  -9738199.78547                  23177174.6604
        41.5004         31.0004
  21526401.9964   -9987804.64849  -7759532.28947                  21526399.0584
        49.7504         38.0004
  22662758.2194    4236126.41049   3290683.25447                  22662755.7534
        43.5004         32.2504
  24264329.7804    4153628.74249   3226088.59447                  24264329.6704
        39.7504         26.7504
  20794484.3934  -10155001.94549  -7889687.94548                  20794482.0894
        50.5004         42.0004
  23165932.1194  -11273637.10949  -8773558.73047                  23165931.5764
        47.0004         29.7504
  23585814.5664   -9082187.87949  -7070894.01246                  23585812.9164
        44.7504         25.2504
 04  7 14 19 54  0.0000000  0  7G23G11G14G22G25G 1G20
  23167049.7864  -12556931.29349  -9779674.12547                  23167046.2264
        43.0004         31.2504
  21521997.5524  -10010949.02749  -7777566.87947                  21521994.5834
        50.0004         38.0004
  22666829.2914    4257519.16849   3307352.92247                  22666826.6914
        44.7504         32.0004
  24268438.4814    4175218.31349   3242911.60246                  24268437.2724
        39.5004         23.5004
  20789990.7334  -10178615.19149  -7908087.87148                  20789988.6174
        51.2504         42.0004
  23156333.6744  -11324074.35549  -8812860.44947                  23156333.7374
        46.2504         29.2504
  23574597.7674   -9141127.34849  -7116820.86347                  23574597.0884
        43.5004         25.7504
 04  7 14 19 54 15.0000000  0  7G23G11G14G22G25G 1G20
  23156930.7874  -12610106.52349  -9821109.33647                  23156927.7634
        43.2504         31.7504
  21517619.2664  -10033957.35249  -7795495.44947                  21517616.6204
        50.5004         38.5004
  22670904.2394    4278929.93449   3324036.60547                  22670901.7384
        44.0004         33.0004
  24272554.3454    4196845.88349   3259764.17646                  24272553.0834
        40.2504         25.0004
  20785523.1504  -10202093.19949  -7926382.41848                  20785521.2174
        51.0004         42.5004
  23146746.3474  -11374458.08649  -8852120.47347                  23146745.7994
        46.7504         29.7504
  23563383.2404   -9200060.63749  -7162742.88346                  23563382.1554
        42.7504         24.0004
 04  7 14 19 54 30.0000000  0  7G23G11G14G22G25G 1G20
  23146822.5014  -12663228.12949  -9862502.76247                  23146819.3094
        43.5004         32.5004
  21513268.0164  -10056826.21949  -7813315.35947                  21513265.0254
        50.0004         38.2504
  22674981.9974    4300361.92249   3340736.84447                  22674979.6424
        43.2504         32.2504
  24276678.0824    4218514.79349   3276648.98446                  24276676.1964
        40.0004         23.0004
  20781081.7064  -10225432.58249  -7944568.94548                  20781080.0514
        50.2504         42.2504
  23137168.8624  -11424784.93049  -8891336.16047                  23137168.4644
        45.5004         29.2504
  23552170.8134   -9258984.14849  -7208657.29746                  23552169.4604
        44.0004         25.5004
 04  7 14 19 54 45.0000000  0  7G23G11G14G22G25G 1G20
  23136723.2274  -12716299.42249  -9903856.98047                  23136720.2604
        41.7504         31.5004
  21508941.5684  -10079558.88349  -7831029.12547                  21508939.1694
        49.7504         38.2504
  22679063.8864    4321811.81349   3357451.00847                  22679062.5344
        43.2504         32.0004
  24280808.8504    4240221.62549   3293563.34046                  24280806.9484
        40.5004         24.7504
  20776666.2634  -10248636.74649  -7962650.10548                  20776664.2734
        51.0004         42.5004
  23127602.3424  -11475058.25049  -8930510.14847                  23127602.2254
        46.0004         28.7504
  23540959.7124   -9317901.24249  -7254566.69147                  23540958.3394
        44.5004         26.7504
 04  7 14 19 55  0.0000000  0  7G23G11G14G22G25G 1G20
  23126633.6774  -12769319.30149  -9945171.12147                  23126631.6614
        40.5004         31.7504
  21504641.7264  -10102154.36349  -7848635.99247                  21504639.0724
        50.2504         37.7504
  22683148.0094    4343280.27049   3374179.68847                  22683147.4154
        42.5004         32.5004
  24284946.5054    4261967.53149   3310508.14146                  24284944.5094
        40.0004         25.0004
  20772276.4604  -10271704.52349  -7980624.98848                  20772274.3184
        50.2504         42.5004
  23118045.9404  -11525276.93449  -8969641.55547                  23118046.3324
        46.5004         30.2504
  23529749.1894   -9376810.53949  -7300470.02747                  23529748.4194
        44.2504         26.0004
 04  7 14 19 55 15.0000000  0  7G23G11G14G22G25G 1G20
  23116553.1824  -12822288.68749  -9986445.93747                  23116551.0134
        43.0004         32.0004
  21500367.8674  -10124613.44549  -7866136.57447                  21500365.8814
        48.0004         37.7504
  22687237.9814    4364766.44949   3390922.12547                  22687235.5944
        45.0004         31.5004
  24289091.5184    4283751.55149   3327482.65646                  24289090.4144
        39.0004         25.2504
  20767912.5624  -10294636.93449  -7998494.39848                  20767910.6534
        49.2504         43.0004
  23108499.6204  -11575441.91449  -9008731.11347                  23108499.8024
        46.5004         31.0004
  23518540.3864   -9435712.85949  -7346367.90247                  23518539.6824
        43.7504         26.2504
 04  7 14 19 55 30.0000000  0  7G23G11G14G22G25G 1G20
  23106483.8844  -12875206.17649 -10027680.29347                  23106480.7764
        41.2504         31.0004
  21496120.9114  -10146934.56649  -7883529.66847                  21496118.1744
        46.0004         38.2504
  22691330.2244    4386271.28149   3407679.10947                  22691328.5884
        45.5004         31.2504
  24293244.8424    4305575.01249   3344487.85946                  24293244.7134
        39.5004         25.5004
  20763574.6744  -10317432.61749  -8016257.26248                  20763572.5134
        46.7504         42.0004
  23098964.7684  -11625551.86349  -9047777.78147                  23098964.9484
        46.0004         29.5004
  23507333.4514   -9494606.84049  -7392259.27347                  23507331.7184
        44.2504         26.2504
 04  7 14 19 55 45.0000000  0  7G23G11G14G22G25G 1G20
  23096423.8394  -12928072.12149 -10068874.50847                  23096420.4534
        42.7504         31.0004
  21491899.3644  -10169118.22349  -7900815.63347                  21491897.0774
        46.0004         38.5004
  22695425.8814    4407794.43049   3424450.35247                  22695423.9664
        43.5004         30.5004
  24297405.3734    4327437.37149   3361523.40246                  24297404.4464
        39.7504         24.2504
  20759262.8914  -10340091.85249  -8033913.80548                  20759260.6994
        46.7504         42.2504
  23089439.2524  -11675607.06649  -9086781.81247                  23089439.6624
        46.5004         30.7504
  23496127.5394   -9553492.63349  -7438144.28947                  23496125.3004
        43.2504         26.0004
 04  7 14 19 56  0.0000000  0  7G23G11G14G22G25G 1G20
  23086373.2754  -12980886.43749 -10110028.47747                  23086370.3664
        42.5004         31.0004
  21487703.6124  -10191164.31649  -7917994.41847                  21487701.5684
        46.0004         38.0004
  22699524.2614    4429335.66449   3441235.73447                  22699522.8684
        44.0004         31.2504
  24301573.1714    4349338.71149   3378589.30146                  24301571.6554
        39.7504         22.7504
  20754976.8804  -10362614.67249  -8051464.05148                  20754974.6014
        46.7504         42.0004
  23079924.0594  -11725607.57449  -9125743.19947                  23079924.6094
        46.2504         29.7504
  23484923.6574   -9612370.07449  -7484022.80547                  23484921.7974
        45.0004         27.0004
 04  7 14 19 56 15.0000000  0  7G23G11G14G22G25G 1G20
  23076332.7244  -13033650.14149 -10151143.02347                  23076329.7324
        41.5004         32.0004
  21483534.7624  -10213073.80149  -7935066.75047                  21483532.0864
        48.0004         37.7504
  22703627.0594    4450893.84049   3458034.27747                  22703625.6594
        45.0004         31.5004
  24305747.3354    4371277.90649   3395684.75446                  24305746.0694
        38.5004         22.2504
  20750716.6634  -10385002.25049  -8068908.91848                  20750714.1534
        49.0004         42.0004
  23070420.1924  -11775554.43049  -9164662.78947                  23070419.7254
        46.0004         29.5004
  23473720.9894   -9671240.11749  -7529895.52347                  23473719.5044
        44.7504         29.7504
 04  7 14 19 56 30.0000000  0  7G23G11G14G22G25G 1G20
  23066302.2494  -13086361.62549 -10192216.86347                  23066299.2754
        41.7504         31.5004
  21479391.9994  -10234845.10949  -7952031.40647                  21479388.9624
        50.5004         38.0004
  22707733.9014    4472470.50449   3474847.21947                  22707731.5864
        45.7504         31.5004
  24309929.4554    4393256.72349   3412811.03146                  24309928.7554
        39.0004         21.7504
  20746482.4074  -10407252.79749  -8086246.99248                  20746480.2214
        50.7504         42.0004
  23060925.7844  -11825445.96549  -9203539.27047                  23060925.6554
        45.0004         30.0004
  23462519.7784   -9730100.88349  -7575761.06247                  23462518.9084
        44.0004         27.5004
 04  7 14 19 56 45.0000000  0  7G23G11G14G22G25G 1G20
  23056281.8134  -13139022.42649 -10233251.21147                  23056278.1904
        43.2504         31.5004
  21475275.0114  -10256479.82049  -7968889.62147                  21475272.3114
        51.0004         37.7504
  22711842.4084    4494063.84449   3491673.20747                  22711840.1734
        45.0004         31.7504
  24314120.4354    4415273.58249   3429966.95346                  24314118.5954
        40.2504         22.7504
  20742274.1604  -10429367.82049  -8103479.47348                  20742271.9354
        52.2504         42.5004
  23051441.5414  -11875283.73849  -9242373.85947                  23051441.6854
        46.0004         30.0004
  23451320.7294   -9788953.88349  -7621620.48047                  23451319.8784
        45.0004         27.2504
 04  7 14 19 57  0.0000000  0  7G23G11G14G22G25G 1G20
  23046270.2324  -13191631.62949 -10274245.36347                  23046266.7404
        42.5004         31.2504
  21471184.3264  -10277976.89149  -7985640.59447                  21471181.3174
        51.0004         38.5004
  22715954.4894    4515674.49249   3508512.65647                  22715953.9374
        45.7504         32.5004
  24318318.1134    4437329.19949   3447153.08646                  24318316.4474
        42.2504         22.5004
  20738091.7164  -10451346.54749  -8120605.75048                  20738089.6244
        51.5004         42.5004
  23041968.1554  -11925066.99649  -9281165.98047                  23041968.4644
        46.2504         30.2504
  23440122.4514   -9847798.13349  -7667473.12947                  23440121.6564
        45.7504         27.5004
 04  7 14 19 57 15.0000000  0  7G23G11G14G22G25G 1G20
  23036269.4014  -13244189.00849 -10315199.12547                  23036265.3514
        43.0004         32.0004
  21467119.5624  -10299336.10249  -8002284.14547                  21467116.8384
        51.5004         38.2504
  22720070.3744    4537302.63749   3525365.72747                  22720068.2634
        46.7504         32.2504
  24322521.6904    4459423.84849   3464369.66046                  24322520.4824
        42.0004         23.0004
  20733935.3264  -10473188.73449  -8137625.63748                  20733933.0884
        52.0004         42.7504
  23032505.2984  -11974795.37949  -9319915.32447                  23032505.3824
        45.7504         31.2504
  23428927.6624   -9906633.25449  -7713318.64547                  23428925.4154
        46.2504         28.0004
 04  7 14 19 57 30.0000000  0  7G23G11G14G22G25G 1G20
  23026277.3274  -13296694.48849 -10356112.44547                  23026273.6214
        44.0004         31.5004
  21463081.2144  -10320557.44149  -8018820.25047                  21463078.6114
        51.0004         38.2504
  22724189.8084    4558948.13349   3542232.31347                  22724187.5114
        45.5004         31.5004
  24326733.0114    4481557.46549   3481616.53946                  24326732.3964
        41.5004         23.2504
  20729805.0424  -10494894.50049  -8154539.20748                  20729802.9984
        52.2504         42.7504
  23023053.0734  -12024468.93449  -9358621.94547                  23023053.1044
        45.5004         30.0004
  23417732.5004   -9965459.08649  -7759156.93047                  23417731.1174
        45.7504         28.7504
 04  7 14 19 57 45.0000000  0  7G23G11G14G22G25G 1G20
  23016295.7604  -13349148.22749 -10396985.45347                  23016292.4014
        44.0004         32.2504
  21459069.1984  -10341641.11349  -8035249.09847                  21459066.4224
        51.7504         37.7504
  22728311.3504    4580610.60549   3559112.15247                  22728310.2584
        46.5004         30.5004
  24330952.1864    4503729.76649   3498893.59846                  24330952.2234
        41.0004         24.2504
  20725700.6114  -10516463.85549  -8171346.49648                  20725698.3314
        52.0004         42.2504
  23013610.7454  -12074087.81249  -9397285.96147                  23013610.5914
        46.2504         31.0004
  23406540.9274  -10024275.57449  -7804987.95347                  23406539.0204
        47.0004         28.7504
 04  7 14 19 58  0.0000000  0  7G23G11G14G22G25G 1G20
  23006323.5964  -13401550.58249 -10437818.43047                  23006320.2734
        44.2504         32.0004
  21455083.2374  -10362587.39849  -8051570.88747                  21455080.4454
        51.0004         38.0004
  22732437.0844    4602289.63349   3576004.87147                  22732435.1034
        45.7504         30.7504
  24335179.5654    4525940.40649   3516200.51246                  24335178.8104
        42.0004         24.5004
  20721621.5024  -10537897.26649  -8188047.85248                  20721619.3514
        51.5004         42.5004
  23004178.4054  -12123652.39849  -9435907.68747                  23004178.6994
        45.2504         30.5004
  23395350.0344  -10083083.14149  -7850812.01247                  23395348.5504
        46.5004         29.0004
 04  7 14 19 58 15.0000000  0  7G23G11G14G22G25G 1G20
  22996362.1824  -13453900.32849 -10478610.40247                  22996358.4674
        45.0004         31.2504
  21451123.5844  -10383395.13349  -8067784.71147                  21451120.9684
        51.0004         38.0004
  22736565.3714    4623986.12149   3592911.22347                  22736564.5104
        45.2504         29.7504
  24339413.7134    4548190.51249   3533538.18846                  24339413.5554
        41.7504         24.0004
  20717569.3264  -10559193.60949  -8204642.39848                  20717567.2254
        52.0004         42.2504
  22994757.7774  -12173161.48449  -9474486.15647                  22994757.4034
        46.5004         30.2504
  23384161.0304  -10141880.48849  -7896628.08647                  23384159.4724
        46.0004         27.2504
 04  7 14 19 58 30.0000000  0  7G23G11G14G22G25G 1G20
  22986410.0974  -13506198.17649 -10519361.94547                  22986405.8004
        44.2504         30.5004
  21447190.7414  -10404064.91849  -8083891.03547                  21447187.7364
        50.7504         38.0004
  22740697.5754    4645699.34449   3609830.54347                  22740696.1144
        45.7504         30.5004
  24343656.2944    4570479.43449   3550906.10246                  24343654.0204
        43.2504         24.5004
  20713542.5074  -10580353.48049  -8221130.60548                  20713540.0614
        52.0004         42.0004
  22985346.3694  -12222615.77349  -9513021.93447                  22985346.1824
        44.5004         29.5004
  23372974.1174  -10200667.79349  -7942436.35547                  23372972.1514
        46.5004         28.5004
 04  7 14 19 58 45.0000000  0  7G23G11G14G22G25G 1G20
  22976467.5104  -13558445.43449 -10560074.07447                  22976463.4514
        45.2504         31.2504
  21443283.1424  -10424597.96549  -8099890.81647                  21443280.6224
        51.7504         38.2504
  22744832.8754    4667427.94149   3626761.90647                  22744830.3394
        45.5004         30.0004
  24347904.5224    4592805.98849   3568303.35546                  24347902.1924
        40.7504         23.5004
  20709541.5524  -10601378.18449  -8237513.48848                  20709539.4674
        52.2504         41.7504
  22975945.5464  -12272016.47349  -9551515.95347                  22975945.7514
        44.5004         30.0004
  23361789.1914  -10259446.31649  -7988237.80547                  23361787.3784
        46.2504         28.0004
 04  7 14 19 59  0.0000000  0  7G23G11G14G22G25G 1G20
  22966535.1674  -13610638.25049 -10600743.77747                  22966531.8624
        45.5004         31.5004
  21439402.5784  -10444990.53949  -8115781.14547                  21439399.8034
        51.0004         38.5004
  22748970.8374    4689175.40249   3643707.93847                  22748969.4674
        45.0004         30.5004
  24352160.1424    4615173.76649   3585732.73446                  24352158.5954
        43.0004         23.0004
  20705567.0814  -10622264.08649  -8253788.21148                  20705564.8264
        51.7504         41.5004
  22966555.8124  -12321359.92649  -9589965.36747                  22966556.2894
        45.2504         29.7504
  23350606.4574  -10318212.33649  -8034029.46947                  23350604.8574
        46.0004         29.7504
 04  7 14 19 59 15.0000000  0  7G23G11G14G22G25G 1G20
  22956613.0684  -13662779.96149 -10641373.64547                  22956610.5094
        45.5004         30.7504
  21435547.8554  -10465245.97349  -8131564.59847                  21435545.3534
        51.0004         38.0004
  22753111.8684    4710938.18849   3660665.97747                  22753110.1674
        46.5004         29.7504
  24356424.3414    4637579.42249   3603191.64546                  24356422.9444
        43.0004         24.2504
  20701618.2694  -10643014.48849  -8269957.34848                  20701616.3184
        52.5004         42.0004
  22957176.6634  -12370649.48849  -9628372.77047                  22957176.7854
        45.2504         30.5004
  23339424.7004  -10376968.88349  -8079813.78147                  23339424.3804
        46.5004         29.0004
 04  7 14 19 59 30.0000000  0  7G23G11G14G22G25G 1G20
  22946700.3284  -13714871.54349 -10681964.46147                  22946697.4884
        45.7504         31.5004
  21431719.4934  -10485365.21549  -8147241.93447                  21431716.8234
        50.5004         38.2504
  22757256.1104    4732715.27749   3677635.09447                  22757254.0884
        45.5004         30.2504
  24360694.3224    4660021.87549   3620679.20346                  24360694.3554
        41.5004         24.7504
  20697695.4544  -10663630.27749  -8286021.60548                  20697693.4644
        52.5004         42.0004
  22947807.3234  -12419886.16049  -9666738.98447                  22947806.8904
        44.5004         31.0004
  23328245.5694  -10435716.93449  -8125591.46547                  23328243.9944
        47.0004         27.5004
 04  7 14 19 59 45.0000000  0  7G23G11G14G22G25G 1G20
  22936797.5744  -13766911.13749 -10722514.75847                  22936794.7574
        46.0004         31.7504
  21427916.9534  -10505346.67249  -8162811.90647                  21427914.6344
        51.0004         38.0004
  22761403.4184    4754508.14849   3694616.52747                  22761402.7414
        46.0004         31.2504
  24364972.9264    4682502.92649   3638196.83246                  24364972.7644
        39.5004         24.2504
  20693798.2854  -10684109.85249  -8301979.70748                  20693796.4254
        52.0004         42.5004
  22938448.2134  -12469068.21149  -9705062.62147                  22938447.7654
        44.5004         30.5004
  23317068.7974  -10494454.62149  -8171361.07047                  23317066.2654
        46.5004         29.0004
 04  7 14 20  0  0.0000000  0  7G23G11G14G22G25G 1G20
  22926903.9754  -13818900.08649 -10763025.60247                  22926901.0894
        45.7504         31.2504
  21424140.7354  -10525191.32449  -8178275.27347                  21424138.3084
        51.0004         38.5004
  22765553.2644    4776315.54349   3711609.28147                  22765549.9084
        44.7504         30.0004
  24369258.1554    4705021.32049   3655743.55546                  24369257.3684
        41.0004         24.7504
  20689926.8704  -10704454.44949  -8317832.63348                  20689925.0004
        52.0004         42.0004
  22929099.2924  -12518196.82049  -9743344.62147                  22929098.7164
        43.0004         30.2504
  23305893.1534  -10553182.88749  -8217123.34047                  23305891.5374
        46.5004         28.7504
 04  7 14 20  0 15.0000000  0  7G23G11G14G22G25G 1G20
  22917020.8524  -13870838.13349 -10803496.79747                  22917017.6954
        46.7504         32.0004
  21420390.1874  -10544899.12949  -8193632.01247                  21420388.1744
        50.5004         38.0004
  22769705.9844    4798137.54349   3728613.43047                  22769703.8994
        47.5004         31.0004
  24373550.2844    4727577.11749   3673319.45346                  24373549.0454
        42.5004         22.7504
  20686081.1284  -10724663.91449  -8333580.27048                  20686078.8294
        51.5004         42.0004
  22919760.4764  -12567271.84049  -9781584.85947                  22919760.2064
        43.5004         30.5004
  23294718.7304  -10611901.44149  -8262878.03147                  23294717.7734
        46.5004         28.2504
 04  7 14 20  0 30.0000000  0  7G23G11G14G22G25G 1G20
  22907147.2624  -13922723.98849 -10843927.31247                  22907144.0954
        46.0004         31.2504
  21416666.3954  -10564468.77749  -8208881.09447                  21416663.8634
        50.5004         37.7504
  22773861.3364    4819975.18849   3745629.75047                  22773859.9704
        46.7504         31.0004
  24377850.2864    4750171.64849   3690925.50846                  24377848.6864
        42.5004         23.5004
  20682261.1634  -10744736.95349  -8349221.59448                  20682259.0454
        52.0004         42.0004
  22910432.1634  -12616291.91449  -9819782.28547                  22910432.7334
        45.0004         30.7504
  23283547.4924  -10670608.84849  -8308624.05147                  23283545.3584
        46.2504         27.7504
 04  7 14 20  0 45.0000000  0  7G23G11G14G22G25G 1G20
  22897283.2674  -13974558.57049 -10884317.86347                  22897279.6034
        46.2504         31.0004
  21412968.6784  -10583901.15649  -8224023.20347                  21412965.8964
        48.2504         38.0004
  22778020.3334    4841827.44149   3762657.44147                  22778017.9874
        45.7504         30.7504
  24382157.3974    4772803.88749   3708560.93446                  24382155.0454
        40.2504         22.2504
  20678467.2834  -10764674.64549  -8364757.45748                  20678465.1564
        49.5004         41.7504
  22901114.0824  -12665258.11349  -9857937.75047                  22901114.3614
        42.7504         31.5004
  23272377.3834  -10729305.95349  -8354362.03547                  23272374.9844
        45.5004         28.2504
 04  7 14 20  1  0.0000000  0  7G23G11G14G22G25G 1G20
  22887429.5644  -14026343.03149 -10924669.35547                  22887425.8284
        47.2504         31.7504
  21409296.8674  -10603197.38749  -8239059.23847                  21409294.1624
        46.0004         38.2504
  22782180.4384    4863692.89149   3779695.43847                  22782178.4514
        47.0004         30.5004
  24386469.2434    4795472.62149   3726224.85246                  24386468.6664
        40.0004         21.7504
  20674698.7434  -10784478.08249  -8380188.70348                  20674696.9184
        46.7504         42.0004
  22891806.6044  -12714171.62549  -9896052.13747                  22891805.9164
        44.0004         30.0004
  23261209.2494  -10787993.88349  -8400092.86747                  23261207.6734
        44.5004         27.5004
 04  7 14 20  1 15.0000000  0  7G23G11G14G22G25G 1G20
  22877584.4644  -14078077.42249 -10964981.86347                  22877581.0624
        46.5004         31.0004
  21405650.8684  -10622357.69149  -8253989.34847                  21405647.9904
        46.0004         38.2504
  22786344.1284    4885571.29349   3796743.53547                  22786342.4264
        45.7504         30.5004
  24390791.1344    4818177.64849   3743916.98446                  24390789.8674
        39.7504         20.5004
  20670955.9004  -10804147.35949  -8395515.41048                  20670953.6534
        46.7504         42.2504
  22882508.6344  -12763032.54749  -9934125.55947                  22882507.7274
        43.5004         30.5004
  23250043.4654  -10846672.44949  -8445816.40247                  23250041.0044
        45.5004         27.0004
 04  7 14 20  1 30.0000000  0  7G23G11G14G22G25G 1G20
  22867749.8884  -14129760.25449 -11005254.17247                  22867745.9794
        46.2504         31.5004
  21402030.8674  -10641380.56249  -8268812.36747                  21402028.2754
        45.7504         38.5004
  22790510.5254    4907464.06349   3813802.80947                  22790507.8634
        46.5004         30.5004
  24395118.8614    4840920.55949   3761638.68046                  24395118.0154
        40.0004         22.2504
  20667239.0914  -10823681.04349  -8410736.46548                  20667236.8534
        47.0004         42.7504
  22873221.0594  -12811839.34449  -9972156.80947                  22873220.2284
        45.0004         30.7504
  23238879.1734  -10905340.05549  -8491531.40647                  23238876.6014
        44.7504         27.0004
 04  7 14 20  1 45.0000000  0  7G23G11G14G22G25G 1G20
  22857924.7364  -14181392.40649 -11045486.99647                  22857920.7394
        47.0004         31.2504
  21398436.7474  -10660266.73849  -8283528.87147                  21398433.9114
        49.0004         38.5004
  22794679.4794    4929370.21149   3830872.50847                  22794676.8994
        47.5004         30.0004
  24399454.8514    4863700.48449   3779389.19946                  24399453.5384
        41.5004         22.5004
  20663547.0794  -10843080.05549  -8425852.56648                  20663544.9934
        49.5004         42.0004
  22863943.4974  -12860592.82049 -10010146.50047                  22863942.8444
        43.5004         31.2504
  23227717.3184  -10963997.39149  -8537238.38347                  23227715.1934
        45.0004         27.2504
 04  7 14 20  2  0.0000000  0  7G23G11G14G22G25G 1G20
  22848108.6034  -14232973.35949 -11085679.93447                  22848105.3484
        45.5004         31.2504
  21394868.8814  -10679015.70349  -8298138.46147                  21394866.3434
        50.7504         38.5004
  22798849.5554    4951290.07049   3847952.88747                  22798849.2414
        46.0004         30.5004
  24403796.4264    4886517.78949   3797168.83246                  24403795.8544
        42.0004         23.0004
  20659881.6454  -10862343.93749  -8440863.38348                  20659879.3214
        51.2504         42.5004
  22854676.3154  -12909292.50849 -10048094.29347                  22854675.5364
        43.7504         30.5004
  23216557.0594  -11022643.72349  -8582936.78947                  23216555.6894
        44.2504         26.7504
 04  7 14 20  2 15.0000000  0  7G23G11G14G22G25G 1G20
  22838303.0964  -14284502.96549 -11125832.85247                  22838299.4524
        46.7504         31.7504
  21391326.9714  -10697627.38349  -8312641.07847                  21391324.6994
        51.5004         38.0004
  22803023.6234    4973223.69149   3865044.01647                  22803021.2694
        48.0004         30.2504
  24408144.6834    4909372.55549   3814977.70746                  24408145.0144
        41.5004         23.0004
  20656241.5264  -10881472.52349  -8455768.77748                  20656239.3064
        51.2504         42.0004
  22845419.0814  -12957938.31249 -10086000.08247                  22845418.4354
        45.0004         30.0004
  23205398.6204  -11081278.85549  -8628626.47347                  23205396.8134
        45.0004         26.5004
 04  7 14 20  2 30.0000000  0  7G23G11G14G22G25G 1G20
  22828507.0634  -14335980.60549 -11165945.28547                  22828503.6754
        46.5004         32.0004
  21387812.0784  -10716101.06649  -8327036.16047                  21387809.4494
        50.7504         38.2504
  22807200.3424    4995171.41049   3882146.12547                  22807198.1404
        46.7504         30.2504
  24412501.3834    4932265.46549   3832816.26246                  24412501.4024
        38.7504         22.7504
  20652627.0384  -10900465.21149  -8470568.27348                  20652625.0014
        51.7504         42.0004
  22836172.2534  -13006529.64849 -10123863.45747                  22836171.2894
        45.5004         30.0004
  23194243.3764  -11139902.07449  -8674306.89547                  23194241.2754
        45.7504         26.7504
 04  7 14 20  2 45.0000000  0  7G23G11G14G22G25G 1G20
  22818721.2754  -14387407.26649 -11206017.98047                  22818717.4234
        46.5004         31.7504
  21384322.6064  -10734437.94549  -8341324.64847                  21384319.8254
        50.7504         38.5004
  22811379.4644    5017132.13349   3899258.33647                  22811378.0484
        47.0004         30.5004
  24416865.4924    4955195.41449   3850683.69946                  24416864.5834
        41.2504         23.0004
  20649038.4894  -10919323.04749  -8485262.68748                  20649036.7184
        51.5004         42.5004
  22826936.3594  -13055067.53549 -10161685.15247                  22826935.0274
        44.0004         30.0004
  23183090.0084  -11198514.17649  -8719978.64547                  23183087.8074
        45.2504         26.5004
 04  7 14 20  3  0.0000000  0  7G23G11G14G22G25G 1G20
  22808944.3564  -14438782.44149 -11246050.55947                  22808940.9524
        46.5004         31.0004
  21380859.3644  -10752637.41049  -8355506.04747                  21380856.6374
        50.5004         38.0004
  22815561.1024    5039106.30949   3916381.04747                  22815558.6444
        47.7504         30.2504
  24421236.4174    4978162.93849   3868580.41046                  24421234.6874
        43.0004         24.5004
  20645475.8834  -10938045.71949  -8499851.78148                  20645473.5784
        51.5004         42.0004
  22817709.0444  -13103551.50849 -10199464.86747                  22817709.3184
        42.5004         29.7504
  23171938.3904  -11257114.48849  -8765641.20347                  23171936.4644
        45.2504         27.5004
 04  7 14 20  3 15.0000000  0  7G23G11G14G22G25G 1G20
  22799178.1074  -14490105.82449 -11286042.78547                  22799174.3904
        46.5004         31.2504
  21377422.3154  -10770699.34849  -8369580.29347                  21377419.4674
        51.2504         38.7504
  22819744.8864    5061093.93849   3933514.25847                  22819744.0224
        46.7504         30.7504
  24425613.8944    5001168.12949   3886506.46546                  24425612.8604
        41.5004         22.2504
  20641938.9824  -10956632.91449  -8514335.31248                  20641936.7744
        51.5004         42.2504
  22808493.9004  -13151981.30549 -10237202.35247                  22808493.3494
        43.5004         30.7504
  23160789.8734  -11315702.60949  -8811294.26647                  23160788.1444
        45.2504         26.5004
 04  7 14 20  3 30.0000000  0  7G23G11G14G22G25G 1G20
  22789421.3444  -14541378.24649 -11325995.30547                  22789417.6644
        46.2504         31.7504
  21374010.9524  -10788624.48449  -8383547.94947                  21374008.4184
        50.2504         38.5004
  22823931.8374    5083094.18849   3950657.26647                  22823929.6344
        46.5004         29.7504
  24429998.4414    5024210.18849   3904461.26646                  24429998.1264
        41.2504         22.7504
  20638427.4564  -10975085.55549  -8528713.98848                  20638425.3684
        52.0004         41.7504
  22799287.9424  -13200357.73449 -10274898.23047                  22799288.0284
        42.2504         30.7504
  23149642.1344  -11374279.18749  -8856938.34447                  23149640.8434
        45.5004         26.7504
 04  7 14 20  3 45.0000000  0  7G23G11G14G22G25G 1G20
  22779674.6614  -14592597.72349 -11365906.55547                  22779670.8624
        47.0004         31.2504
  21370626.2644  -10806410.85949  -8397407.46947                  21370624.1134
        50.0004         38.5004
  22828120.7494    5105108.76649   3967811.49247                  22828119.0444
        47.0004         31.0004
  24434391.0244    5047291.10549   3922446.31646                  24434389.6184
        42.5004         22.2504
  20634942.1114  -10993401.65649  -8542986.27348                  20634939.8094
        51.7504         42.2504
  22790092.6484  -13248678.87549 -10312551.04747                  22790092.9384
        43.5004         31.7504
  23138498.8044  -11432842.23849  -8902571.85947                  23138497.4554
        45.5004         28.0004
 04  7 14 20  4  0.0000000  0  7G23G11G14G22G25G 1G20
  22769938.0114  -14643765.68449 -11405777.68447                  22769933.8534
        47.0004         31.7504
  21367267.9664  -10824059.85549  -8411159.94547                  21367265.5484
        50.2504         38.5004
  22832312.4094    5127136.00449   3984975.53947                  22832310.1374
        47.5004         30.2504
  24438789.6214    5070409.28949   3940460.42246                  24438788.8284
        41.7504         21.7504
  20631482.2534  -11011582.96149  -8557153.52048                  20631480.0214
        51.2504         42.0004
  22780907.8634  -13296946.19149 -10350161.92647                  22780907.3024
        42.5004         31.5004
  23127357.3724  -11491393.10549  -8948195.89547                  23127355.3304
        46.2504         27.0004
 04  7 14 20  4 15.0000000  0  7G23G11G14G22G25G 1G20
  22760210.5734  -14694881.55549 -11445608.20347                  22760206.9224
        46.2504         31.7504
  21363935.9174  -10841570.93749  -8424804.94947                  21363933.2834
        51.0004         38.2504
  22836506.9164    5149176.46949   4002149.90247                  22836505.4294
        47.2504         30.0004
  24443197.1274    5093565.27349   3958503.98446                  24443196.1654
        42.0004         22.5004
  20628048.1144  -11029628.70749  -8571215.14148                  20628046.0554
        51.2504         42.5004
  22771732.9194  -13345159.11349 -10387730.43047                  22771732.8164
        44.5004         30.7504
  23116218.0024  -11549930.78149  -8993809.64147                  23116215.6514
        46.2504         28.2504
 04  7 14 20  4 30.0000000  0  7G23G11G14G22G25G 1G20
  22750493.1414  -14745946.64849 -11485399.17247                  22750489.9964
        46.5004         31.5004
  21360629.7404  -10858945.58249  -8438343.63747                  21360627.0664
        51.0004         38.5004
  22840703.3014    5171228.77749   4019333.51247                  22840700.4444
        46.0004         28.7504
  24447610.6284    5116757.71149   3976575.93446                  24447609.4864
        41.7504         24.7504
  20624639.7224  -11047540.30949  -8585172.23848                  20624637.4054
        52.0004         42.0004
  22762568.1144  -13393319.01649 -10425257.60547                  22762568.3364
        42.5004         29.0004
  23105080.8334  -11608456.57049  -9039414.13747                  23105078.6154
        45.5004         28.2504
 04  7 14 20  4 45.0000000  0  7G23G11G14G22G25G 1G20
  22740785.4324  -14796960.70749 -11525150.37147                  22740781.9294
        46.2504         32.5004
  21357349.1784  -10876183.42649  -8451775.73847                  21357346.5324
        51.0004         38.2504
  22844901.5674    5193293.00849   4036526.39847                  22844901.1964
        46.0004         30.5004
  24452030.1194    5139986.88349   3994676.54346                  24452029.7454
        41.5004         22.2504
  20621256.9154  -11065317.47349  -8599024.57448                  20621254.7034
        51.7504         42.0004
  22753414.1834  -13441425.61349 -10462743.23047                  22753413.9124
        44.0004         30.0004
  23093945.7054  -11666970.06249  -9085009.03947                  23093944.2124
        47.0004         28.0004
 04  7 14 20  5  0.0000000  0  7G23G11G14G22G25G 1G20
  22731087.6774  -14847922.78549 -11564861.05947                  22731084.3574
        46.5004         32.5004
  21354095.1484  -10893283.53949  -8465100.50847                  21354092.7554
        50.0004         38.7504
  22849102.0724    5215369.85949   4053729.13347                  22849100.6474
        46.0004         29.2504
  24456457.2654    5163253.71149   4012806.47346                  24456457.4564
        40.0004         22.5004
  20617899.9514  -11082959.30149  -8612771.44948                  20617897.7614
        52.5004         42.0004
  22744270.1994  -13489477.91049 -10500186.57047                  22744269.7214
        44.0004         30.0004
  23082813.4084  -11725470.00449  -9130593.37947                  23082812.4954
        47.2504         29.7504
 04  7 14 20  5 15.0000000  0  7G23G11G14G22G25G 1G20
  22721399.4194  -14898833.94949 -11604532.08247                  22721395.9514
        47.2504         32.5004
  21350867.1724  -10910247.09849  -8478318.87547                  21350864.8494
        50.0004         38.7504
  22853306.0654    5237458.13749   4070940.74647                  22853304.3594
        47.0004         29.2504
  24460892.0214    5186556.90249   4030964.75446                  24460891.9944
        41.7504         23.0004
  20614568.0804  -11100467.15649  -8626413.93448                  20614565.9764
        51.5004         41.5004
  22735136.0914  -13537477.08249 -10537588.50447                  22735135.8964
        43.7504         31.0004
  23071683.7604  -11783957.58649  -9176168.10247                  23071682.3204
        47.0004         29.7504
 04  7 14 20  5 30.0000000  0  7G23G11G14G22G25G 1G20
  22711721.2514  -14949693.55549 -11644162.93047                  22711717.7264
        47.2504         32.0004
  21347665.3124  -10927073.46149  -8491430.33247                  21347663.0764
        51.7504         39.2504
  22857511.2784    5259558.31349   4088161.65247                  22857509.9394
        45.5004         29.7504
  24465333.6894    5209897.14849   4049151.87946                  24465333.2594
        41.0004         22.7504
  20611262.2334  -11117840.30149  -8639951.44948                  20611260.1214
        52.0004         42.2504
  22726012.0704  -13585422.54349 -10574948.58247                  22726012.2514
        43.0004         29.0004
  23060556.3104  -11842432.06249  -9221732.60247                  23060554.3754
        46.0004         28.5004
 04  7 14 20  5 45.0000000  0  7G23G11G14G22G25G 1G20
  22702053.0904  -15000501.25449 -11683753.33647                  22702049.3554
        46.5004         32.5004
  21344489.3614  -10943762.24249  -8504434.59047                  21344487.0584
        50.2504         38.5004
  22861719.2194    5281670.85249   4105392.16047                  22861718.8774
        45.7504         29.5004
  24469782.7724    5233274.77049   4067368.14146                  24469782.0244
        39.7504         22.2504
  20607981.8974  -11135078.36349  -8653383.70348                  20607979.7364
        51.0004         42.5004
  22716899.0774  -13633313.84849 -10612266.46147                  22716898.8364
        44.5004         30.5004
  23049432.2124  -11900892.69949  -9267286.32847                  23049429.9844
        47.2504         30.5004
 04  7 14 20  6  0.0000000  0  7G23G11G14G22G25G 1G20
  22692393.9874  -15051257.82849 -11723303.89547                  22692390.4964
        46.5004         32.5004
  21341339.3994  -10960314.33649  -8517332.32047                  21341337.3074
        47.5004         38.5004
  22865930.0274    5303794.53949   4122631.37147                  22865926.2924
        45.5004         28.5004
  24474237.4774    5256688.91449   4085612.86746                  24474237.4894
        39.2504         22.7504
  20604726.9694  -11152182.31249  -8666711.45748                  20604724.6264
        49.2504         42.0004
  22707795.9214  -13681151.93749 -10649542.87947                  22707795.4534
        45.5004         31.0004
  23038309.9164  -11959340.21149  -9312829.83247                  23038307.9324
        46.5004         30.5004
 04  7 14 20  6 15.0000000  0  7G23G11G14G22G25G 1G20
  22682744.5514  -15101964.34449 -11762815.44547                  22682741.5624
        47.0004         32.7504
  21338215.7004  -10976730.82849  -8530124.40247                  21338213.5354
        46.0004         38.2504
  22870141.4414    5325928.14149   4139878.32047                  22870141.4174
        45.5004         29.0004
  24478699.8494    5280138.30549   4103885.05146                  24478700.4974
        39.7504         22.0004
  20601497.7254  -11169153.25449  -8679935.57448                  20601495.2784
        47.0004         42.2504
  22698702.4964  -13728937.93449 -10686778.70347                  22698701.7814
        44.2504         31.2504
  23027190.0614  -12017775.54749  -9358363.83247                  23027187.7624
        47.0004         30.0004
 04  7 14 20  6 30.0000000  0  7G23G11G14G22G25G 1G20
  22673106.0784  -15152618.82449 -11802286.44547                  22673102.0784
        46.5004         33.0004
  21335118.1064  -10993009.84449  -8542809.35947                  21335115.5054
        46.0004         38.0004
  22874356.1194    5348073.64549   4157134.53947                  22874353.8064
        46.7504         29.0004
  24483169.8264    5303625.18049   4122186.41046                  24483169.2084
        38.7504         21.0004
  20598293.7994  -11185989.23449  -8693054.51648                  20598291.7834
        46.7504         42.2504
  22689619.7174  -13776669.80549 -10723972.35247                  22689619.2264
        44.5004         30.5004
  23016072.5674  -12076196.59449  -9403886.70347                  23016070.9244
        46.5004         30.5004
 04  7 14 20  6 45.0000000  0  7G23G11G14G22G25G 1G20
  22663476.8964  -15203221.93049 -11841717.41847                  22663472.8934
        47.5004         33.2504
  21332046.1974  -11009152.12149  -8555387.76647                  21332043.9134
        48.5004         38.5004
  22878572.9244    5370230.12549   4174399.28547                  22878570.4224
        45.7504         29.5004
  24487645.4494    5327148.40649   4140516.12946                  24487645.2314
        40.5004         21.7504
  20595115.6814  -11202691.14549  -8706068.99648                  20595113.2344
        49.2504         42.2504
  22680545.9614  -13824348.34449 -10761124.43747                  22680546.1864
        46.2504         30.5004
  23004958.1634  -12134603.97349  -9449398.91847                  23004955.9594
        47.0004         30.0004
 04  7 14 20  7  0.0000000  0  7G23G11G14G22G25G 1G20
  22653857.0234  -15253773.65249 -11881108.35247                  22653853.5684
        46.7504         33.5004
  21329000.3544  -11025157.51249  -8567859.50847                  21328997.7434
        51.5004         38.2504
  22882789.5784    5392397.45749   4191672.53547                  22882788.9694
        45.0004         30.0004
  24492129.0884    5350708.27049   4158874.37946                  24492128.7344
        40.0004         21.7504
  20591962.9634  -11219258.78549  -8718978.84448                  20591960.6954
        52.0004         42.0004
  22671483.2614  -13871973.44149 -10798234.87947                  22671483.2054
        44.7504         31.0004
  22993845.7734  -12192997.35549  -9494900.24247                  22993844.5744
        46.0004         30.2504
 04  7 14 20  7 15.0000000  0  7G23G11G14G22G25G 1G20
  22644246.5304  -15304275.44949 -11920460.38347                  22644242.7944
        47.2504         32.7504
  21325980.5264  -11041027.52049  -8580225.75047                  21325977.8864
        51.2504         38.5004
  22887009.9074    5414574.16049   4208953.05147                  22887008.8244
        46.0004         29.7504
  24496619.7354    5374303.23849   4177260.00046                  24496619.7574
        40.7504         22.5004
  20588835.3834  -11235693.77749  -8731785.33248                  20588833.1614
        51.7504         41.7504
  22662430.5134  -13919546.59849 -10835304.85947                  22662430.1784
        46.5004         30.5004
  22982736.3664  -12251378.08649  -9540391.68747                  22982735.1074
        46.5004         30.5004
 04  7 14 20  7 30.0000000  0  7G23G11G14G22G25G 1G20
  22634645.8384  -15354726.74249 -11959773.06247                  22634641.9424
        46.7504         32.7504
  21322986.5174  -11056761.52349  -8592486.02347                  21322984.0724
        51.5004         38.2504
  22891231.7124    5436760.67249   4226241.20347                  22891230.1874
        45.0004         29.0004
  24501116.9994    5397933.82449   4195673.33246                  24501116.2894
        41.5004         22.5004
  20585733.2864  -11251995.59849  -8744488.04748                  20585731.2644
        52.2504         42.2504
  22653387.8214  -13967067.23849 -10872333.91047                  22653386.9614
        46.5004         31.2504
  22971629.2694  -12309745.40249  -9585872.69947                  22971627.6164
        46.0004         29.2504
 04  7 14 20  7 45.0000000  0  7G23G11G14G22G25G 1G20
  22625055.3084  -15405125.30549 -11999044.64847                  22625051.6514
        46.5004         32.5004
  21320018.4794  -11072357.48849  -8604638.74247                  21320015.8874
        51.0004         38.0004
  22895456.1824    5458958.98049   4243538.55947                  22895455.8504
        45.7504         29.0004
  24505620.2504    5421602.14149   4214116.12546                  24505621.0194
        41.5004         23.0004
  20582656.7754  -11268162.26649  -8757085.44948                  20582654.6464
        52.0004         42.2504
  22644355.4294  -14014533.27049 -10909320.43047                  22644354.6244
        46.0004         31.5004
  22960525.5604  -12368096.91849  -9631341.39147                  22960523.8644
        45.5004         29.5004
 04  7 14 20  8  0.0000000  0  7G23G11G14G22G25G 1G20
  22615474.6084  -15455473.60949 -12038277.07447                  22615471.1944
        47.2504         32.7504
  21317076.6684  -11087817.96149  -8616685.86747                  21317074.1694
        47.2504         38.2504
  22899682.6334    5481166.46549   4260843.06347                  22899680.2094
        46.2504         29.5004
  24510130.7824    5445305.59049   4232586.27046                  24510130.7024
        40.5004         23.0004
  20579605.5494  -11284196.41449  -8769579.59448                  20579603.3744
        49.2504         41.7504
  22635332.3794  -14061947.25449 -10946266.37547                  22635332.2854
        46.0004         31.2504
  22949424.5904  -12426435.05949  -9676799.65247                  22949422.2164
        46.5004         29.7504
 04  7 14 20  8 15.0000000  0  7G23G11G14G22G25G 1G20
  22605903.1144  -15505770.15249 -12077469.18047                  22605899.7444
        47.5004         32.5004
  21314160.2484  -11103141.48049  -8628626.28147                  21314157.9524
        45.5004         38.5004
  22903910.3604    5503384.51649   4278155.80547                  22903909.3924
        45.2504         29.5004
  24514648.5244    5469045.81649   4251085.06646                  24514647.6624
        40.5004         21.7504
  20576580.0184  -11300096.33649  -8781969.14848                  20576577.6864
        46.7504         41.7504
  22626320.1044  -14109307.51249 -10983170.44947                  22626320.1354
        46.7504         31.5004
  22938325.9164  -12484757.98449  -9722246.08247                  22938323.3824
        45.2504         29.7504
 04  7 14 20  8 30.0000000  0  7G23G11G14G22G25G 1G20
  22596342.1844  -15556016.61349 -12116622.25447                  22596337.9134
        47.2504         32.7504
  21311270.3694  -11118329.72349  -8640461.28147                  21311267.9344
        46.5004         38.2504
  22908139.8124    5525611.34449   4295475.41047                  22908139.3294
        46.2504         30.2504
  24519173.5784    5492821.04349   4269611.12946                  24519171.8674
        40.7504         20.5004
  20573579.6754  -11315863.77049  -8794255.45748                  20573577.2354
        48.0004         42.5004
  22617318.0004  -14156615.80149 -11020034.02347                  22617317.3474
        47.2504         31.7504
  22927229.6054  -12543067.30549  -9767681.89547                  22927227.6194
        45.0004         29.0004
 04  7 14 20  8 45.0000000  0  7G23G11G14G22G25G 1G20
  22586789.8224  -15606211.81249 -12155735.35947                  22586786.2894
        47.7504         33.5004
  21308406.1764  -11133381.51249  -8652189.96947                  21308403.6844
        50.2504         38.7504
  22912371.8344    5547848.00449   4312802.64147                  22912370.3724
        46.5004         29.5004
  24523704.4754    5516632.29349   4288165.30946                  24523703.8984
        41.2504         22.2504
  20570604.3714  -11331497.80549  -8806437.82448                  20570602.4304
        51.5004         42.5004
  22608325.4624  -14203870.97349 -11056856.22747                  22608325.3114
        47.0004         31.0004
  22916136.3644  -12601361.75049  -9813106.12547                  22916134.4204
        45.0004         29.0004
 04  7 14 20  9  0.0000000  0  7G23G11G14G22G25G 1G20
  22577248.0924  -15656355.19949 -12194808.11747                  22577244.3864
        47.2504         32.7504
  21305568.3574  -11148296.34049  -8663811.91447                  21305565.4664
        46.0004         38.5004
  22916604.7324    5570094.96149   4330137.90247                  22916603.7454
        45.5004         29.0004
  24528242.5214    5540480.16049   4306747.95746                  24528242.0384
        40.7504         22.0004
  20567654.8574  -11346997.90649  -8818515.81648                  20567652.8904
        46.7504         42.2504
  22599342.9744  -14251072.48849 -11093636.59847                  22599342.5234
        46.5004         31.2504
  22905046.3134  -12659640.48449  -9858518.08647                  22905045.0824
        44.5004         28.5004
 04  7 14 20  9 15.0000000  0  7G23G11G14G22G25G 1G20
  22567715.9164  -15706447.73849 -12233841.23847                  22567712.7504
        47.7504         32.5004
  21302755.6194  -11163075.19149  -8675327.91047                  21302753.0014
        46.0004         38.2504
  22920840.7304    5592351.08649   4347480.28947                  22920839.4524
        46.7504         29.0004
  24532787.4764    5564363.60949   4325358.37146                  24532787.3644
        41.0004         22.2504
  20564730.6764  -11362365.04349  -8830490.21548                  20564728.7544
        47.5004         42.0004
  22590371.4994  -14298221.34849 -11130375.95347                  22590370.4334
        47.0004         32.2504
  22893959.5864  -12717904.34049  -9903918.46147                  22893957.7244
        45.5004         29.5004
 04  7 14 20  9 30.0000000  0  7G23G11G14G22G25G 1G20
  22558193.5404  -15756488.89149 -12272834.32047                  22558189.9014
        47.7504         33.0004
  21299969.3714  -11177717.50449  -8686737.52347                  21299966.9504
        50.2504         37.7504
  22925077.3584    5614616.70749   4364830.11347                  22925075.7054
        45.0004         29.5004
  24537339.8364    5588283.10249   4343996.89146                  24537338.7094
        42.5004         22.0004
  20561831.7104  -11377598.87949  -8842360.73848                  20561829.7344
        51.0004         42.0004
  22581409.1534  -14345317.09049 -11167073.91447                  22581408.7224
        47.5004         32.7504
  22882874.9584  -12776152.77349  -9949306.84047                  22882872.9654
        46.0004         28.7504
 04  7 14 20  9 45.0000000  0  7G23G11G14G22G25G 1G20
  22548680.5584  -15806478.48449 -12311787.24247                  22548676.6334
        47.2504         33.5004
  21297209.1754  -11192223.28149  -8698040.73047                  21297206.7744
        50.5004         38.2504
  22929315.9254    5636891.98049   4382187.45747                  22929314.3324
        45.7504         29.2504
  24541897.2484    5612238.65649   4362663.49246                  24541897.4134
        42.5004         22.5004
  20558958.0034  -11392699.26249  -8854127.26648                  20558955.7084
        51.7504         41.7504
  22572456.5264  -14392359.55949 -11203730.37547                  22572456.6584
        46.5004         31.2504
  22871793.4394  -12834385.27049  -9994682.79747                  22871792.1954
        45.7504         28.2504
 04  7 14 20 10  0.0000000  0  7G23G11G14G22G25G 1G20
  22539177.4474  -15856416.55549 -12350700.00047                  22539173.6524
        47.2504         33.5004
  21294474.3764  -11206592.61749  -8709237.62547                  21294472.3124
        47.0004         38.5004
  22933557.6634    5659176.72749   4399552.15647                  22933556.0664
        46.2504         29.5004
  24546463.9694    5636230.35249   4381358.25046                  24546463.0774
        43.2504         23.2504
  20556110.1644  -11407666.25849  -8865789.85948                  20556107.9304
        48.5004         42.0004
  22563515.4964  -14439348.76249 -11240345.32847                  22563515.1264
        46.5004         32.2504
  22860715.2404  -12892601.67649 -10040046.21147                  22860714.2664
        45.5004         30.0004
 04  7 14 20 10 15.0000000  0  7G23G11G14G22G25G 1G20
  22529684.1384  -15906304.00849 -12389573.33247                  22529680.3054
        46.7504         32.7504
  21291766.1934  -11220826.48449  -8720328.96147                  21291763.6084
        45.7504         38.2504
  22937798.8544    5681469.78549   4416923.34047                  22937798.1224
        46.0004         29.7504
  24551035.0874    5660257.12549   4400080.32046                  24551035.4364
        41.7504         22.5004
  20553286.8814  -11422500.94549  -8877349.35548                  20553285.0034
        46.5004         42.0004
  22554583.8174  -14486285.72349 -11276919.55147                  22554583.0724
        47.0004         31.5004
  22849640.1054  -12950802.84849 -10085397.73847                  22849638.2964
        44.5004         29.5004
 04  7 14 20 10 30.0000000  0  7G23G11G14G22G25G 1G20
  22520200.9964  -15956140.27749 -12428406.75447                  22520196.9644
        47.5004         32.5004
  21289083.3514  -11234924.31649  -8731314.29747                  21289080.8794
        45.7504         38.2504
  22942042.6674    5703771.75049   4434301.47747                  22942041.5534
        46.2504         28.7504
  24555614.6334    5684319.52049   4418830.16846                  24555614.2484
        41.7504         21.5004
  20550489.4454  -11437202.78149  -8888805.32848                  20550487.1094
        47.0004         42.5004
  22545662.0774  -14533169.86349 -11313452.62147                  22545661.8194
        46.5004         31.7504
  22838567.6864  -13008988.00449 -10130736.82847                  22838565.1644
        44.7504         28.2504
 04  7 14 20 10 45.0000000  0  7G23G11G14G22G25G 1G20
  22510727.5124  -16005924.95349 -12467199.98847                  22510723.4194
        48.0004         32.7504
  21286426.7194  -11248885.78949  -8742193.37547                  21286423.8504
        49.2504         38.2504
  22946288.8574    5726082.83249   4451686.69547                  22946286.7944
        45.5004         27.2504
  24560200.5184    5708417.89549   4437608.07846                  24560199.7524
        41.5004         22.5004
  20547717.3784  -11451771.37949  -8900157.48448                  20547715.0754
        49.7504         42.2504
  22536750.5394  -14580000.75449 -11349944.20347                  22536750.0744
        47.5004         32.0004
  22827498.6404  -13067156.71149 -10176063.08647                  22827496.8324
        44.5004         28.7504
 04  7 14 20 11  0.0000000  0  7G23G11G14G22G25G 1G20
  22501263.4534  -16055656.31649 -12505951.68047                  22501259.9484
        48.0004         34.0004
  21283796.2934  -11262709.22349  -8752964.88747                  21283793.5164
        50.5004         38.5004
  22950536.3444    5748404.64549   4469080.30947                  22950535.3164
        46.0004         29.0004
  24564793.3964    5732553.93449   4456415.30546                  24564793.0404
        41.5004         22.0004
  20544970.2654  -11466205.10549  -8911404.54348                  20544968.2204
        51.7504         42.0004
  22527849.2484  -14626776.67249 -11386392.94947                  22527848.7874
        47.0004         32.5004
  22816433.1634  -13125306.95749 -10221374.93747                  22816432.3504
        44.5004         30.5004
 04  7 14 20 11 15.0000000  0  7G23G11G14G22G25G 1G20
  22491808.9464  -16105336.63749 -12544663.60947                  22491805.9944
        47.0004         33.5004
  21281191.4204  -11276396.86749  -8763630.58647                  21281189.0064
        50.7504         38.0004
  22954785.9474    5770734.93049   4486480.47347                  22954784.4804
        46.5004         27.2504
  24569393.4564    5756725.37949   4475250.12146                  24569392.8794
        42.0004         22.0004
  20542249.0644  -11480506.48049  -8922548.46948                  20542246.9394
        51.7504         42.0004
  22518957.9144  -14673499.98049 -11422800.71547                  22518957.9624
        47.2504         31.7504
  22805370.1044  -13183440.85549 -10266674.06247                  22805368.7984
        44.0004         30.0004
 04  7 14 20 11 30.0000000  0  7G23G11G14G22G25G 1G20
  22482365.1354  -16154963.41849 -12583333.79747                  22482362.4104
        47.2504         32.7504
  21278613.0034  -11289946.29749  -8774188.60247                  21278610.8604
        50.2504         38.0004
  22959036.8924    5793075.82049   4503888.94547                  22959035.0444
        45.7504         29.0004
  24574000.1484    5780934.71949   4494114.44546                  24573999.7814
        39.5004         20.5004
  20539553.2084  -11494672.99249  -8933587.30948                  20539551.0964
        51.7504         41.7504
  22510077.0894  -14720168.23449 -11459165.55947                  22510076.8264
        47.5004         32.0004
  22794311.9694  -13241555.74249 -10311958.39147                  22794309.5744
        44.2504         29.5004
 04  7 14 20 11 45.0000000  0  7G23G11G14G22G25G 1G20
  22472932.0924  -16204539.03949 -12621964.12547                  22472928.3644
        48.0004         33.5004
  21276060.2724  -11303360.16849  -8784640.97747                  21276057.7584
        49.7504         38.0004
  22963289.8224    5815424.86349   4521303.78147                  22963287.7494
        46.2504         28.2504
  24578612.8994    5805179.33649   4513006.28546                  24578613.4414
        38.5004         20.5004
  20536882.5724  -11508707.19949  -8944523.05948                  20536880.4594
        50.2504         42.0004
  22501206.3834  -14766783.79749 -11495489.35547                  22501206.2744
        47.2504         32.0004
  22783255.5974  -13299653.87949 -10357229.66047                  22783254.1984
        45.5004         30.0004
